[[{"header":{"parameterUnit":"m.s-1","parameterCategory":1,"la1":31.0,"la2":29.5877,"lo1":-88.7671,"lo2":-86.6584,"dy":0.0162,"dx":0.0185,"nx":115,"ny":88,"refTime":"2024-08-17T12:00:00:Z","depth":0,"parameterNumber":2,"parameterNumberName":"U-component_of_WINDS"},"data":[0.0,0.0,0.0,0.0,0.0,0.0,0.0,0.0,0.0,0.0,0.0,0.0,0.0,0.0,0.0,0.0,0.0,0.0,0.0,0.0,0.0,0.0,0.0,0.0,0.0,0.0,0.0,0.0,0.0,0.0,0.0,0.0,0.0,0.0,0.0,0.0,0.0,0.0,0.0,0.0,0.0,0.0,0.0,0.0,0.0,0.0,0.0,0.0,0.0,0.0,0.0,0.0,0.0,0.0,0.0,0.0,0.0,0.0,0.0,0.0,0.0,0.0,0.0,0.0,0.0,0.0,0.0,0.0,0.0,0.0,0.0,0.0,0.0,0.0,0.0,0.0,0.0,0.0,0.0,0.0,0.0,0.0,0.0,0.0,0.0,0.0,0.0,0.0,0.0,0.0,0.0,0.0,0.0,0.0,0.0,0.0,0.0,0.0,0.0,0.0,0.0,0.0,0.0,0.0,0.0,0.0,0.0,0.0,0.0,0.0,0.0,0.0,0.0,0.0,0.0,0.0,0.0,0.0,0.0,0.0,0.0,0.0,0.0,0.0,0.0,0.0,0.0,0.0,0.0,0.0,0.0,0.0,0.0,0.0,0.0,0.0,0.0,0.0,0.0,0.0,0.0,0.0,0.0,0.0,0.0,0.0,0.0,0.0,0.0,0.0,0.0,0.0,0.0,0.0,0.0,0.0,0.0,0.0,0.0,0.0,0.0,0.0,0.0,0.0,0.0,0.0,0.0,0.0,0.0,0.0,0.0,0.0,0.0,0.0,0.0,0.0,0.0,0.0,0.0,0.0,0.0,0.0,0.0,0.0,0.0,0.0,0.0,0.0,0.0,0.0,0.0,0.0,0.0,0.0,0.0,0.0,0.0,0.0,0.0,0.0,0.0,0.0,0.0,0.0,0.0,0.0,0.0,0.0,0.0,0.0,0.0,0.0,0.0,0.0,0.0,0.0,0.0,0.0,0.0,0.0,0.0,0.0,0.0,0.0,0.0,0.0,0.0,0.0,0.0,0.0,0.0,0.0,0.0,0.0,0.0,0.0,0.0,0.0,0.0,0.0,0.0,0.0,0.0,0.0,0.0,0.0,0.0,0.0,0.0,0.0,0.0,0.0,0.0,0.0,0.0,0.0,0.0,0.0,0.0,0.0,0.0,0.0,0.0,0.0,0.0,0.0,0.0,0.0,0.0,0.0,0.0,0.0,0.0,0.0,0.0,0.0,0.0,0.0,0.0,0.0,0.0,0.0,0.0,0.0,0.0,0.0,0.0,0.0,0.0,0.0,0.0,0.0,0.0,0.0,0.0,0.0,0.0,0.0,0.0,0.0,0.0,0.0,0.0,0.0,0.0,0.0,0.0,0.0,0.0,0.0,0.0,0.0,0.0,0.0,0.0,0.0,0.0,0.0,0.0,0.0,0.0,0.0,0.0,0.0,0.0,0.0,0.0,0.0,0.0,0.0,0.0,0.0,0.0,0.0,0.0,0.0,0.0,0.0,0.0,0.0,0.0,0.0,0.0,0.0,0.0,0.0,0.0,0.0,0.0,0.0,0.0,0.0,0.0,0.0,0.0,0.0,0.0,0.0,0.0,0.0,0.0,0.0,0.0,0.0,0.0,0.0,0.0,0.0,0.0,0.0,0.0,0.0,0.0,0.0,0.0,0.0,0.0,0.0,0.0,0.0,0.0,0.0,0.0,0.0,0.0,0.0,0.0,0.0,0.0,0.0,0.0,0.0,0.0,0.0,0.0,0.0,0.0,0.0,0.0,0.0,0.0,0.0,0.0,0.0,0.0,0.0,0.0,0.0,0.0,0.0,0.0,0.0,0.0,0.0,0.0,0.0,0.0,0.0,0.0,0.0,0.0,0.0,0.0,0.0,0.0,0.0,0.0,0.0,0.0,0.0,0.0,0.0,0.0,0.0,0.0,0.0,0.0,0.0,0.0,0.0,0.0,0.0,0.0,0.0,0.0,0.0,0.0,0.0,0.0,0.0,0.0,0.0,0.0,0.0,0.0,0.0,0.0,0.0,0.0,0.0,0.0,0.0,0.0,0.0,0.0,0.0,0.0,0.0,0.0,0.0,0.0,0.0,0.0,0.0,0.0,0.0,0.0,0.0,0.0,0.0,0.0,0.0,0.0,0.0,0.0,0.0,0.0,0.0,0.0,0.0,0.0,0.0,0.0,0.0,0.0,0.0,0.0,0.0,0.0,0.0,0.0,0.0,0.0,0.0,0.0,0.0,0.0,0.0,0.0,0.0,0.0,0.0,0.0,0.0,0.0,0.0,0.0,0.0,0.0,0.0,0.0,0.0,0.0,0.0,0.0,0.0,0.0,0.0,0.0,0.0,0.0,0.0,0.0,0.0,0.0,0.0,0.0,0.0,0.0,0.0,0.0,0.0,0.0,0.0,0.0,0.0,0.0,0.0,0.0,0.0,0.0,0.0,0.0,0.0,0.0,0.0,0.0,0.0,0.0,0.0,0.0,0.0,0.0,0.0,0.0,0.0,0.0,0.0,0.0,0.0,0.0,0.0,0.0,0.0,0.0,0.0,0.0,0.0,0.0,0.0,0.0,0.0,0.0,0.0,0.0,0.0,0.0,0.0,0.0,0.0,0.0,0.0,0.0,0.0,0.0,0.0,0.0,0.0,0.0,0.0,0.0,0.0,0.0,0.0,0.0,0.0,0.0,0.0,0.0,0.0,0.0,0.0,0.0,0.0,0.0,0.0,0.0,0.0,0.0,0.0,0.0,0.0,0.0,0.0,0.0,0.0,0.0,0.0,0.0,0.0,0.0,0.0,0.0,0.0,0.0,0.0,0.0,0.0,0.0,0.0,0.0,0.0,0.0,0.0,0.0,0.0,0.0,0.0,0.0,0.0,0.0,0.0,0.0,0.0,0.0,0.0,0.0,0.0,0.0,0.0,0.0,0.0,0.0,0.0,0.0,0.0,0.0,0.0,0.0,0.0,0.0,0.0,0.0,0.0,0.0,0.0,0.0,0.0,0.0,0.0,0.0,0.0,0.0,0.0,0.0,0.0,0.0,0.0,0.0,0.0,0.0,0.0,0.0,0.0,0.0,0.0,0.0,0.0,0.0,0.0,0.0,0.0,0.0,0.0,0.0,0.0,0.0,0.0,0.0,0.0,0.0,0.0,0.0,0.0,0.0,0.0,0.0,0.0,0.0,0.0,0.0,0.0,0.0,0.0,0.0,0.0,0.0,0.0,0.0,0.0,0.0,0.0,0.0,0.0,0.0,0.0,0.0,0.0,0.0,0.0,0.0,0.0,0.0,0.0,0.0,0.0,0.0,0.0,0.0,0.0,0.0,0.0,0.0,0.0,0.0,0.0,0.0,0.0,0.0,0.0,0.0,0.0,0.0,0.0,0.0,0.0,0.0,0.0,0.0,0.0,0.0,0.0,0.0,0.0,0.0,0.0,0.0,0.0,0.0,0.0,0.0,0.0,0.0,0.0,0.0,0.0,0.0,0.0,0.0,0.0,0.0,0.0,0.0,0.0,0.0,0.0,0.0,0.0,0.0,0.0,0.0,0.0,0.0,0.0,0.0,0.0,0.0,0.0,0.0,0.0,0.0,0.0,0.0,0.0,0.0,0.0,0.0,0.0,0.0,0.0,0.0,0.0,0.0,0.0,0.0,0.0,0.0,0.0,0.0,0.0,0.0,0.0,0.0,0.0,0.0,0.0,0.0,0.0,0.0,0.0,0.0,0.0,0.0,0.0,0.0,0.0,0.0,0.0,0.0,0.0,0.0,0.0,0.0,0.0,0.0,0.0,0.0,0.0,0.0,0.0,0.0,0.0,0.0,0.0,0.0,0.0,0.0,0.0,0.0,0.0,0.0,0.0,0.0,0.0,0.0,0.0,0.0,0.0,0.0,0.0,0.0,0.0,0.0,0.0,0.0,0.0,0.0,0.0,0.0,0.0,0.0,0.0,0.0,0.0,0.0,0.0,0.0,0.0,0.0,0.0,0.0,0.0,0.0,0.0,0.0,0.0,0.0,0.0,0.0,0.0,0.0,0.0,0.0,0.0,0.0,0.0,0.0,0.0,0.0,0.0,0.0,0.0,0.0,0.0,0.0,0.0,0.0,0.0,0.0,0.0,0.0,0.0,0.0,0.0,0.0,0.0,0.0,0.0,0.0,0.0,0.0,0.0,0.0,0.0,0.0,0.0,0.0,0.0,0.0,0.0,0.0,0.0,0.0,0.0,0.0,0.0,0.0,0.0,0.0,0.0,0.0,0.0,0.0,0.0,0.0,0.0,-2.6253,0.0,0.0,0.0,0.0,0.0,0.0,0.0,0.0,0.0,0.0,0.0,0.0,0.0,0.0,0.0,0.0,0.0,0.0,0.0,0.0,0.0,0.0,0.0,0.0,0.0,0.0,0.0,0.0,0.0,0.0,0.0,0.0,0.0,0.0,0.0,0.0,0.0,0.0,0.0,0.0,0.0,0.0,0.0,0.0,0.0,0.0,0.0,0.0,0.0,0.0,0.0,0.0,0.0,0.0,0.0,0.0,0.0,0.0,0.0,0.0,0.0,0.0,0.0,0.0,0.0,0.0,0.0,0.0,0.0,0.0,0.0,0.0,0.0,0.0,0.0,0.0,0.0,0.0,0.0,0.0,0.0,0.0,0.0,0.0,0.0,0.0,0.0,0.0,0.0,0.0,0.0,0.0,0.0,0.0,0.0,0.0,0.0,0.0,0.0,0.0,0.0,0.0,0.0,0.0,0.0,0.0,0.0,0.0,0.0,0.0,-1.9354,-2.3389,-2.6045,-2.7704,-2.8259,0.0,0.0,0.0,0.0,0.0,0.0,0.0,0.0,0.0,0.0,0.0,0.0,0.0,0.0,0.0,0.0,0.0,0.0,0.0,0.0,0.0,0.0,0.0,0.0,0.0,0.0,0.0,0.0,0.0,0.0,0.0,0.0,0.0,0.0,0.0,0.0,0.0,0.0,0.0,0.0,0.0,0.0,0.0,0.0,0.0,0.0,0.0,0.0,0.0,0.0,0.0,0.0,0.0,0.0,0.0,0.0,0.0,0.0,0.0,0.0,0.0,0.0,0.0,0.0,0.0,0.0,0.0,0.0,0.0,0.0,0.0,0.0,0.0,0.0,0.0,0.0,0.0,0.0,0.0,0.0,0.0,0.0,0.0,0.0,0.0,0.0,0.0,0.0,0.0,0.0,0.0,0.0,0.0,0.0,0.0,0.0,0.0,0.0,0.0,0.0,0.0,0.0,0.0,0.0,0.0,0.0,0.0,0.0,0.0,0.0,0.0,0.0,-2.9442,-3.0264,-2.9509,0.0,0.0,0.0,0.0,0.0,0.0,0.0,0.0,0.0,0.0,0.0,0.0,0.0,0.0,0.0,0.0,0.0,0.0,0.0,0.0,0.0,0.0,0.0,0.0,0.0,0.0,0.0,0.0,0.0,0.0,0.0,0.0,0.0,0.0,0.0,0.0,0.0,0.0,0.0,0.0,0.0,0.0,0.0,0.0,0.0,0.0,0.0,0.0,0.0,0.0,0.0,0.0,0.0,0.0,0.0,0.0,0.0,0.0,0.0,0.0,0.0,0.0,0.0,0.0,0.0,0.0,0.0,0.0,0.0,0.0,0.0,0.0,0.0,0.0,0.0,0.0,0.0,0.0,0.0,0.0,0.0,0.0,0.0,0.0,0.0,0.0,0.0,0.0,0.0,0.0,0.0,0.0,0.0,0.0,0.0,0.0,0.0,0.0,0.0,0.0,0.0,0.0,0.0,0.0,0.0,0.0,0.0,0.0,0.0,0.0,-2.6539,-3.0115,-3.2227,0.0,-2.8939,0.0,0.0,0.0,0.0,0.0,0.0,0.0,0.0,0.0,0.0,0.0,0.0,0.0,0.0,0.0,0.0,0.0,0.0,0.0,0.0,0.0,0.0,0.0,0.0,0.0,0.0,0.0,0.0,0.0,0.0,0.0,0.0,0.0,0.0,0.0,0.0,0.0,0.0,0.0,0.0,0.0,0.0,0.0,0.0,0.0,0.0,0.0,0.0,0.0,0.0,0.0,0.0,0.0,0.0,0.0,0.0,0.0,0.0,0.0,0.0,0.0,0.0,0.0,0.0,0.0,0.0,0.0,0.0,0.0,0.0,0.0,0.0,0.0,0.0,0.0,0.0,0.0,0.0,0.0,0.0,0.0,0.0,0.0,0.0,0.0,0.0,0.0,0.0,0.0,0.0,0.0,0.0,0.0,0.0,0.0,0.0,0.0,0.0,0.0,0.0,0.0,0.0,0.0,0.0,0.0,0.0,0.0,0.0,0.0,0.0,-2.9952,-3.359,-3.4349,-3.3281,0.0,0.0,0.0,0.0,0.0,0.0,0.0,0.0,0.0,0.0,0.0,0.0,0.0,0.0,0.0,0.0,0.0,0.0,0.0,0.0,0.0,0.0,0.0,0.0,0.0,0.0,0.0,0.0,0.0,0.0,0.0,0.0,0.0,0.0,0.0,0.0,0.0,0.0,0.0,0.0,0.0,0.0,0.0,0.0,0.0,0.0,0.0,0.0,0.0,0.0,0.0,0.0,0.0,0.0,0.0,0.0,0.0,0.0,0.0,0.0,0.0,0.0,0.0,0.0,0.0,0.0,0.0,0.0,0.0,0.0,0.0,0.0,0.0,0.0,0.0,0.0,0.0,0.0,0.0,0.0,0.0,0.0,0.0,0.0,0.0,0.0,0.0,0.0,0.0,0.0,0.0,0.0,0.0,0.0,0.0,0.0,0.0,0.0,0.0,0.0,0.0,0.0,0.0,0.0,0.0,0.0,0.0,0.0,0.0,0.0,-2.8478,-3.2682,-3.6458,-3.5933,-3.4197,-3.1453,0.0,0.0,0.0,0.0,0.0,0.0,0.0,0.0,0.0,0.0,0.0,0.0,0.0,0.0,0.0,0.0,0.0,0.0,0.0,0.0,0.0,0.0,0.0,0.0,0.0,0.0,0.0,0.0,0.0,0.0,0.0,0.0,0.0,0.0,0.0,0.0,0.0,0.0,0.0,0.0,0.0,0.0,0.0,0.0,0.0,0.0,0.0,0.0,0.0,0.0,0.0,0.0,0.0,0.0,0.0,0.0,0.0,0.0,0.0,0.0,0.0,0.0,0.0,0.0,0.0,0.0,0.0,0.0,0.0,0.0,0.0,0.0,0.0,0.0,0.0,0.0,0.0,0.0,0.0,0.0,0.0,0.0,0.0,0.0,0.0,0.0,0.0,0.0,0.0,0.0,0.0,0.0,0.0,0.0,0.0,0.0,0.0,0.0,0.0,0.0,0.0,0.0,0.0,0.0,0.0,0.0,0.0,0.0,-2.5004,-2.973,-3.4382,-3.8846,-3.6977,-3.4517,0.0,0.0,0.0,0.0,0.0,0.0,0.0,0.0,0.0,0.0,0.0,0.0,0.0,0.0,0.0,0.0,0.0,0.0,0.0,0.0,0.0,0.0,0.0,0.0,0.0,0.0,0.0,0.0,0.0,0.0,0.0,0.0,0.0,0.0,0.0,0.0,0.0,0.0,0.0,0.0,0.0,0.0,0.0,0.0,0.0,0.0,0.0,0.0,0.0,0.0,0.0,0.0,0.0,0.0,0.0,0.0,0.0,0.0,0.0,0.0,0.0,0.0,0.0,0.0,0.0,0.0,0.0,0.0,0.0,0.0,0.0,0.0,0.0,0.0,0.0,0.0,0.0,0.0,0.0,0.0,0.0,0.0,0.0,0.0,0.0,0.0,0.0,0.0,0.0,0.0,0.0,0.0,0.0,0.0,0.0,0.0,0.0,0.0,0.0,0.0,0.0,0.0,0.0,0.0,0.0,0.0,0.0,0.0,0.0,-2.8183,-3.3918,-3.7394,-3.8324,-3.7297,-3.5203,0.0,0.0,0.0,0.0,0.0,0.0,0.0,0.0,0.0,0.0,0.0,0.0,0.0,0.0,0.0,0.0,0.0,0.0,0.0,0.0,0.0,0.0,0.0,0.0,0.0,0.0,0.0,0.0,0.0,0.0,0.0,0.0,0.0,0.0,0.0,0.0,0.0,0.0,0.0,0.0,0.0,0.0,0.0,0.0,0.0,0.0,0.0,0.0,0.0,0.0,0.0,0.0,0.0,0.0,0.0,0.0,0.0,0.0,0.0,0.0,0.0,0.0,0.0,0.0,0.0,0.0,0.0,0.0,0.0,0.0,0.0,0.0,0.0,0.0,0.0,0.0,0.0,0.0,0.0,0.0,0.0,0.0,0.0,0.0,0.0,0.0,0.0,0.0,0.0,0.0,0.0,0.0,0.0,0.0,0.0,0.0,0.0,0.0,0.0,0.0,0.0,0.0,0.0,0.0,0.0,0.0,0.0,0.0,0.0,-3.2013,0.0,-3.9376,0.0,-3.7759,-3.5639,0.0,0.0,0.0,0.0,0.0,0.0,0.0,0.0,0.0,0.0,0.0,0.0,0.0,0.0,0.0,0.0,0.0,0.0,0.0,0.0,0.0,0.0,0.0,0.0,0.0,0.0,0.0,0.0,0.0,0.0,0.0,0.0,0.0,0.0,0.0,0.0,0.0,0.0,0.0,0.0,0.0,0.0,0.0,0.0,0.0,0.0,0.0,0.0,0.0,0.0,0.0,0.0,0.0,0.0,0.0,0.0,0.0,0.0,0.0,0.0,0.0,0.0,0.0,0.0,0.0,0.0,0.0,0.0,0.0,0.0,0.0,0.0,0.0,0.0,0.0,0.0,0.0,0.0,0.0,0.0,0.0,0.0,0.0,0.0,0.0,0.0,0.0,0.0,0.0,0.0,0.0,0.0,0.0,0.0,0.0,0.0,0.0,0.0,0.0,0.0,0.0,0.0,0.0,0.0,0.0,0.0,0.0,0.0,-2.8207,-3.631,-3.8783,-4.0125,-4.0427,-3.8459,-3.5851,0.0,0.0,0.0,0.0,0.0,0.0,0.0,0.0,0.0,0.0,0.0,0.0,0.0,0.0,0.0,0.0,0.0,0.0,0.0,0.0,0.0,0.0,0.0,0.0,0.0,0.0,0.0,0.0,0.0,0.0,0.0,0.0,0.0,0.0,0.0,0.0,0.0,0.0,0.0,0.0,0.0,0.0,0.0,0.0,0.0,0.0,0.0,0.0,0.0,0.0,0.0,0.0,0.0,0.0,0.0,0.0,0.0,0.0,0.0,0.0,0.0,0.0,0.0,0.0,0.0,0.0,0.0,0.0,0.0,0.0,0.0,0.0,0.0,0.0,0.0,0.0,0.0,0.0,0.0,0.0,0.0,0.0,0.0,0.0,0.0,0.0,0.0,0.0,0.0,0.0,0.0,0.0,0.0,0.0,0.0,0.0,0.0,0.0,0.0,0.0,0.0,0.0,0.0,0.0,0.0,0.0,0.0,0.0,0.0,-3.839,-4.106,-4.2077,-4.1365,-3.9406,-3.6821,0.0,0.0,0.0,0.0,0.0,0.0,0.0,0.0,0.0,0.0,0.0,0.0,0.0,0.0,0.0,0.0,0.0,0.0,0.0,0.0,0.0,0.0,0.0,0.0,0.0,0.0,0.0,0.0,0.0,0.0,0.0,0.0,0.0,0.0,0.0,0.0,0.0,0.0,0.0,0.0,0.0,0.0,0.0,0.0,0.0,0.0,0.0,0.0,0.0,0.0,0.0,0.0,0.0,0.0,0.0,0.0,0.0,0.0,0.0,0.0,0.0,0.0,0.0,0.0,0.0,0.0,0.0,0.0,0.0,0.0,0.0,0.0,0.0,0.0,0.0,0.0,0.0,0.0,0.0,0.0,0.0,0.0,0.0,0.0,0.0,0.0,0.0,0.0,0.0,0.0,0.0,0.0,0.0,0.0,0.0,0.0,0.0,0.0,0.0,0.0,0.0,0.0,0.0,0.0,0.0,0.0,0.0,0.0,0.0,-4.0707,-4.283,-4.3525,-4.265,-4.0666,-3.8005,-3.4605,0.0,0.0,0.0,0.0,0.0,0.0,0.0,0.0,0.0,0.0,0.0,0.0,0.0,0.0,0.0,0.0,0.0,0.0,0.0,0.0,0.0,0.0,0.0,0.0,0.0,0.0,0.0,0.0,0.0,0.0,0.0,0.0,0.0,0.0,0.0,0.0,0.0,0.0,0.0,0.0,0.0,0.0,0.0,0.0,0.0,0.0,0.0,0.0,0.0,0.0,0.0,0.0,0.0,0.0,0.0,0.0,0.0,0.0,0.0,0.0,0.0,0.0,0.0,0.0,0.0,0.0,0.0,0.0,0.0,0.0,0.0,0.0,0.0,0.0,0.0,0.0,0.0,0.0,0.0,0.0,0.0,0.0,0.0,0.0,0.0,0.0,0.0,0.0,0.0,0.0,0.0,0.0,0.0,0.0,0.0,0.0,0.0,0.0,0.0,0.0,0.0,0.0,0.0,0.0,0.0,0.0,0.0,0.0,-4.3202,-4.4177,-4.4537,-4.4225,-4.223,-3.937,0.0,0.0,0.0,0.0,0.0,0.0,0.0,0.0,0.0,0.0,0.0,0.0,0.0,0.0,0.0,0.0,0.0,0.0,0.0,0.0,0.0,0.0,0.0,0.0,0.0,0.0,0.0,0.0,0.0,0.0,0.0,0.0,0.0,0.0,0.0,0.0,0.0,0.0,0.0,0.0,0.0,0.0,0.0,0.0,0.0,0.0,0.0,0.0,0.0,0.0,0.0,0.0,0.0,0.0,0.0,0.0,0.0,0.0,0.0,0.0,0.0,0.0,0.0,0.0,0.0,0.0,0.0,0.0,0.0,0.0,0.0,0.0,0.0,0.0,0.0,0.0,0.0,0.0,0.0,0.0,0.0,0.0,0.0,0.0,0.0,0.0,0.0,0.0,0.0,0.0,0.0,0.0,0.0,0.0,0.0,0.0,0.0,0.0,0.0,0.0,0.0,0.0,0.0,0.0,0.0,0.0,0.0,0.0,0.0,-4.3729,-4.5701,-4.6715,-4.6698,-4.4166,-4.1414,0.0,0.0,0.0,0.0,0.0,0.0,0.0,0.0,0.0,0.0,0.0,0.0,0.0,0.0,0.0,0.0,0.0,0.0,0.0,0.0,0.0,0.0,0.0,0.0,0.0,0.0,0.0,0.0,0.0,0.0,0.0,0.0,0.0,0.0,0.0,0.0,0.0,0.0,0.0,0.0,0.0,0.0,0.0,0.0,0.0,0.0,0.0,0.0,0.0,0.0,0.0,0.0,0.0,0.0,0.0,0.0,0.0,0.0,0.0,0.0,0.0,0.0,0.0,0.0,0.0,0.0,0.0,0.0,0.0,0.0,0.0,0.0,0.0,0.0,0.0,0.0,0.0,0.0,0.0,0.0,0.0,0.0,0.0,0.0,0.0,0.0,0.0,0.0,0.0,0.0,0.0,0.0,0.0,0.0,0.0,0.0,0.0,0.0,0.0,0.0,0.0,0.0,0.0,0.0,0.0,0.0,0.0,0.0,-4.2294,-4.4469,-4.6682,-4.7758,-4.7573,-4.5004,-4.2282,0.0,0.0,0.0,0.0,0.0,0.0,0.0,0.0,0.0,0.0,0.0,0.0,0.0,0.0,0.0,0.0,0.0,0.0,0.0,0.0,0.0,0.0,0.0,0.0,0.0,0.0,0.0,0.0,0.0,0.0,0.0,0.0,0.0,0.0,0.0,0.0,0.0,0.0,0.0,0.0,0.0,0.0,0.0,0.0,0.0,0.0,0.0,0.0,0.0,0.0,0.0,0.0,0.0,0.0,0.0,0.0,0.0,0.0,0.0,0.0,0.0,0.0,0.0,0.0,0.0,0.0,0.0,0.0,0.0,0.0,0.0,0.0,0.0,0.0,0.0,0.0,0.0,0.0,0.0,0.0,0.0,0.0,0.0,0.0,0.0,0.0,0.0,0.0,0.0,0.0,0.0,0.0,0.0,0.0,0.0,0.0,0.0,0.0,0.0,0.0,0.0,0.0,0.0,0.0,0.0,0.0,0.0,0.0,-4.3314,-4.5263,-4.7206,-4.7937,-4.7373,-4.5183,-4.2503,0.0,0.0,0.0,0.0,0.0,0.0,0.0,0.0,0.0,0.0,0.0,0.0,0.0,0.0,0.0,0.0,0.0,0.0,0.0,0.0,0.0,0.0,0.0,0.0,0.0,0.0,0.0,0.0,0.0,0.0,0.0,0.0,0.0,0.0,0.0,0.0,0.0,0.0,0.0,0.0,0.0,0.0,0.0,0.0,0.0,0.0,0.0,0.0,0.0,0.0,0.0,0.0,0.0,0.0,0.0,0.0,0.0,0.0,0.0,0.0,0.0,0.0,0.0,0.0,0.0,0.0,0.0,0.0,0.0,0.0,0.0,0.0,0.0,0.0,0.0,0.0,0.0,0.0,0.0,0.0,0.0,0.0,0.0,0.0,0.0,0.0,0.0,0.0,0.0,0.0,0.0,0.0,0.0,0.0,0.0,0.0,0.0,0.0,0.0,0.0,0.0,0.0,0.0,0.0,0.0,0.0,0.0,0.0,-4.3385,-4.5854,-4.7009,-4.753,-4.7406,-4.5501,-4.297,0.0,0.0,0.0,0.0,0.0,0.0,0.0,0.0,0.0,0.0,0.0,0.0,0.0,0.0,0.0,0.0,0.0,0.0,0.0,0.0,0.0,0.0,0.0,0.0,0.0,0.0,0.0,0.0,0.0,0.0,0.0,0.0,0.0,0.0,0.0,0.0,0.0,0.0,0.0,0.0,0.0,0.0,0.0,0.0,0.0,0.0,0.0,0.0,-3.6925,0.0,0.0,0.0,0.0,0.0,0.0,0.0,0.0,0.0,0.0,0.0,0.0,0.0,0.0,0.0,0.0,0.0,0.0,0.0,0.0,0.0,0.0,0.0,0.0,0.0,0.0,0.0,0.0,0.0,0.0,0.0,0.0,0.0,0.0,0.0,0.0,0.0,0.0,0.0,0.0,0.0,0.0,0.0,0.0,0.0,0.0,0.0,0.0,0.0,0.0,0.0,0.0,0.0,0.0,0.0,0.0,0.0,0.0,0.0,-4.3707,-4.6101,-4.6982,-4.7106,-4.6507,-4.5158,-4.2967,0.0,0.0,0.0,0.0,0.0,0.0,0.0,0.0,0.0,0.0,0.0,0.0,0.0,0.0,0.0,0.0,0.0,0.0,0.0,0.0,0.0,0.0,0.0,0.0,0.0,0.0,0.0,0.0,0.0,0.0,0.0,0.0,0.0,0.0,0.0,0.0,0.0,0.0,0.0,0.0,0.0,0.0,0.0,0.0,0.0,0.0,0.0,0.0,0.0,0.0,0.0,0.0,0.0,0.0,0.0,0.0,0.0,0.0,0.0,0.0,0.0,0.0,0.0,0.0,0.0,0.0,0.0,0.0,0.0,0.0,0.0,0.0,0.0,0.0,0.0,0.0,0.0,0.0,0.0,0.0,0.0,0.0,0.0,0.0,0.0,0.0,0.0,0.0,0.0,0.0,0.0,0.0,0.0,0.0,0.0,0.0,0.0,0.0,0.0,0.0,0.0,0.0,0.0,0.0,0.0,0.0,0.0,-4.1538,-4.394,-4.6209,-4.6834,-4.6571,-4.552,-4.4509,-4.2569,-3.9613,0.0,0.0,0.0,0.0,0.0,0.0,0.0,0.0,0.0,0.0,0.0,0.0,0.0,0.0,0.0,0.0,0.0,0.0,0.0,0.0,0.0,0.0,0.0,0.0,0.0,0.0,0.0,0.0,0.0,0.0,0.0,0.0,0.0,0.0,0.0,0.0,0.0,0.0,-2.629,-3.4671,0.0,0.0,0.0,0.0,0.0,0.0,0.0,0.0,-4.0492,0.0,0.0,0.0,0.0,0.0,0.0,0.0,0.0,0.0,0.0,0.0,0.0,0.0,0.0,0.0,0.0,0.0,0.0,0.0,0.0,0.0,0.0,0.0,0.0,0.0,0.0,0.0,0.0,0.0,0.0,0.0,0.0,0.0,0.0,0.0,0.0,0.0,0.0,0.0,0.0,0.0,0.0,0.0,0.0,0.0,0.0,0.0,0.0,0.0,0.0,0.0,0.0,0.0,0.0,0.0,0.0,-3.8779,-4.0856,-4.3367,-4.6287,-4.5993,-4.5724,-4.5451,-4.3888,-4.1677,-3.8799,0.0,0.0,0.0,0.0,0.0,0.0,0.0,0.0,0.0,0.0,0.0,0.0,0.0,0.0,0.0,0.0,0.0,0.0,0.0,0.0,0.0,0.0,0.0,0.0,0.0,0.0,0.0,0.0,0.0,0.0,0.0,0.0,0.0,0.0,0.0,0.0,0.0,0.0,0.0,-3.9789,-4.1736,0.0,0.0,0.0,0.0,0.0,0.0,0.0,0.0,-4.0562,0.0,0.0,0.0,0.0,0.0,0.0,0.0,0.0,0.0,0.0,0.0,0.0,0.0,0.0,0.0,0.0,0.0,0.0,0.0,0.0,0.0,0.0,0.0,0.0,0.0,0.0,0.0,0.0,0.0,0.0,0.0,0.0,0.0,0.0,0.0,0.0,0.0,0.0,0.0,0.0,0.0,0.0,0.0,0.0,0.0,0.0,0.0,0.0,0.0,0.0,0.0,0.0,0.0,0.0,0.0,-3.8543,-4.0946,-4.3372,-4.581,-4.5648,-4.5153,-4.4356,-4.322,-4.1095,0.0,0.0,0.0,0.0,0.0,0.0,0.0,0.0,0.0,0.0,0.0,0.0,0.0,0.0,0.0,0.0,0.0,0.0,0.0,0.0,0.0,0.0,0.0,0.0,0.0,0.0,0.0,0.0,0.0,0.0,0.0,0.0,0.0,0.0,0.0,0.0,0.0,0.0,0.0,0.0,-4.2515,-4.3537,-4.5788,0.0,0.0,0.0,0.0,0.0,0.0,-4.157,-4.1019,0.0,0.0,0.0,0.0,0.0,0.0,0.0,0.0,0.0,0.0,0.0,0.0,0.0,0.0,0.0,0.0,0.0,0.0,0.0,0.0,0.0,0.0,0.0,0.0,0.0,0.0,0.0,0.0,0.0,0.0,0.0,0.0,0.0,0.0,0.0,0.0,0.0,0.0,0.0,0.0,0.0,0.0,0.0,0.0,0.0,0.0,0.0,0.0,0.0,0.0,0.0,0.0,0.0,0.0,0.0,-3.8236,-4.092,-4.3165,-4.498,-4.5056,-4.4429,-4.3092,-4.2121,-4.0105,0.0,0.0,0.0,0.0,0.0,0.0,0.0,0.0,0.0,0.0,0.0,0.0,0.0,0.0,0.0,0.0,0.0,0.0,0.0,0.0,0.0,0.0,0.0,0.0,0.0,0.0,0.0,0.0,0.0,0.0,0.0,0.0,0.0,0.0,0.0,0.0,0.0,0.0,0.0,0.0,0.0,-4.5398,-4.7327,-4.599,0.0,0.0,0.0,0.0,-4.2729,-4.2056,0.0,0.0,0.0,0.0,0.0,0.0,0.0,0.0,0.0,0.0,0.0,0.0,0.0,0.0,0.0,0.0,0.0,0.0,0.0,0.0,0.0,0.0,0.0,0.0,0.0,0.0,0.0,0.0,0.0,0.0,0.0,0.0,0.0,0.0,0.0,0.0,0.0,0.0,0.0,0.0,0.0,0.0,0.0,0.0,0.0,0.0,0.0,0.0,0.0,0.0,0.0,0.0,0.0,0.0,0.0,0.0,-3.7285,-4.0129,-4.2182,-4.3455,-4.3558,-4.3106,-4.2157,-3.9909,-3.7832,0.0,0.0,0.0,0.0,0.0,0.0,0.0,0.0,0.0,0.0,0.0,0.0,0.0,0.0,0.0,0.0,0.0,0.0,0.0,0.0,0.0,0.0,0.0,0.0,0.0,0.0,0.0,0.0,0.0,0.0,0.0,0.0,0.0,0.0,0.0,0.0,0.0,0.0,0.0,0.0,0.0,-4.6679,-4.7937,-4.7231,-4.6175,0.0,0.0,-4.3181,-4.2945,-4.2622,0.0,0.0,0.0,0.0,0.0,0.0,0.0,0.0,0.0,0.0,0.0,0.0,0.0,0.0,0.0,0.0,0.0,0.0,0.0,0.0,0.0,0.0,0.0,0.0,0.0,0.0,0.0,0.0,0.0,0.0,0.0,0.0,0.0,0.0,0.0,0.0,0.0,0.0,0.0,0.0,0.0,0.0,0.0,0.0,0.0,0.0,0.0,0.0,0.0,0.0,0.0,0.0,0.0,0.0,0.0,-3.316,-3.6877,-3.932,-4.1436,-4.3194,-4.2816,-4.1981,-4.0731,-3.8905,-3.6786,0.0,0.0,0.0,0.0,0.0,0.0,0.0,0.0,0.0,0.0,0.0,0.0,0.0,0.0,0.0,0.0,0.0,0.0,0.0,0.0,0.0,0.0,0.0,0.0,0.0,0.0,0.0,0.0,0.0,0.0,0.0,0.0,0.0,0.0,0.0,0.0,0.0,0.0,0.0,0.0,0.0,0.0,-4.8494,-4.774,0.0,0.0,0.0,-4.3609,-4.2849,0.0,0.0,0.0,0.0,0.0,0.0,0.0,0.0,0.0,0.0,0.0,0.0,0.0,0.0,0.0,0.0,0.0,0.0,0.0,0.0,0.0,0.0,0.0,0.0,0.0,0.0,0.0,0.0,0.0,0.0,0.0,0.0,0.0,0.0,0.0,0.0,0.0,0.0,0.0,0.0,0.0,0.0,0.0,0.0,0.0,0.0,0.0,0.0,0.0,0.0,0.0,0.0,0.0,0.0,0.0,0.0,0.0,-3.6336,-3.8695,-4.0789,-4.2565,-4.2046,-4.0949,-3.9416,-3.8155,0.0,0.0,0.0,0.0,0.0,0.0,0.0,0.0,0.0,0.0,0.0,0.0,0.0,0.0,0.0,0.0,0.0,0.0,0.0,0.0,0.0,0.0,0.0,0.0,0.0,0.0,0.0,-1.3801,0.0,0.0,0.0,0.0,0.0,0.0,0.0,0.0,0.0,0.0,0.0,0.0,0.0,0.0,-4.7491,-4.8663,-4.8036,-4.6973,0.0,0.0,-4.4176,-4.3214,-4.2914,-4.2311,0.0,0.0,0.0,0.0,0.0,0.0,0.0,0.0,0.0,0.0,0.0,0.0,0.0,0.0,0.0,0.0,0.0,0.0,0.0,0.0,0.0,0.0,0.0,0.0,0.0,0.0,0.0,0.0,0.0,0.0,0.0,0.0,0.0,0.0,0.0,0.0,0.0,0.0,0.0,0.0,0.0,0.0,0.0,0.0,0.0,0.0,0.0,0.0,0.0,0.0,0.0,0.0,0.0,0.0,0.0,-3.5284,-3.833,-4.023,-4.085,-4.0826,-4.0074,-3.8532,-3.7252,-3.5088,0.0,0.0,0.0,0.0,0.0,0.0,0.0,0.0,0.0,0.0,0.0,0.0,0.0,0.0,0.0,0.0,0.0,0.0,0.0,0.0,0.0,0.0,0.0,0.0,0.0,0.0,0.0,0.0,0.0,0.0,0.0,0.0,0.0,0.0,0.0,0.0,0.0,0.0,0.0,0.0,0.0,-4.747,-4.824,-4.8238,-4.7754,0.0,0.0,-4.5217,-4.4312,-4.4167,-4.3259,-4.0646,0.0,0.0,0.0,0.0,0.0,0.0,0.0,0.0,0.0,0.0,0.0,0.0,0.0,0.0,0.0,0.0,0.0,0.0,0.0,0.0,0.0,0.0,0.0,0.0,0.0,0.0,0.0,0.0,0.0,0.0,0.0,0.0,0.0,0.0,0.0,0.0,0.0,0.0,0.0,0.0,0.0,0.0,0.0,0.0,0.0,0.0,0.0,0.0,0.0,0.0,0.0,0.0,0.0,-3.2129,-3.5059,-3.725,-3.9113,-4.0628,-4.0185,-3.9209,-3.7808,-3.6824,-3.475,0.0,0.0,0.0,0.0,0.0,0.0,0.0,0.0,0.0,0.0,0.0,0.0,0.0,0.0,0.0,0.0,0.0,0.0,0.0,0.0,0.0,0.0,0.0,0.0,0.0,0.0,0.0,0.0,-2.1507,-2.3047,-2.5394,0.0,0.0,0.0,0.0,0.0,0.0,0.0,0.0,0.0,0.0,-4.7584,-4.7697,-4.7613,0.0,0.0,-4.5302,-4.4253,-4.3761,-4.2919,-4.1767,-3.9979,-3.8658,0.0,0.0,0.0,0.0,0.0,0.0,0.0,0.0,0.0,0.0,0.0,0.0,0.0,0.0,0.0,0.0,0.0,0.0,0.0,0.0,0.0,0.0,0.0,0.0,0.0,0.0,0.0,0.0,0.0,0.0,0.0,0.0,0.0,0.0,0.0,0.0,0.0,0.0,0.0,0.0,0.0,0.0,0.0,0.0,0.0,0.0,0.0,0.0,0.0,0.0,0.0,0.0,-3.1836,-3.4543,-3.6254,-3.8001,-3.9665,-3.9134,-3.8117,-3.6744,-3.6133,-3.4263,0.0,0.0,0.0,0.0,0.0,0.0,0.0,0.0,0.0,0.0,0.0,0.0,0.0,0.0,0.0,0.0,0.0,0.0,0.0,0.0,0.0,0.0,0.0,0.0,0.0,0.0,0.0,0.0,-2.3892,-2.5753,-2.8151,0.0,0.0,0.0,0.0,0.0,0.0,0.0,0.0,0.0,0.0,-4.7306,-4.7205,-4.7078,-4.6808,-4.6217,-4.4821,-4.3632,-4.3155,-4.1949,-4.063,-3.9236,0.0,0.0,0.0,0.0,0.0,0.0,0.0,0.0,0.0,0.0,0.0,0.0,0.0,0.0,0.0,0.0,0.0,0.0,0.0,0.0,0.0,0.0,0.0,0.0,0.0,0.0,0.0,0.0,0.0,0.0,-2.2999,0.0,0.0,0.0,0.0,0.0,0.0,0.0,0.0,0.0,0.0,0.0,0.0,0.0,0.0,0.0,0.0,0.0,0.0,0.0,0.0,0.0,0.0,-3.1523,-3.3531,-3.5522,-3.687,-3.7484,-3.7464,-3.6709,-3.5175,-3.5047,-3.3457,-3.0146,0.0,0.0,0.0,0.0,0.0,0.0,0.0,0.0,0.0,0.0,0.0,0.0,0.0,0.0,0.0,0.0,0.0,0.0,0.0,0.0,0.0,0.0,0.0,0.0,0.0,0.0,-2.4066,-2.6341,-2.821,0.0,0.0,0.0,0.0,0.0,0.0,0.0,0.0,0.0,0.0,-4.599,-4.6523,-4.6785,-4.6672,-4.6373,-4.5883,-4.4795,-4.3702,-4.2646,-4.1672,-4.0396,0.0,0.0,0.0,0.0,0.0,0.0,0.0,0.0,0.0,0.0,0.0,0.0,0.0,0.0,0.0,0.0,0.0,0.0,0.0,0.0,0.0,0.0,0.0,0.0,0.0,0.0,0.0,-2.6686,-2.635,0.0,0.0,0.0,0.0,0.0,0.0,0.0,0.0,0.0,0.0,0.0,-3.0432,-3.0363,0.0,0.0,0.0,0.0,0.0,0.0,0.0,0.0,0.0,0.0,0.0,0.0,-3.1958,-3.3499,-3.5459,-3.6791,-3.734,-3.6807,-3.6015,-3.5027,-3.4406,-3.2684,-2.9749,0.0,0.0,0.0,0.0,0.0,0.0,0.0,0.0,0.0,0.0,0.0,0.0,0.0,0.0,0.0,0.0,0.0,0.0,0.0,0.0,0.0,0.0,0.0,0.0,0.0,-2.2339,0.0,0.0,0.0,0.0,0.0,0.0,0.0,0.0,0.0,0.0,0.0,-4.3024,-4.5172,-4.5762,-4.6015,-4.6108,-4.5433,-4.4926,0.0,0.0,0.0,0.0,0.0,0.0,0.0,0.0,0.0,0.0,0.0,0.0,0.0,0.0,-3.9433,-3.8718,-3.858,-3.8467,-3.8103,0.0,0.0,0.0,0.0,0.0,0.0,0.0,0.0,0.0,0.0,0.0,0.0,0.0,0.0,-2.824,0.0,-2.7566,0.0,0.0,0.0,0.0,0.0,0.0,0.0,0.0,-3.1413,-3.202,-3.1681,-3.1663,-3.1542,0.0,-3.1089,-3.0666,0.0,0.0,0.0,0.0,0.0,0.0,0.0,0.0,-3.2333,-3.3514,-3.525,-3.6194,-3.6182,-3.5616,-3.4803,-3.3704,-3.2763,-3.1336,-2.9356,-2.8505,-2.7299,0.0,0.0,0.0,0.0,0.0,0.0,0.0,0.0,0.0,0.0,0.0,0.0,0.0,0.0,0.0,0.0,0.0,0.0,0.0,0.0,0.0,0.0,0.0,-2.4669,0.0,0.0,0.0,0.0,0.0,0.0,0.0,0.0,0.0,-3.9584,-4.188,-4.3861,-4.496,-4.5376,-4.5516,-4.5312,0.0,0.0,0.0,0.0,0.0,0.0,0.0,-3.9677,-3.9367,-3.9207,-3.9323,-3.9827,-4.0568,-4.1091,-4.1078,0.0,0.0,-4.0475,-4.0262,-4.0162,-3.9798,-4.0011,-4.0162,-3.9798,-4.0011,-4.0262,0.0,0.0,0.0,0.0,0.0,0.0,0.0,0.0,-3.0026,-2.9347,0.0,-2.8563,0.0,0.0,0.0,0.0,0.0,0.0,0.0,0.0,-3.307,-3.3389,-3.1863,-3.2827,-3.2988,-3.2327,-3.2278,-3.2932,-3.4044,-3.1111,0.0,0.0,0.0,0.0,0.0,0.0,-3.2705,-3.3498,-3.4782,-3.4953,-3.4022,-3.3939,-3.3031,-3.1267,-3.033,-2.9566,-2.8988,-2.8938,-2.8448,-2.7381,-2.6654,0.0,0.0,0.0,0.0,0.0,0.0,0.0,0.0,0.0,0.0,0.0,0.0,0.0,0.0,0.0,0.0,0.0,0.0,0.0,0.0,-2.4418,0.0,0.0,0.0,0.0,0.0,0.0,0.0,0.0,0.0,0.0,-4.0074,-4.2966,-4.4933,-4.4525,0.0,0.0,0.0,0.0,-4.2714,-4.2435,-4.2222,-4.1697,-4.0696,-4.0733,-4.0638,-3.9874,0.0,0.0,-4.1213,-4.1806,-4.2213,-4.2225,-4.2627,-4.2647,-4.1526,-4.1338,-4.1326,-4.1313,-4.1326,-4.1338,-4.1326,-4.1367,-4.1326,-3.5887,0.0,0.0,0.0,0.0,-3.4038,-3.4209,-3.4573,-3.4409,-3.3751,-3.2692,-3.1795,0.0,0.0,0.0,0.0,0.0,0.0,-3.2394,-3.3368,-3.4211,-3.4042,-3.3105,-3.3163,-3.3071,-3.2862,-3.3138,-3.3881,-3.4923,-3.3882,-3.2995,-3.2346,0.0,0.0,0.0,0.0,-3.305,-3.3234,-3.402,-3.3959,-3.3017,-3.2343,-3.1439,-3.0241,-2.9934,-2.9716,-2.9541,-2.9541,-2.9214,-2.8461,-2.7801,0.0,0.0,0.0,0.0,0.0,0.0,0.0,0.0,0.0,0.0,0.0,0.0,0.0,0.0,0.0,0.0,0.0,0.0,0.0,-2.3623,-2.6515,-2.89,0.0,0.0,0.0,0.0,0.0,0.0,0.0,0.0,0.0,-4.1489,-4.343,-4.4945,0.0,0.0,-4.457,-4.4208,-4.3429,-4.2718,-4.2255,0.0,0.0,0.0,-4.115,-4.1106,-4.089,-4.1329,-4.1743,-4.1894,-4.2384,-4.2791,-4.2803,-4.2873,-4.2861,-4.2597,-4.2497,-4.2497,-4.2497,-4.2497,-4.2509,-4.2509,-4.2509,-4.2497,-3.8123,-3.7015,-3.6492,-3.6267,-3.6234,-3.6123,-3.6179,-3.6296,-3.6178,-3.5667,-3.488,-3.4235,-3.3566,-3.2782,-3.126,0.0,0.0,0.0,-3.3723,-3.4288,-3.456,-3.4271,-3.3462,-3.3204,-3.3124,-3.3099,-3.3325,-3.4027,-3.5072,-3.4998,-3.4825,-3.4485,0.0,0.0,-3.2658,-3.2924,-3.3071,-3.3101,-3.3323,-3.2996,-3.2069,-3.1119,-3.0381,-2.9818,-2.9779,-2.9779,-2.9779,-2.9779,-2.9641,-2.9289,-2.8587,-2.7164,0.0,0.0,0.0,0.0,0.0,0.0,0.0,0.0,0.0,0.0,0.0,-2.0908,-2.1124,0.0,0.0,0.0,-2.1832,-2.3268,-2.6245,-2.8299,0.0,0.0,0.0,0.0,0.0,0.0,0.0,-3.9057,-4.0809,-4.2034,-4.2428,-4.3624,-4.4512,-4.463,-4.4575,-4.4303,-4.3542,0.0,-4.2235,-4.2193,-4.2027,-4.1859,-4.1668,-4.1856,-4.1995,-4.1982,-4.2258,-4.2527,-4.2552,-4.2816,-4.2974,-4.2986,-4.2986,-4.2986,-4.2986,-4.2986,-4.2986,-4.2986,-4.2986,-4.2986,-4.2986,-4.2986,-4.2986,-3.9388,-3.9269,-3.8078,-3.7569,-3.7569,-3.7569,-3.7089,-3.6273,-3.6287,-3.5971,-3.5492,-3.5877,-3.5675,-3.5049,-3.4777,0.0,0.0,-3.5186,-3.4893,-3.3993,-3.4481,-3.4163,-3.3111,-3.3124,-3.3124,-3.3124,-3.3124,-3.3628,-3.4665,-3.4913,-3.5512,-3.6525,-3.5103,-3.4031,-3.3471,-3.3097,-3.293,-3.2987,-3.2661,-3.2069,-3.1106,-3.0241,-2.9779,-2.9779,-2.9754,-2.9716,-2.9729,-2.9716,-2.9729,-2.9704,-2.9112,-2.7701,-2.5292,0.0,0.0,0.0,0.0,0.0,0.0,0.0,0.0,0.0,0.0,0.0,0.0,0.0,0.0,0.0,-2.3767,0.0,-2.8459,-2.9692,0.0,0.0,0.0,-3.4148,-3.573,-3.6353,-3.7762,-4.0646,0.0,0.0,-4.2907,0.0,-4.3839,-4.3115,-4.3911,-4.4116,-4.2653,-4.1963,-4.1692,-4.2391,-4.2334,-4.2263,-4.2288,-4.2585,-4.2873,-4.2873,-4.2986,-4.2949,-4.2949,-4.2961,-4.2986,-4.2986,-4.2986,-4.2986,-4.2986,-4.2986,-4.2986,-4.2986,-4.2986,-4.2986,-4.2986,-4.2986,-4.2986,-3.9388,-3.9358,-3.908,-3.8931,-3.891,-3.8945,-3.8788,-3.8593,-3.8578,-3.8225,-3.7594,-3.7026,-3.6011,-3.4741,-3.5361,-3.5934,-3.6373,-3.5709,-3.5477,-3.5582,-3.4981,-3.415,-3.3124,-3.3124,-3.3124,-3.3124,-3.3124,-3.3641,-3.465,-3.4723,-3.53,-3.6217,-3.5747,-3.5296,-3.4889,-3.4177,-3.3245,-3.2121,-3.1861,-3.1257,-3.0177,-2.9895,-2.9779,-2.9779,-2.9365,-2.9088,-2.9139,-2.9126,-2.9101,-2.9101,-2.9389,-2.8327,-2.5677,-2.4682,0.0,0.0,0.0,0.0,0.0,0.0,0.0,0.0,0.0,-2.2393,-2.2875,0.0,-2.3919,0.0,-2.5563,-2.709,-2.8191,-3.0189,0.0,0.0,-3.2998,-3.4439,-3.6412,-3.7512,-3.8957,-4.1233,-4.2246,-4.2801,-4.2995,-4.3189,-4.3227,-4.302,-4.3509,-4.3661,-4.3245,-4.2835,-4.2652,-4.2801,-4.2808,-4.2841,-4.2773,-4.2873,-4.2986,-4.2986,-4.2986,-4.2986,-4.2986,-4.2986,-4.2986,-4.2986,-4.2986,-4.2986,-4.2986,-4.2986,-4.2986,-4.2986,-4.2986,-4.2986,-4.2986,-4.2986,-4.2986,-3.9388,-3.9388,-3.9388,-3.9388,-3.9388,-3.9388,-3.9388,-3.9388,-3.9388,-3.9164,-3.8805,-3.8273,-3.758,-3.6792,-3.7281,-3.7703,-3.7967,-3.6958,-3.6375,-3.6158,-3.517,-3.4121,-3.3124,-3.3124,-3.3124,-3.3124,-3.3124,-3.3398,-3.3995,-3.447,-3.4982,-3.5521,-3.5609,-3.5278,-3.459,-3.3872,-3.2875,-3.1663,-3.1046,-3.0444,-2.983,-2.9779,-2.9779,-2.9779,-2.949,-2.9315,-2.9315,-2.9315,-2.9315,-2.9315,-2.9423,-2.8453,-2.6197,-2.5079,-2.3373,0.0,0.0,0.0,0.0,0.0,0.0,0.0,0.0,0.0,0.0,0.0,-2.5204,0.0,-2.713,-2.8289,-2.8971,-3.0826,-3.196,-3.1909,-3.297,-3.436,-3.5967,-3.746,-3.9148,-4.1015,-4.2258,-4.2986,-4.2986,-4.2986,-4.2986,-4.2986,-4.3166,-4.3333,-4.3252,-4.3085,-4.2986,-4.2986,-4.2986,-4.2986,-4.2986,-4.2986,-4.2986,-4.2986,-4.2986,-4.2986,-4.2986,-4.2986,-4.2986,-4.2986,-4.2986,-4.2986,-4.2986,-4.2986,-4.2986,-4.2986,-4.2986,-4.2986,-4.2986,-4.2986,-4.2986,-3.9388,-3.9388,-3.9388,-3.9388,-3.9388,-3.9388,-3.9388,-3.9388,-3.9388,-3.9388,-3.9388,-3.9388,-3.9388,-3.9388,-3.9388,-3.9388,-3.9352,-3.8144,-3.7098,-3.6158,-3.5007,-3.3995,-3.3124,-3.3124,-3.3124,-3.3124,-3.3124,-3.3124,-3.3124,-3.4024,-3.4553,-3.465,-3.494,-3.4555,-3.3519,-3.2932,-3.2193,-3.1294,-3.0292,-2.9779,-2.9779,-2.9779,-2.9779,-2.9779,-2.9716,-2.9691,-2.9691,-2.9679,-2.9691,-2.964,-2.9363,-2.8394,-2.6628,-2.5451,-2.402,0.0,-2.1362,0.0,0.0,0.0,0.0,0.0,0.0,0.0,0.0,-2.5713,-2.6446,-2.7526,-2.8407,-2.9242,-3.011,-3.139,-3.2112,-3.1862,-3.2885,-3.4055,-3.5179,-3.7003,-3.8817,-4.0419,-4.2024,-4.2986,-4.2986,-4.2986,-4.2986,-4.2986,-4.3042,-4.2992,-4.2929,-4.2979,-4.2986,-4.2986,-4.2986,-4.2986,-4.2986,-4.2986,-4.2986,-4.2986,-4.2986,-4.2986,-4.2986,-4.2986,-4.2986,-4.2986,-4.2986,-4.2986,-4.2986,-4.2986,-4.2986,-4.2986,-4.2986,-4.2986,-4.2986,-4.2986,-4.2986,-3.9388,-3.9388,-3.9388,-3.9388,-3.9388,-3.9388,-3.9388,-3.9388,-3.9388,-3.9388,-3.9388,-3.9388,-3.9388,-3.9388,-3.9388,-3.9388,-3.9301,-3.7367,-3.6408,-3.6132,-3.4262,-3.3326,-3.3124,-3.3124,-3.3124,-3.3124,-3.3124,-3.3124,-3.3124,-3.3326,-3.3683,-3.4189,-3.4059,-3.3651,-3.2883,0.0,0.0,0.0,-2.9972,-2.9779,-2.9779,-2.9779,-2.9779,-2.9779,-2.9327,0.0,-2.9051,-2.9051,-2.9013,-2.8874,-2.9421,0.0,0.0,0.0,0.0,0.0,0.0,0.0,0.0,0.0,0.0,0.0,-2.5323,-2.5439,-2.5586,-2.6963,-2.8018,-2.8579,-2.9391,-2.9976,-3.0187,-3.1436,-3.2155,-3.2144,-3.2929,-3.4013,-3.5496,-3.7199,-3.8817,-4.0419,-4.2024,-4.2986,-4.2986,-4.2986,-4.2974,-4.2949,-4.2974,-4.2798,-4.2414,-4.2753,-4.2974,-4.2986,-4.2936,-4.2961,-4.2986,-4.2974,-4.2986,-4.2986,-4.2986,-4.2986,-4.2986,-4.2986,-4.2986,-4.2986,-4.2986,-4.2986,-4.2986,-4.2986,-4.2986,-4.2986,-4.2986,-4.2986,-4.2986,-4.2986,-4.2986,-3.9388,0.0,-3.9388,-3.9388,0.0,-3.9388,-3.9388,-3.9388,-3.9388,-3.9388,-3.9388,-3.9388,-3.9388,-3.9388,-3.9388,-3.9388,-3.9316,-3.7738,-3.6696,-3.6132,-3.4609,-3.3586,-3.3124,-3.3124,-3.3124,-3.3111,-3.2792,-3.2654,-3.2641,-3.2378,-3.2588,-3.3148,-3.2771,-3.2393,-3.2047,-3.135,-3.0646,-2.9946,-2.983,-2.9779,-2.9779,-2.9779,-2.9779,-2.9779,0.0,0.0,0.0,0.0,0.0,0.0,0.0,0.0,0.0,0.0,0.0,-2.451,-2.3977,-2.3965,-2.4385,-2.446,-2.4893,-2.5977,-2.6445,-2.6689,-2.6689,-2.8066,-2.9004,-2.9228,-3.0029,-3.0537,-3.0566,-3.1338,-3.1934,-3.2158,-3.2734,-3.3841,-3.558,-3.7254,-3.8817,-4.0419,-4.2024,-4.2986,-4.2986,-4.2723,-4.2627,-4.2602,-4.2321,-4.2082,-4.1894,-4.2472,-4.2898,-4.2678,-4.2627,-4.2627,-4.2652,-4.2836,-4.2974,-4.2986,-4.2986,-4.2986,-4.2986,-4.2986,-4.2986,-4.2986,-4.2986,-4.2986,-4.2986,-4.2986,-4.2986,-4.2986,-4.2986,-4.2986,-4.2986,-4.2986,-4.2986,-3.9388,-3.9388,-3.9388,-3.9388,-3.9388,-3.9388,-3.9388,-3.9388,0.0,0.0,0.0,-3.9388,-3.9388,-3.9388,-3.9388,-3.9388,-3.9316,-3.8107,-3.706,-3.6158,-3.4966,-3.3953,-3.3124,-3.3124,-3.3124,-3.3086,-3.2491,-3.2202,-3.219,-3.1662,-3.1625,-3.2001,-3.17,-3.1486,-3.1336,-3.0331,-2.9779,-2.9779,-2.9779,-2.9779,-2.9779,-2.9779,-2.9842,-2.993,-2.9942,-3.0193,-3.0693,-3.0758,-3.0919,-3.1279,-2.9875,-2.8899,-2.8532,-2.6785,-2.565,-2.5215,-2.4834,-2.4814,-2.5156,-2.5185,-2.5566,-2.6435,-2.7337,-2.7803,-2.7871,-2.8926,-2.9655,-2.9734,-3.042,-3.0889,-3.0898,-3.126,-3.166,-3.2031,-3.2432,-3.3472,-3.5329,-3.7101,-3.8623,-4.017,-4.1778,-4.2773,-4.2647,-4.2283,-4.2062,-4.1957,-4.1681,-4.1275,-4.1388,-4.207,-4.2434,-4.2095,-4.2007,-4.2087,-4.225,-4.2552,-4.2836,-4.2961,-4.2986,-4.2986,-4.2986,-4.2986,-4.2986,-4.2986,-4.2986,-4.2986,-4.2986,-4.2986,-4.2986,-4.2986,-4.2986,-4.2986,-4.2986,-4.2986,-4.2986,-3.9388,-3.9388,-3.9388,-3.9388,-3.9388,-3.9388,-3.9388,-3.9388,-3.9388,-3.9388,-3.9388,-3.9388,-3.9388,-3.9388,-3.9388,-3.9388,-3.9265,-3.7315,-3.6316,0.0,-3.4207,-3.324,-3.3124,-3.3124,-3.3124,-3.3086,-3.2491,-3.2202,-3.2152,-3.165,-3.1436,-3.1549,-3.1901,-3.1851,-3.1336,-3.0319,-2.9779,-2.9779,-2.9779,-2.9779,-2.9779,-2.9779,-3.003,-3.0482,-3.0495,-3.0746,-3.126,-3.1273,-3.1229,-3.1124,-3.0129,-2.9209,-2.8366,-2.7444,-2.6547,-2.5701,-2.5547,-2.5528,-2.5586,-2.5606,-2.6016,-2.6865,-2.7725,-2.8359,-2.8721,-2.9248,-2.9717,-3.0078,-3.0576,-3.0898,-3.0918,-3.126,-3.1533,-3.1631,-3.2002,-3.2914,-3.4575,-3.6483,-3.8089,-3.9255,-4.1041,-4.2082,-4.1731,-4.153,-4.1455,-4.1388,-4.1225,-4.1225,-4.12,-4.1401,-4.153,-4.148,-4.1455,-4.1656,-4.1986,-4.225,-4.2527,-4.2967,-4.2961,-4.2986,-4.2986,-4.2986,-4.2986,-4.2986,-4.2986,-4.2986,-4.2986,-4.2986,-4.2949,-4.2936,-4.2911,-4.2924,-4.2924,-4.2949,-4.2974,-3.9388,-3.9388,-3.9388,-3.9388,-3.9388,-3.9388,-3.9388,-3.9388,-3.9388,-3.9388,-3.9388,-3.9388,-3.9388,-3.9388,-3.9388,-3.9388,-3.9352,-3.8383,-3.7315,-3.6158,-3.5238,-3.4178,-3.3167,-3.3124,-3.3124,-3.3074,-3.2177,-3.1763,-3.17,-3.0934,-3.067,-3.0959,-3.1223,-3.106,-3.052,-3.0043,-2.9779,-2.9779,-2.9779,-2.9779,-2.9779,-2.9779,-3.0043,-3.0595,-3.062,-3.1009,-3.1813,-3.1838,-3.1947,-3.2189,-3.1108,-3.0026,-2.8946,-2.7953,-2.6928,-2.5781,-2.5684,-2.5684,-2.5684,-2.6122,-2.6592,-2.7002,-2.7803,-2.8359,-2.8555,-2.9189,-2.9648,-2.9863,-3.0478,-3.0898,-3.0898,-3.1064,-3.1269,-3.1494,-3.1709,-3.2873,-3.522,-3.6404,-3.7919,-3.9837,-4.1084,-4.1605,-4.1326,-4.1025,-4.0849,-4.0811,-4.0689,-4.0463,-4.0475,-4.0463,-4.0563,-4.0774,-4.0849,-4.0978,-4.1254,-4.1861,-4.2263,-4.2564,-4.2841,-4.2949,-4.2986,-4.2974,-4.2961,-4.2986,-4.2974,-4.2986,-4.2974,-4.2986,-4.2861,-4.2615,-4.259,-4.259,-4.2615,-4.2803,-4.2974,-3.9388,-3.9388,-3.9388,-3.9388,-3.9388,-3.9388,-3.9388,-3.9388,-3.9388,-3.9388,-3.9388,-3.9388,-3.9388,-3.9388,-3.9388,-3.9388,-3.9373,-3.9141,-3.8017,-3.6277,-3.5974,-3.4884,-3.3227,-3.3124,-3.3061,-3.2817,-3.1976,-3.1449,-3.1135,-3.0369,-3.0193,-3.0557,-3.0495,-3.0281,-2.998,-2.9854,-2.9779,-2.9792,-2.9917,-2.998,-2.998,-2.998,-3.0294,-3.0922,-3.0984,-3.1436,-3.2328,-3.2403,-3.2604,-3.2988,-3.1645,-3.0361,-2.9407,-2.7992,-2.6706,-2.582,-2.5684,-2.5684,-2.5732,-2.6533,-2.7012,-2.7031,-2.7803,-2.8301,-2.835,-2.8975,-2.9473,-2.9685,-3.0273,-3.0762,-3.0869,-3.0898,-3.1025,-3.1338,-3.1377,-3.2723,-3.5716,-3.6453,-3.7673,-4.0323,-4.1012,-4.1062,-4.094,-4.0601,-4.035,-4.0275,-3.9948,-3.9722,-3.9697,-3.9697,-3.9885,-4.0162,-4.0325,-4.0425,-4.0513,-4.1166,-4.1731,-4.1974,-4.2376,-4.2552,-4.259,-4.2547,-4.266,-4.2647,-4.2635,-4.261,-4.2766,-4.2635,-4.2409,-4.2057,-4.1982,-4.1969,-4.1982,-4.2451,-4.2823,-3.9388,-3.9388,-3.9388,-3.9388,-3.9388,-3.9388,-3.9388,-3.9388,-3.9388,-3.9388,-3.9388,-3.9388,-3.9388,-3.9388,-3.9388,-3.9388,-3.9337,-3.8383,-3.7381,-3.6237,-3.5251,-3.4233,-3.3197,-3.3124,-3.2792,-3.2378,-3.2177,-3.165,-3.0846,-3.0608,-3.057,-3.0518,-3.0118,-3.0131,-3.0432,-3.0055,-2.9804,-2.9804,-3.0294,-3.0545,-3.0545,-3.0545,-3.0982,-3.2026,-3.2051,-3.2353,-3.2973,-3.3036,-3.3018,-3.2927,-3.0866,-2.9544,-2.9177,-2.722,-2.5878,-2.5742,-2.5684,-2.5684,-2.5742,-2.6523,-2.7012,-2.707,-2.7803,-2.8301,-2.831,-2.8711,-2.915,-2.9521,-2.999,-3.0459,-3.082,-3.0879,-3.0976,-3.12,-3.1162,-3.2126,-3.4968,-3.5882,-3.7104,-3.9561,-4.0337,-4.0413,-4.0049,-3.9898,-3.9823,-3.986,-3.9772,-3.9697,-3.9697,-3.9697,-3.9697,-3.9785,-3.9785,-4.0011,-4.0362,-4.0563,-4.0965,-4.1342,-4.1742,-4.1893,-4.1706,-4.1418,-4.1276,-4.2108,-4.1894,-4.1806,-4.1969,-4.1882,-4.1501,-4.1426,-4.1363,-4.1309,-4.1413,-4.1735,-4.2198,-3.9388,-3.9388,-3.9388,-3.9388,-3.9388,-3.9388,-3.9388,-3.9388,-3.9388,-3.9388,-3.9388,-3.9388,-3.9388,-3.9388,-3.9388,-3.9388,-3.9352,-3.8929,-3.8144,-3.7098,-3.6067,-3.5034,-3.4066,-3.3368,-3.2943,-3.2704,-3.239,-3.1989,-3.1537,-3.0934,-3.062,-3.0557,-3.0068,-3.0218,-3.0959,-3.0545,-3.0419,-3.0733,-3.0959,-3.1223,-3.1446,-3.1235,-3.1436,-3.2114,-3.2202,-3.2478,-3.3048,-3.3124,-3.3124,-3.2982,-3.1412,-3.0135,-2.9407,-2.7757,-2.6476,-2.5781,-2.5684,-2.5684,-2.5693,-2.6483,-2.7012,-2.7012,-2.7803,-2.8291,-2.8301,-2.8457,-2.8721,-2.918,-2.9785,-3.0283,-3.0478,-3.0723,-3.1218,-3.1988,-3.2197,-3.336,-3.6217,-3.6781,-3.7691,-3.9399,-3.9885,-3.9973,-3.976,-3.9697,-3.9697,-3.9697,-3.9697,-3.9697,-3.9697,-3.9697,-3.9697,-3.9697,-3.9697,-3.9772,-4.0036,-4.0337,-4.0576,-4.084,-4.1245,-4.1446,-4.1304,-4.1184,-4.1272,-4.163,-4.1404,-4.1329,-4.1618,-4.1517,-4.1225,-4.0934,-3.9988,-3.9761,-4.0627,-4.0594,-4.0862,-3.9388,-3.9388,-3.9388,-3.9388,-3.9388,-3.9388,-3.9388,-3.9388,-3.9388,-3.9388,-3.9388,-3.9388,-3.9388,-3.9388,-3.9388,-3.9388,-3.9388,-3.9388,-3.8657,-3.7381,-3.6565,-3.5494,-3.4275,-3.3513,-3.2993,-3.283,-3.2591,-3.2378,-3.2139,-3.1298,-3.0834,-3.0758,-3.0419,-3.062,-3.1273,-3.0997,-3.1009,-3.1361,-3.1524,-3.1813,-3.2114,-3.1976,-3.2039,-3.2403,-3.2441,-3.2654,-3.3099,-3.3124,-3.2927,-3.2568,-3.1368,-3.0169,-2.8947,-2.7767,-2.6668,-2.583,-2.5684,-2.5684,-2.5693,-2.6435,-2.6846,-2.6914,-2.7637,-2.8125,-2.8144,-2.8223,-2.8418,-2.874,-2.9414,-2.9883,-3.0225,-3.0498,-3.1387,-3.283,-3.3145,-3.4281,-3.6984,-3.7518,-3.8031,-3.9413,-3.9722,-3.9697,-3.9697,-3.9697,-3.9697,-3.9697,-3.9697,-3.9697,-3.9697,-3.9697,-3.9697,-3.9697,-3.9697,-3.9697,-3.9722,-3.9973,-4.0262,-4.0362,-4.0626,-4.0789,-4.0824,-4.0811,-4.0974,-4.0978,-4.0965,-4.0978,-4.1028,-4.1015,-4.068,-4.024,-3.9406,-3.8902,-4.0065,-3.9729,-3.9925,-3.9388,-3.9388,-3.9388,-3.9388,-3.9388,-3.9388,-3.9388,-3.9388,-3.9388,-3.9388,-3.9388,-3.9388,-3.9388,-3.9388,-3.9388,-3.9388,-3.9388,-3.9388,-3.842,-3.6682,-3.6277,-3.5116,-3.324,-3.3111,-3.2792,-3.2403,-3.278,-3.2692,-3.2164,-3.1599,-3.1348,-3.1323,-3.121,-3.1311,-3.1474,-3.1411,-3.1373,-3.1549,-3.1951,-3.2202,-3.229,-3.2717,-3.2986,-3.3036,-3.3031,-3.3074,-3.3124,-3.3124,-3.2568,-3.1356,-3.0226,-2.8993,-2.7767,-2.6514,-2.583,-2.5684,-2.5684,-2.5684,-2.5732,-2.6191,-2.6445,-2.6543,-2.7256,-2.7767,-2.7826,-2.8086,-2.831,-2.834,-2.8769,-2.9307,-2.9998,-3.0354,-3.1274,-3.3085,-3.3261,-3.4626,-3.7252,-3.7743,-3.819,-3.9362,-3.9697,-3.9697,-3.9697,-3.9697,-3.9697,-3.9697,-3.9697,-3.9697,-3.9697,-3.9697,-3.9697,-3.9697,-3.9697,-3.9697,-3.9697,-3.9798,-3.981,-3.9885,-3.9998,-3.9898,-3.9798,-3.9823,-4.0136,-4.0287,-4.0174,-4.0187,-4.035,-4.0157,-3.9698,-3.933,-3.9133,-3.9081,-3.8762,-3.9857,-3.9729,-3.9388,-3.9388,-3.9388,-3.9388,-3.9388,-3.9388,-3.9388,-3.9388,-3.9388,-3.9388,-3.9388,-3.9388,-3.9388,-3.9388,-3.9388,-3.9388,-3.9388,-3.9388,-3.898,-3.8092,-3.6838,-3.5814,-3.5034,-3.3784,-3.2767,-3.2365,-3.2792,-3.2591,-3.1712,-3.1148,-3.1072,-3.1273,-3.106,-3.1386,-3.2202,-3.2089,-3.2089,-3.2441,-3.2679,-3.2767,-3.2754,-3.2968,-3.3124,-3.3124,-3.3124,-3.3124,-3.3124,-3.3124,-3.2513,-3.1267,-3.0045,-2.8855,-2.7626,-2.638,-2.5684,-2.5684,-2.5684,-2.5684,-2.5732,-2.6143,-2.6387,-2.6445,-2.7178,-2.7699,-2.7796,-2.8037,-2.8301,-2.833,-2.8398,-2.8829,-2.955,-3.0439,-3.2277,-3.4791,-3.5401,-3.6193,-3.821,-3.8908,-3.9141,-3.9581,-3.9697,-3.9697,-3.9697,-3.9697,-3.9697,-3.9697,-3.9697,-3.9697,-3.9697,-3.9697,-3.9697,-3.9697,-3.9697,-3.9697,-3.9697,-3.9697,-3.971,-3.971,-3.9735,-3.976,-3.971,-3.971,-3.9961,-3.9946,-3.9708,-3.9099,-3.9095,-3.8558,-3.8149,-3.7435,-3.7317,-3.7542,-3.6876,-3.7481,-3.723,-3.9388,-3.9388,-3.9388,-3.9388,-3.9388,-3.9388,-3.9388,-3.9388,-3.9388,-3.9388,-3.9388,-3.9388,-3.9388,-3.9388,-3.9388,-3.9388,-3.9388,-3.9388,-3.9053,-3.8294,-3.6852,-3.5841,-3.5034,-3.3755,-3.2923,-3.2554,-3.2667,-3.2378,-3.1712,-3.1311,-3.1336,-3.1612,-3.1449,-3.1938,-3.2885,-3.2679,-3.2704,-3.3074,-3.3124,-3.3111,-3.3124,-3.3124,-3.3124,-3.3124,-3.3124,-3.3124,-3.3124,-3.3124,-3.2513,-3.1267,-3.0045,-2.868,-2.7125,-2.6159,-2.5684,-2.5684,-2.5684,-2.5684,-2.5713,-2.6016,-2.6182,-2.6201,-2.6816,-2.7346,-2.7451,-2.7842,-2.8105,-2.8295,-2.8751,-2.9081,-2.9369,-3.1074,-3.3447,-3.5664,-3.641,-3.742,-3.9153,-3.9533,-3.962,-3.9697,-3.9697,-3.9697,-3.9697,-3.9697,-3.9697,-3.9697,-3.9697,-3.9697,-3.9697,-3.9697,-3.9697,-3.9697,-3.9697,-3.9697,-3.9697,-3.9685,-3.9672,-3.9672,-3.9697,-3.9697,-3.9672,-3.9685,-3.9647,-3.9608,-3.9065,-3.8243,-3.753,-3.6984,-3.6217,-3.5398,-3.5672,-3.6162,-3.5508,-3.4836,-3.5166,-3.9388,-3.9388,-3.9388,-3.9388,-3.9388,-3.9388,-3.9388,-3.9388,-3.9388,-3.9388,-3.9388,-3.9388,-3.9388,-3.9388,-3.9388,-3.9388,-3.9388,-3.9265,-3.8287,-3.6637,-3.6302,-3.5157,-3.3479,-3.3258,-3.3111,-3.2943,-3.2428,-3.219,-3.2139,-3.1964,-3.1964,-3.224,-3.2579,-3.2822,-3.3124,-3.3061,-3.3074,-3.3124,-3.3124,-3.3124,-3.3124,-3.3124,-3.3124,-3.3124,-3.3124,-3.3124,-3.3124,-3.3124,-3.2469,-3.1134,-2.9988,-2.8272,-2.6245,-2.5732,-2.5684,-2.5684,-2.5684,-2.5684,-2.5684,-2.5713,-2.5762,-2.582,-2.6201,-2.673,-2.7335,-2.773,-2.8134,-2.8618,-2.943,-2.9808,-2.9461,-3.1756,-3.4182,-3.4676,-3.5971,-3.7375,-3.8652,-3.9383,-3.9697,-3.9697,-3.9697,-3.9697,-3.9697,-3.9697,-3.9697,-3.9697,-3.9697,-3.9697,-3.9697,-3.9697,-3.9697,-3.9647,-3.9647,-3.9672,-3.9672,-3.9672,-3.9659,-3.9647,-3.9685,-3.9697,-3.9634,-3.9609,-3.9459,-3.9267,-3.7714,-3.6856,-3.5781,-3.5233,-3.5013,-3.4459,-3.4792,-3.4571,-3.3885,-3.3431,-3.4395,-3.9388,-3.9388,-3.9388,-3.9388,-3.9388,-3.9388,-3.9388,-3.9388,-3.9388,-3.9388,-3.9388,-3.9388,-3.9388,-3.9388,-3.9388,-3.9373,-3.9352,-3.8642,-3.7725,-3.6765,-3.6331,-3.521,-3.3738,-3.3238,-3.3124,-3.2885,-3.1725,-3.1524,-3.1951,-3.1486,-3.1449,-3.2114,-3.239,-3.2692,-3.3111,-3.3124,-3.3124,-3.3124,-3.3124,-3.3124,-3.3124,-3.3124,-3.3124,-3.3124,-3.3124,-3.3124,-3.3124,-3.3124,-3.2064,-3.0181,-2.959,-2.8262,-2.6235,-2.5684,-2.5684,-2.5684,-2.5684,-2.5684,-2.5684,-2.5684,-2.5684,-2.581,-2.6133,-2.7093,-2.8196,-2.8757,-2.9209,-2.962,-3.011,-3.0366,-3.1196,-3.2051,-3.3749,-3.5598,-3.6567,-3.7506,-3.863,-3.9308,-3.9647,-3.9697,-3.9697,-3.9697,-3.9685,-3.9659,-3.9597,-3.9686,-3.9686,-3.9622,-3.9647,-3.9572,-3.9496,-3.9245,-3.9396,-3.9433,-3.9233,-3.912,-3.9107,-3.917,-3.9283,-3.9333,-3.9346,-3.9295,-3.917,-3.8084,-3.655,-3.523,-3.4162,-3.358,-3.3282,-3.2991,-3.2763,-3.2388,-3.1922,-3.2222,-3.2959,-3.9388,-3.9388,-3.9388,-3.9388,-3.9388,-3.9388,-3.9388,-3.9388,-3.9388,-3.9388,-3.9388,-3.9388,-3.9388,-3.9328,-3.9155,-3.9035,-3.8883,-3.7711,-3.6616,-3.5838,-3.5496,-3.4433,-3.3045,-3.2603,-3.2453,-3.2252,-3.121,-3.0959,-3.1562,-3.1185,-3.1248,-3.1825,-3.2315,-3.2704,-3.3099,-3.3124,-3.3124,-3.3124,-3.3124,-3.3124,-3.3124,-3.3124,-3.3124,-3.3124,-3.3124,-3.3124,-3.3124,-3.3124,-3.2382,-3.0866,-2.9954,-2.8215,-2.6014,-2.5684,-2.5684,-2.5684,-2.5684,-2.5684,-2.5684,-2.5684,-2.5684,-2.5781,-2.6417,-2.7315,-2.8579,-2.9292,-3.0184,-3.1367,-3.1609,-3.1304,-3.0983,-3.2397,-3.3758,-3.5163,-3.6465,-3.7514,-3.8417,-3.8856,-3.9019,-3.8994,-3.9019,-3.9145,-3.9246,-3.9145,-3.931,-3.95,-3.9335,-3.9069,-3.9057,-3.9019,-3.8818,-3.8693,-3.8743,-3.8705,-3.8592,-3.8542,-3.8542,-3.863,-3.8743,-3.8768,-3.8781,-3.8605,-3.8429,-3.6355,-3.4642,-3.315,-3.2055,-3.1727,-3.1437,-3.113,-3.1037,-3.083,-3.0578,-3.033,-3.0964,-3.9388,-3.9388,-3.9388,-3.9388,-3.9388,-3.9388,-3.9388,-3.9388,-3.9298,-3.9254,-3.9305,-3.9119,-3.9149,-3.9095,-3.8556,-3.8297,-3.7981,-3.662,-3.5105,-3.3996,-3.3536,-3.281,-3.1769,-3.1644,-3.1599,-3.1449,-3.0909,-3.0708,-3.0947,-3.1097,-3.1361,-3.1537,-3.2315,-3.2918,-3.2885,-3.3011,-3.2968,-3.2986,-3.3074,-3.3124,-3.3124,-3.3124,-3.3124,-3.3124,-3.3124,-3.3124,-3.3124,-3.3124,-3.3025,-3.2612,-3.0361,-2.8121,-2.6342,-2.5781,-2.5684,-2.5732,-2.5732,-2.5781,-2.5781,-2.5965,-2.5868,-2.5791,-2.6805,-2.7873,-2.854,-2.9767,-3.1083,-3.2843,-3.2959,-3.1848,-3.0184,-3.1683,-3.3684,-3.4108,-3.5941,-3.7315,-3.7704,-3.7928,-3.8203,-3.814,-3.804,-3.8152,-3.859,-3.8328,-3.8652,-3.9003,-3.8703,-3.8316,-3.7979,-3.8041,-3.8003,-3.8065,-3.8153,-3.8128,-3.8078,-3.7977,-3.7965,-3.7965,-3.7953,-3.7755,-3.7554,-3.733,-3.6505,-3.4457,-3.3046,-3.141,-3.051,-3.0438,-3.03,-3.0198,-3.0017,-2.9646,-2.9528,-2.9375,-2.9534,-3.9388,-3.9388,-3.9388,-3.9388,-3.9388,-3.9388,-3.9373,-3.9298,-3.8856,-3.8661,-3.8586,-3.8138,-3.8003,-3.7928,-3.7778,-3.7317,-3.6495,-3.5384,-3.401,-3.2613,-3.1733,-3.1549,-3.1377,-3.1373,-3.1348,-3.126,-3.0809,-3.0821,-3.1135,-3.0934,-3.1035,-3.1386,-3.17,-3.1876,-3.1876,-3.2277,-3.2428,-3.2503,-3.2923,-3.3074,-3.3074,-3.3074,-3.3124,-3.3124,-3.3099,-3.3111,-3.3124,-3.3124,-3.2612,-3.1589,-2.9418,-2.7861,-2.7125,-2.6294,-2.583,-2.5917,-2.6572,-2.6668,-2.611,-2.662,-2.6668,-2.5927,-2.703,-2.8194,-2.9609,-3.08,-3.1937,-3.2712,-3.2178,-3.1397,-3.0685,-3.1576,-3.2828,-3.4277,-3.5685,-3.6627,-3.6308,-3.7184,-3.8002,-3.8002,-3.7903,-3.789,-3.8001,-3.7952,-3.7903,-3.8139,-3.7866,-3.732,-3.6677,-3.727,-3.7332,-3.7528,-3.7651,-3.7626,-3.7575,-3.7462,-3.7387,-3.7312,-3.7056,-3.6518,-3.5983,-3.527,-3.3879,-3.208,-3.1668,-3.0424,-3.0038,-2.9843,-2.9626,-2.9385,-2.9268,-2.9111,-2.8984,-2.8867,-2.8809,-3.9388,-3.9388,-3.9388,-3.9224,-3.902,-3.8975,-3.8841,-3.8527,-3.8182,-3.7973,-3.7883,-3.7599,-3.7404,-3.7389,-3.715,-3.6492,-3.5517,-3.4228,-3.2972,-3.1798,-3.0778,-3.0471,-3.0645,-3.0721,-3.0721,-3.0696,-3.0419,-3.0432,-3.0645,-3.062,-3.0809,-3.1047,-3.1286,-3.1373,-3.1449,-3.1675,-3.1863,-3.1926,-3.2215,-3.2407,-3.2378,-3.2365,-3.2365,-3.2428,-3.2566,-3.2792,-3.3018,-3.2612,-3.1733,-3.0586,-2.9533,-2.8912,-2.8319,-2.7163,-2.6524,-2.6524,-2.722,-2.722,-2.6945,-2.7626,-2.7992,-2.7531,-2.8038,-2.9033,-3.0308,-3.137,-3.1991,-3.3007,-3.2459,-3.2078,-3.1734,-3.169,-3.1937,-3.2564,-3.4167,-3.479,-3.402,-3.4816,-3.584,-3.6247,-3.6505,-3.6763,-3.7179,-3.6873,-3.6469,-3.61,-3.5557,-3.4845,-3.4281,-3.5608,-3.6567,-3.6542,-3.6819,-3.6866,-3.6816,-3.6728,-3.6013,-3.5951,-3.4686,-3.4404,-3.4334,-3.3419,-3.2162,-3.0874,-3.0293,-2.9822,-2.9426,-2.9092,-2.8955,-2.8799,-2.8721,-2.8662,-2.8555,-2.8389,-2.8329,-3.9328,-3.9305,-3.9305,-3.8916,-3.8347,-3.8272,-3.8018,-3.7509,-3.736,-3.7315,-3.7285,-3.724,-3.703,-3.718,-3.6567,-3.5843,-3.4833,-3.3458,-3.2109,-3.1086,-3.0279,-2.9917,-2.9955,-2.9993,-2.998,-2.9942,-2.9817,-2.9854,-3.003,-3.0331,-3.0482,-3.0595,-3.0947,-3.1148,-3.1072,-3.1235,-3.1311,-3.1348,-3.1499,-3.1587,-3.1599,-3.1599,-3.1612,-3.1662,-3.1938,-3.2222,-3.2271,-3.1756,-3.0716,-2.9727,-3.0541,-3.0135,-2.9269,-2.8262,-2.7861,-2.7908,-2.8085,-2.8179,-2.8002,-2.8855,-2.9453,-2.9223,-2.9177,-2.9943,-3.0824,-3.1273,-3.1809,-3.3015,-3.3431,-3.2426,-3.1749,-3.1308,-3.076,-3.0643,-3.1425,-3.1671,-3.1855,-3.2073,-3.2794,-3.392,-3.4201,-3.4824,-3.5223,-3.5005,-3.4056,-3.3948,-3.3527,-3.3265,-3.2974,-3.3711,-3.4572,-3.5028,-3.5465,-3.6051,-3.6036,-3.5974,-3.498,-3.4197,-3.2194,-3.1523,-3.2323,-3.1708,-3.0701,-2.9837,-2.9389,-2.8957,-2.8538,-2.832,-2.8291,-2.8213,-2.8135,-2.8164,-2.8174,-2.7969,-2.7845,-3.911,-3.8616,-3.8601,-3.8227,-3.7689,-3.7614,-3.7524,-3.733,-3.6866,-3.6671,-3.6582,-3.6163,-3.5983,-3.5953,-3.5816,-3.5145,-3.4218,-3.303,-3.1719,-3.0165,-2.9972,-2.9792,-2.9779,-2.9779,-2.9779,-2.9779,-2.9779,-2.9779,-2.9854,-2.993,-2.998,-3.003,-3.0181,-3.0156,-3.0231,-3.062,-3.0771,-3.0846,-3.1148,-3.1286,-3.1273,-3.1286,-3.1298,-3.1361,-3.1499,-3.1356,-3.1027,-3.0747,-3.0631,-3.0604,-3.0214,-2.9909,-2.9544,-2.9223,-2.8912,-2.8947,-2.9772,-2.9954,-2.9453,-3.0,-3.0406,-2.9772,-2.9681,-2.9909,-3.1033,-3.1223,-3.1359,-3.1624,-3.0941,-3.0537,-2.9888,-2.865,-2.8763,-2.917,-2.8858,-2.8442,-2.8635,-3.0568,-3.1995,-3.2564,-3.2714,-3.2871,-3.3147,-3.3151,-3.2424,-3.184,-3.1628,-3.1739,-3.1817,-3.1873,-3.2719,-3.3434,-3.433,-3.4867,-3.4579,-3.4269,-3.3156,-3.2262,-3.0446,-2.9216,-2.9998,-3.0157,-2.9229,-2.8783,-2.8621,-2.8198,-2.7832,-2.7803,-2.7822,-2.7695,-2.7598,-2.7656,-2.7656,-2.75,-2.7461,-3.8556,-3.7943,-3.7928,-3.7554,-3.703,-3.6956,-3.6806,-3.6507,-3.6178,-3.6028,-3.5968,-3.5624,-3.5504,-3.5489,-3.5457,-3.4953,-3.3842,-3.2522,-3.118,-3.0024,-2.9792,-2.9792,-2.9779,-2.9779,-2.9779,-2.9779,-2.9779,-2.9779,-2.9779,-2.9779,-2.9817,-2.9779,-2.9779,-2.9854,-2.9792,-3.0093,-3.0218,-3.0256,-3.0482,-3.0645,-3.0645,-3.0645,-3.0821,-3.0984,-3.1047,-3.0893,-3.0935,-3.0558,-3.0612,-3.0655,-3.0446,-3.0214,-3.0214,-3.0181,-2.9772,-2.8947,-3.0271,-3.0541,-3.0045,-3.0956,-3.1833,-3.1134,-3.0643,-3.1045,-3.15,-3.1601,-3.1589,-3.1633,-3.1092,-3.0022,-2.9288,-2.8244,-2.8237,-2.8435,-2.7774,-2.7053,-2.7335,-2.8706,-3.0112,-3.0514,-3.07,-3.1158,-3.1362,-3.129,-3.0891,-3.0331,-2.9488,-2.9522,-2.9427,-2.9748,-3.1086,-3.2028,-3.3075,-3.3506,-3.3138,-3.2413,-3.1102,-3.0187,-2.9034,-2.8178,-2.8259,-2.8155,-2.7754,-2.7734,-2.7865,-2.7689,-2.7383,-2.7373,-2.7363,-2.7314,-2.7256,-2.7226,-2.7207,-2.7168,-2.7158,-3.7868,-3.727,-3.727,-3.6911,-3.6387,-3.6342,-3.6058,-3.5594,-3.5489,-3.5579,-3.5504,-3.5489,-3.5489,-3.5489,-3.5489,-3.4872,-3.3533,-3.2128,-3.072,-2.9895,-2.9779,-2.9779,-2.9779,-2.9779,-2.9779,-2.9779,-2.9779,-2.9779,-2.9779,-2.9779,-2.9779,-2.9779,-2.9779,-2.9779,-2.9792,-2.9792,-2.9854,-2.9892,-2.993,-2.9942,-2.993,-2.9917,-3.0143,-3.0394,-3.0495,-3.0706,-3.0803,-3.0524,-3.0243,-3.0527,-3.0906,-3.1044,-3.1116,-3.13,-3.0777,-2.8773,-3.0732,-3.1146,-3.0911,-3.1877,-3.2939,-3.3025,-3.1865,-3.1821,-3.2426,-3.1965,-3.1721,-3.1633,-3.1169,-2.9782,-2.9498,-2.8193,-2.7868,-2.8045,-2.7362,-2.6918,-2.6826,-2.6826,-2.7633,-2.8509,-2.8934,-2.9276,-2.9654,-2.9718,-2.9271,-2.8817,-2.8006,-2.756,-2.7632,-2.8366,-3.0084,-3.1448,-3.2664,-3.2429,-3.1948,-3.0098,-2.8841,-2.8452,-2.7512,-2.7272,-2.693,-2.6839,-2.6865,-2.7129,-2.7158,-2.7041,-2.6973,-2.6934,-2.6924,-2.6924,-2.6816,-2.668,-2.6719,-2.6836,-2.6807,-3.721,-3.6641,-3.6641,-3.6267,-3.5714,-3.5669,-3.5624,-3.5519,-3.5489,-3.5489,-3.5489,-3.5489,-3.5489,-3.5489,-3.5489,-3.4509,-3.2842,-3.1504,-3.0553,-2.982,-2.9691,-2.9704,-2.9603,-2.9754,-2.9741,-2.9779,-2.9741,-2.9716,-2.9779,-2.9779,-2.9779,-2.9779,-2.9779,-2.9779,-2.9779,-2.9779,-2.9779,-2.9779,-2.9779,-2.9779,-2.9779,-2.9804,-2.9829,-3.0005,-3.003,-3.0269,-3.0368,-2.98,-2.9718,-3.0993,-3.0779,-3.0608,-3.0925,-3.1902,-3.2122,-3.1745,-3.2064,-3.2295,-3.2108,-3.2612,-3.3081,-3.284,-3.2052,-3.1909,-3.2469,-3.1965,-3.1356,-3.0676,-2.9544,-2.7914,-2.6567,-2.6512,-2.6298,-2.6212,-2.6281,-2.5996,-2.5986,-2.6094,-2.6368,-2.7252,-2.7412,-2.7451,-2.7893,-2.815,-2.7881,-2.783,-2.7652,-2.7432,-2.7602,-2.8663,-3.027,-3.151,-3.2606,-3.1786,-3.0819,-2.836,-2.6573,-2.6838,-2.6399,-2.6409,-2.6123,-2.5957,-2.6074,-2.6494,-2.6728,-2.6738,-2.666,-2.6533,-2.6494,-2.6484,-2.6299,-2.6054,-2.626,-2.6396,-2.6182,-3.6552,-3.5983,-3.5968,-3.5804,-3.5519,-3.5489,-3.5489,-3.5489,-3.5489,-3.5489,-3.5489,-3.5489,-3.5489,-3.54,-3.5085,-3.3787,-3.1937,-3.0735,-2.9813,-2.9126,-2.9189,-2.9151,-2.9126,-2.9465,-2.9327,-2.9151,-2.9113,-2.9465,-2.9754,-2.9779,-2.9741,-2.9779,-2.9779,-2.9779,-2.9779,-2.9779,-2.9779,-2.9779,-2.9779,-2.9779,-2.9779,-2.9779,-2.9779,-2.9779,-2.9792,-2.9942,-3.0013,-3.0096,-3.0109,-3.0779,-3.0927,-3.0898,-3.1245,-3.1759,-3.2204,-3.1692,-3.2413,-3.2742,-3.2469,-3.2599,-3.3124,-3.3038,-3.2469,-3.2469,-3.2612,-3.1952,-3.0721,-2.9407,-2.8727,-2.7078,-2.5985,-2.5732,-2.5684,-2.5684,-2.5684,-2.5684,-2.5684,-2.5684,-2.5976,-2.6327,-2.6408,-2.6478,-2.6418,-2.6567,-2.6497,-2.6665,-2.7061,-2.7318,-2.7584,-2.8549,-2.9851,-3.0267,-3.0948,-3.0285,-2.9288,-2.7517,-2.5732,-2.5684,-2.5684,-2.5684,-2.5684,-2.5713,-2.5801,-2.6054,-2.625,-2.6377,-2.623,-2.6064,-2.6064,-2.6074,-2.5937,-2.5869,-2.5937,-2.5898,-2.5742,-3.5968,-3.5489,-3.5489,-3.5489,-3.5489,-3.5489,-3.5489,-3.5474,-3.5325,-3.525,-3.528,-3.513,-3.504,-3.4872,-3.4137,-3.2807,-3.0778,-2.9944,-2.9074,-2.8469,-2.8574,-2.8511,-2.8511,-2.8775,-2.8988,-2.8424,-2.8499,-2.8875,-2.9214,-2.9302,-2.9465,-2.9515,-2.9591,-2.9704,-2.9754,-2.9779,-2.9779,-2.9779,-2.9779,-2.9779,-2.9779,-2.9779,-2.9779,-2.9779,-2.9779,-2.9804,-2.9892,-3.005,-3.0198,-3.0543,-3.0816,-3.1182,-3.1323,-3.175,-3.1315,-3.0446,-3.1962,-3.2215,-3.2227,-3.2469,-3.3124,-3.3081,-3.3124,-3.2982,-3.2339,-3.1267,-2.9954,-2.8132,-2.7542,-2.7078,-2.5965,-2.5684,-2.5684,-2.5684,-2.5684,-2.5684,-2.5684,-2.5684,-2.5684,-2.581,-2.5684,-2.5742,-2.5879,-2.5937,-2.6045,-2.6506,-2.6848,-2.7235,-2.7476,-2.766,-2.8505,-2.8614,-2.8733,-2.8383,-2.7704,-2.7088,-2.5868,-2.5684,-2.5684,-2.5684,-2.5684,-2.5684,-2.5781,-2.5849,-2.583,-2.5908,-2.5732,-2.5684,-2.5781,-2.582,-2.5723,-2.5713,-2.5771,-2.5781,-2.5713,-3.5564,-3.5489,-3.5474,-3.5489,-3.5444,-3.5415,-3.5459,-3.537,-3.4816,-3.4638,-3.4593,-3.4053,-3.3844,-3.3507,-3.2803,-3.1762,-3.0675,-2.9558,-2.8634,-2.7981,-2.8109,-2.8122,-2.8059,-2.8172,-2.8248,-2.7897,-2.8023,-2.8197,-2.8348,-2.8373,-2.8637,-2.895,-2.9076,-2.9227,-2.9528,-2.9616,-2.9779,-2.9767,-2.9767,-2.9779,-2.9779,-2.9779,-2.9779,-2.9779,-2.9779,-2.9779,-2.9779,-2.9942,-2.9967,-3.0018,-3.0432,-3.0683,-3.0783,-3.1185,-3.1395,-3.1547,-3.2264,-3.3025,-3.2766,-3.2914,-3.3124,-3.3124,-3.3124,-3.2525,-3.15,-3.0316,-2.8993,-2.7861,-2.7494,-2.6993,-2.5965,-2.5732,-2.5684,-2.5684,-2.5684,-2.5684,-2.5684,-2.5684,-2.5684,-2.5684,-2.5684,-2.5684,-2.5742,-2.5713,-2.5752,-2.6247,-2.6681,-2.7044,-2.7204,-2.7268,-2.7437,-2.761,-2.7584,-2.7183,-2.6945,-2.6197,-2.5965,-2.5684,-2.5684,-2.5684,-2.5684,-2.5684,-2.5684,-2.5723,-2.5684,-2.5684,-2.5684,-2.5684,-2.5684,-2.5684,-2.5684,-2.5684,-2.5693,-2.5684,-2.5684,-3.4352,-3.4367,-3.4382,-3.4367,-3.4367,-3.4367,-3.4352,-3.4307,-3.4053,-3.3918,-3.3873,-3.3649,-3.3061,-3.2258,-3.1308,-3.0211,-2.91,-2.8255,-2.7599,-2.7425,-2.7457,-2.7469,-2.7356,-2.7549,-2.7663,-2.7308,-2.7176,-2.7139,-2.7322,-2.7821,-2.8273,-2.8398,-2.8473,-2.8536,-2.8976,-2.9176,-2.9264,-2.9377,-2.9578,-2.9767,-2.9779,-2.9779,-2.9779,-2.9779,-2.9779,-2.9779,-2.9779,-2.9779,-2.9779,-2.9829,-3.008,-3.0143,-3.0269,-3.062,-3.0959,-3.1009,-3.165,-3.2215,-3.2499,-3.2855,-3.3036,-3.3068,-3.2939,-3.2239,-3.0541,-2.9085,-2.7851,-2.661,-2.6524,-2.6207,-2.5868,-2.5732,-2.5684,-2.5684,-2.5684,-2.5684,-2.5684,-2.5684,-2.5684,-2.5684,-2.5684,-2.5684,-2.5684,-2.5684,-2.5684,-2.5936,-2.614,-2.6265,-2.64,-2.6342,-2.6514,-2.6754,-2.662,-2.639,-2.6245,-2.5878,-2.5868,-2.5684,-2.5684,-2.5684,-2.5684,-2.5684,-2.5684,-2.5684,-2.5684,-2.5684,-2.5684,-2.5684,-2.5684,-2.5684,-2.5684,-2.5684,-2.5684,-2.5684,-2.5684,-3.3006,-3.3036,-3.335,-3.3499,-3.3499,-3.3499,-3.3529,-3.3499,-3.332,-3.3245,-3.32,-3.3005,-3.2286,-3.1339,-3.0526,-2.9568,-2.8151,-2.7175,-2.6726,-2.6719,-2.6813,-2.6864,-2.6854,-2.7074,-2.7037,-2.6487,-2.6652,-2.6639,-2.6832,-2.7228,-2.7657,-2.7883,-2.7908,-2.8034,-2.8222,-2.8524,-2.875,-2.9001,-2.9302,-2.9591,-2.9754,-2.9779,-2.9779,-2.9779,-2.9779,-2.9779,-2.9779,-2.9779,-2.9779,-2.9792,-2.9817,-2.9867,-2.993,-3.0193,-3.0394,-3.0428,-3.0717,-3.0803,-3.1335,-3.19,-3.2599,-3.2727,-3.2227,-3.1146,-2.9772,-2.8132,-2.6897,-2.5917,-2.5868,-2.583,-2.5684,-2.5684,-2.5684,-2.5684,-2.5684,-2.5684,-2.5684,-2.5684,-2.5684,-2.5684,-2.5684,-2.5684,-2.5684,-2.5684,-2.5684,-2.5684,-2.5684,-2.5684,-2.5732,-2.5781,-2.5965,-2.6245,-2.6149,-2.6014,-2.5917,-2.5781,-2.5732,-2.5684,-2.5684,-2.5684,-2.5684,-2.5684,-2.5684,-2.5684,-2.5684,-2.5684,-2.5684,-2.5684,-2.5684,-2.5684,-2.5684,-2.5684,-2.5684,-2.5684,-2.5684,-3.163,-3.175,-3.2961,-3.344,-3.3425,-3.3499,-3.3455,-3.3275,-3.2796,-3.2587,-3.2512,-3.2004,-3.1706,-3.1264,-3.0533,-2.9679,-2.878,-2.7986,-2.7196,-2.6692,-2.6524,-2.6562,-2.6565,-2.6603,-2.6628,-2.6512,-2.6483,-2.6493,-2.6524,-2.6663,-2.7052,-2.7268,-2.7331,-2.7657,-2.7883,-2.8047,-2.8386,-2.865,-2.8925,-2.9277,-2.9566,-2.9716,-2.9741,-2.9779,-2.9779,-2.9779,-2.9779,-2.9779,-2.9779,-2.9779,-2.9779,-2.9779,-2.9817,-2.9905,-2.9993,-2.9975,-2.9511,-2.9479,-2.9762,-3.058,-3.1552,-3.1552,-3.0822,-2.9704,-2.9039,-2.7067,-2.5917,-2.5732,-2.5684,-2.5684,-2.5684,-2.5684,-2.5684,-2.5684,-2.5684,-2.5684,-2.5684,-2.5684,-2.5684,-2.5684,-2.5684,-2.5684,-2.5684,-2.5684,-2.5684,-2.5684,-2.5684,-2.5684,-2.5684,-2.5732,-2.5732,-2.582,-2.582,-2.5781,-2.5732,-2.5684,-2.5684,-2.5684,-2.5684,-2.5684,-2.5684,-2.5684,-2.5674,-2.5684,-2.5684,-2.5684,-2.5684,-2.5684,-2.5684,-2.5684,-2.5684,-2.5684,-2.5684,-2.5684,-2.5684,-3.1496,-3.1555,-3.2064,-3.2258,-3.2273,-3.2258,-3.2258,-3.2228,-3.1989,-3.1884,-3.1884,-3.1601,-3.1219,-3.0807,-3.0464,-2.9504,-2.8298,-2.7887,-2.7183,-2.6714,-2.6487,-2.6487,-2.6487,-2.6487,-2.6499,-2.6487,-2.6487,-2.6487,-2.6487,-2.6487,-2.6562,-2.6776,-2.6864,-2.6889,-2.714,-2.7494,-2.7921,-2.8273,-2.8473,-2.8712,-2.9101,-2.9251,-2.9428,-2.9779,-2.9779,-2.9779,-2.9779,-2.9779,-2.9779,-2.9754,-2.9703,-2.9651,-2.9586,-2.9638,-2.9573,-2.9431,-2.8679,-2.8324,-2.831,-2.8988,-2.955,-2.9712,-2.8824,-2.802,-2.8204,-2.6617,-2.5858,-2.5684,-2.5625,-2.5567,-2.5664,-2.5674,-2.5684,-2.5684,-2.5645,-2.5596,-2.5557,-2.5499,-2.5499,-2.5421,-2.5567,-2.5684,-2.5684,-2.5684,-2.5684,-2.5684,-2.5684,-2.5664,-2.5615,-2.5528,-2.5469,-2.546,-2.544,-2.5489,-2.5489,-2.5567,-2.5645,-2.5615,-2.5586,-2.5528,-2.5469,-2.5674,-2.5664,-2.5674,-2.5606,-2.5538,-2.5538,-2.5645,-2.5674,-2.5674,-2.5674,-2.5684,-2.5684,-2.5684,-2.5684,-3.0913,-3.0928,-3.0928,-3.1152,-3.1466,-3.1496,-3.1496,-3.1496,-3.1525,-3.1496,-3.1496,-3.1467,-3.1204,-3.0673,-2.9981,-2.9411,-2.8233,-2.7604,-2.704,-2.6692,-2.6487,-2.6487,-2.6487,-2.6487,-2.6487,-2.6487,-2.6487,-2.6487,-2.6487,-2.6487,-2.6524,-2.6524,-2.6487,-2.6549,-2.6637,-2.6864,-2.7318,-2.7733,-2.7908,-2.8147,-2.8574,-2.8699,-2.8737,-2.9176,-2.9176,-2.9164,-2.9139,-2.9126,-2.9151,-2.9113,-2.9059,-2.9054,-2.9024,-2.8942,-2.8743,-2.8311,-2.7768,-2.7163,-2.7211,-2.7695,-2.7959,-2.8292,-2.7564,-2.7087,-2.6796,-2.6084,-2.5253,-2.5254,-2.5245,-2.5313,-2.5333,-2.5196,-2.5195,-2.5117,-2.5137,-2.5107,-2.5079,-2.505,-2.5109,-2.5128,-2.5226,-2.5244,-2.5225,-2.5205,-2.5411,-2.5469,-2.5469,-2.543,-2.5371,-2.5264,-2.5079,-2.5079,-2.5099,-2.5167,-2.5245,-2.5157,-2.5117,-2.5031,-2.5021,-2.5099,-2.5148,-2.5333,-2.5323,-2.5109,-2.5089,-2.5303,-2.5273,-2.5146,-2.5352,-2.5654,-2.5625,-2.5586,-2.5684,-2.5684,-2.5684,-2.9684,-2.9624,-2.9684,-3.0387,-3.1316,-3.1466,-3.1406,-3.1286,-3.1316,-3.1331,-3.1286,-3.1316,-3.1259,-3.0808,-2.9606,-2.881,-2.8189,-2.7142,-2.6468,-2.6303,-2.616,-2.6336,-2.6411,-2.6373,-2.6373,-2.6474,-2.6487,-2.6487,-2.6487,-2.6487,-2.6487,-2.6487,-2.6487,-2.6487,-2.6487,-2.6499,-2.6813,-2.7205,-2.7293,-2.762,-2.7996,-2.8122,-2.821,-2.8398,-2.8448,-2.8473,-2.8486,-2.8486,-2.8499,-2.8449,-2.7919,-2.7772,-2.7806,-2.7132,-2.665,-2.6065,-2.5478,-2.5072,-2.4999,-2.6416,-2.6915,-2.6953,-2.6157,-2.6107,-2.6017,-2.5275,-2.4619,-2.4775,-2.4658,-2.459,-2.4521,-2.4521,-2.46,-2.4639,-2.4687,-2.4707,-2.4736,-2.4756,-2.4824,-2.4863,-2.4648,-2.4482,-2.4492,-2.46,-2.501,-2.5156,-2.5176,-2.5184,-2.5049,-2.4961,-2.4767,-2.4758,-2.4787,-2.4824,-2.4844,-2.4639,-2.4531,-2.4502,-2.4534,-2.4736,-2.4746,-2.4785,-2.4707,-2.4551,-2.4668,-2.4873,-2.4697,-2.4492,-2.4873,-2.5254,-2.5421,-2.546,-2.5586,-2.5557,-2.5401,-2.9621,-2.9621,-2.9621,-2.9834,-3.0223,-3.0238,-3.0238,-3.0238,-3.0238,-3.0253,-3.0238,-3.0238,-2.9887,-2.9347,-2.8928,-2.8112,-2.71,-2.6809,-2.6116,-2.5443,-2.546,-2.5624,-2.5774,-2.5937,-2.6109,-2.6399,-2.6487,-2.6449,-2.6487,-2.6487,-2.6487,-2.6487,-2.6487,-2.6487,-2.6487,-2.6499,-2.6637,-2.6738,-2.6813,-2.7027,-2.7494,-2.757,-2.7708,-2.8021,-2.8021,-2.8009,-2.7984,-2.7959,-2.7971,-2.7826,-2.722,-2.68,-2.6694,-2.6108,-2.5545,-2.5282,-2.4916,-2.4135,-2.3904,-2.4339,-2.461,-2.4794,-2.4955,-2.4886,-2.4866,-2.4716,-2.446,-2.4375,-2.4297,-2.4316,-2.4443,-2.4434,-2.4473,-2.4482,-2.4512,-2.4502,-2.4512,-2.4502,-2.4531,-2.4551,-2.4424,-2.4336,-2.4307,-2.416,-2.4443,-2.4543,-2.458,-2.4648,-2.4609,-2.4609,-2.4531,-2.4531,-2.4531,-2.4482,-2.4394,-2.4219,-2.4189,-2.4238,-2.4346,-2.4502,-2.4463,-2.4277,-2.4316,-2.4297,-2.4365,-2.4414,-2.4277,-2.4219,-2.4473,-2.4756,-2.4787,-2.4914,-2.5029,-2.4932,-2.4785,-2.8918,-2.8918,-2.8903,-2.8918,-2.8992,-2.9397,-2.9621,-2.9621,-2.9621,-2.9621,-2.9636,-2.9594,-2.9404,-2.8833,-2.814,-2.765,-2.6455,-2.5816,-2.5528,-2.482,-2.4813,-2.5084,-2.5272,-2.5372,-2.5636,-2.6047,-2.6223,-2.6235,-2.6474,-2.6487,-2.6487,-2.6487,-2.6487,-2.6487,-2.6487,-2.6499,-2.6499,-2.6549,-2.66,-2.6688,-2.6964,-2.7077,-2.719,-2.7369,-2.7469,-2.7469,-2.7507,-2.7544,-2.757,-2.7222,-2.6589,-2.5988,-2.5707,-2.4982,-2.4321,-2.3983,-2.3783,-2.3076,-2.2834,-2.2732,-2.3117,-2.3185,-2.335,-2.3682,-2.3916,-2.3867,-2.3896,-2.3871,-2.3958,-2.4004,-2.4004,-2.4023,-2.4043,-2.4033,-2.4023,-2.4014,-2.3994,-2.3965,-2.3975,-2.4023,-2.4043,-2.4043,-2.4043,-2.3935,-2.3887,-2.389,-2.3965,-2.4062,-2.415,-2.4121,-2.4102,-2.4082,-2.4033,-2.3926,-2.3867,-2.3818,-2.3838,-2.3955,-2.4033,-2.4102,-2.3945,-2.3686,-2.3887,-2.3984,-2.3887,-2.3838,-2.3896,-2.3919,-2.4004,-2.3939,-2.391,-2.4075,-2.4336,-2.4355,-2.4297,-2.7555,-2.754,-2.7585,-2.763,-2.7809,-2.8888,-2.9442,-2.9502,-2.9487,-2.9472,-2.9445,-2.9382,-2.9116,-2.8961,-2.7768,-2.6957,-2.647,-2.527,-2.4779,-2.4594,-2.4437,-2.4657,-2.4745,-2.482,-2.5121,-2.541,-2.5611,-2.5787,-2.6336,-2.6323,-2.6323,-2.6424,-2.6436,-2.6474,-2.6487,-2.6487,-2.6487,-2.6487,-2.6499,-2.6549,-2.6663,-2.6612,-2.6688,-2.6801,-2.6788,-2.6776,-2.6741,-2.6611,-2.6504,-2.5956,-2.5043,-2.4886,-2.4271,-2.3087,-2.2097,-2.1673,-2.1918,-2.2056,-2.2073,-2.208,-2.207,-2.2324,-2.2715,-2.2935,-2.3081,-2.313,-2.3218,-2.3257,-2.3296,-2.3247,-2.3218,-2.3247,-2.3286,-2.3276,-2.3276,-2.3257,-2.3247,-2.3247,-2.3257,-2.3276,-2.3305,-2.3325,-2.3374,-2.3325,-2.3393,-2.3442,-2.351,-2.3559,-2.3608,-2.3491,-2.3461,-2.3422,-2.3354,-2.3247,-2.3247,-2.3403,-2.3422,-2.3539,-2.3422,-2.3422,-2.3257,-2.3266,-2.3413,-2.3452,-2.3247,-2.3227,-2.3432,-2.3403,-2.3276,-2.3266,-2.3413,-2.3539,-2.3896,-2.4043,-2.4053,-2.6602,-2.6288,-2.7195,-2.733,-2.7046,-2.7809,-2.8184,-2.8169,-2.8169,-2.8169,-2.8184,-2.8169,-2.807,-2.73,-2.6329,-2.5723,-2.4941,-2.4197,-2.3743,-2.3634,-2.3785,-2.3923,-2.4104,-2.4268,-2.4569,-2.487,-2.5084,-2.5172,-2.536,-2.5611,-2.5883,-2.5862,-2.6172,-2.6336,-2.6386,-2.6461,-2.6411,-2.6424,-2.6399,-2.6487,-2.6487,-2.6487,-2.6487,-2.6487,-2.6383,-2.6383,-2.6314,-2.5699,-2.5523,-2.5159,-2.3612,-2.2945,-2.274,-2.1751,-2.0956,-2.1335,-2.166,-2.1946,-2.1936,-2.1926,-2.1826,-2.1787,-2.2109,-2.2168,-2.2314,-2.248,-2.2604,-2.2691,-2.2808,-2.2847,-2.2867,-2.2877,-2.2935,-2.2974,-2.2994,-2.3023,-2.3033,-2.3101,-2.3081,-2.2964,-2.2974,-2.2867,-2.2896,-2.2955,-2.3033,-2.3071,-2.3091,-2.311,-2.3198,-2.3101,-2.312,-2.3101,-2.3101,-2.3101,-2.3101,-2.3218,-2.3169,-2.313,-2.3101,-2.3101,-2.314,-2.3159,-2.311,-2.3101,-2.3101,-2.3101,-2.314,-2.3101,-2.3101,-2.3101,-2.3208,-2.3286,-2.3383,-2.3569,-2.3656,-2.5974,-2.5749,-2.6437,-2.6581,-2.6318,-2.6617,-2.6821,-2.6911,-2.736,-2.7585,-2.7585,-2.763,-2.7188,-2.6541,-2.5812,-2.5075,-2.4358,-2.3646,-2.3208,-2.3221,-2.3095,-2.3346,-2.359,-2.3728,-2.406,-2.4362,-2.4544,-2.4543,-2.4648,-2.4988,-2.5285,-2.5322,-2.5745,-2.5808,-2.5749,-2.5732,-2.577,-2.5959,-2.6172,-2.6411,-2.6474,-2.6461,-2.6487,-2.6418,-2.628,-2.6025,-2.5838,-2.4969,-2.4492,-2.4264,-2.2702,-2.2134,-2.1966,-2.1292,-2.0703,-2.0996,-2.1133,-2.131,-2.131,-2.1339,-2.1388,-2.1387,-2.1406,-2.1357,-2.1602,-2.1855,-2.21,-2.2295,-2.2471,-2.2607,-2.2627,-2.2656,-2.2764,-2.2861,-2.2867,-2.2916,-2.2994,-2.3081,-2.2984,-2.2871,-2.2744,-2.2607,-2.2555,-2.2613,-2.2594,-2.2539,-2.25,-2.251,-2.2701,-2.2925,-2.3013,-2.3101,-2.3101,-2.3101,-2.3062,-2.2984,-2.2994,-2.3013,-2.3101,-2.3101,-2.3091,-2.3062,-2.3033,-2.3062,-2.3101,-2.3052,-2.2964,-2.3071,-2.3101,-2.3042,-2.2994,-2.3091,-2.3159,-2.3247,-2.3276,-2.5541,-2.5405,-2.551,-2.5606,-2.5615,-2.5689,-2.5704,-2.5734,-2.6826,-2.7405,-2.7345,-2.7405,-2.6944,-2.6194,-2.5389,-2.4737,-2.4008,-2.3324,-2.2895,-2.3032,-2.3095,-2.3195,-2.3183,-2.3158,-2.3608,-2.3928,-2.4035,-2.3935,-2.419,-2.4491,-2.4745,-2.4757,-2.4933,-2.5059,-2.5109,-2.5096,-2.5146,-2.5259,-2.5711,-2.6135,-2.6298,-2.6386,-2.6414,-2.6349,-2.5804,-2.5229,-2.485,-2.4228,-2.3452,-2.3084,-2.2574,-2.2004,-2.1645,-2.1272,-2.079,-2.0654,-2.0781,-2.0801,-2.083,-2.084,-2.0781,-2.0732,-2.0625,-2.0762,-2.1085,-2.1455,-2.1758,-2.1885,-2.2051,-2.2197,-2.2236,-2.2246,-2.2314,-2.2412,-2.248,-2.2559,-2.2646,-2.2685,-2.2617,-2.2471,-2.2344,-2.2217,-2.2094,-2.21,-2.2295,-2.207,-2.2021,-2.2051,-2.2126,-2.2473,-2.2662,-2.2818,-2.2769,-2.2701,-2.2764,-2.2725,-2.2808,-2.2886,-2.2906,-2.2838,-2.2685,-2.276,-2.2955,-2.2808,-2.2643,-2.2789,-2.2808,-2.2779,-2.273,-2.274,-2.274,-2.2886,-2.2945,-2.2886,-2.3033,-2.49,-2.4133,-2.4619,-2.5113,-2.5585,-2.56,-2.5585,-2.563,-2.5899,-2.6078,-2.6078,-2.6084,-2.5994,-2.5628,-2.4627,-2.3984,-2.3581,-2.2878,-2.2573,-2.2619,-2.2794,-2.292,-2.3058,-2.3007,-2.3238,-2.3288,-2.3333,-2.3403,-2.3585,-2.3891,-2.4205,-2.4255,-2.4443,-2.4612,-2.4612,-2.4625,-2.4637,-2.4644,-2.4921,-2.5357,-2.5586,-2.5816,-2.5904,-2.6192,-2.5998,-2.5343,-2.4803,-2.3931,-2.3077,-2.2403,-2.1451,-2.1059,-2.1002,-2.0712,-2.0634,-2.0605,-2.0517,-2.0498,-2.0517,-2.0507,-2.0498,-2.0576,-2.0595,-2.0605,-2.0762,-2.1162,-2.1406,-2.1494,-2.1592,-2.1728,-2.1816,-2.1816,-2.1855,-2.1943,-2.2041,-2.2129,-2.2227,-2.2197,-2.2168,-2.2051,-2.1924,-2.1775,-2.1634,-2.1663,-2.1875,-2.1904,-2.1955,-2.1904,-2.1724,-2.1867,-2.1992,-2.2109,-2.2178,-2.2168,-2.2275,-2.2373,-2.2471,-2.2402,-2.2353,-2.2285,-2.2246,-2.2363,-2.248,-2.2266,-2.2148,-2.2344,-2.2402,-2.2207,-2.2187,-2.2344,-2.2383,-2.248,-2.2393,-2.2324,-2.2666,-2.4441,-2.3676,-2.3992,-2.435,-2.4672,-2.4717,-2.4717,-2.4717,-2.4717,-2.4717,-2.4852,-2.5239,-2.5287,-2.4839,-2.3895,-2.3079,-2.2778,-2.2219,-2.2005,-2.2083,-2.2255,-2.2468,-2.2619,-2.2757,-2.297,-2.3007,-2.3083,-2.3158,-2.317,-2.3333,-2.364,-2.369,-2.3973,-2.4098,-2.4073,-2.4061,-2.4098,-2.401,-2.4098,-2.4195,-2.4538,-2.4872,-2.5302,-2.5699,-2.5241,-2.4649,-2.3723,-2.2733,-2.1784,-2.1024,-2.027,-2.0092,-2.0072,-1.9959,-1.9989,-1.9999,-2.0008,-2.0116,-2.0204,-2.0224,-2.0263,-2.038,-2.0303,-2.0234,-2.0595,-2.0918,-2.0928,-2.1006,-2.1016,-2.1173,-2.1182,-2.1182,-2.1178,-2.1223,-2.1491,-2.1709,-2.1777,-2.1807,-2.1728,-2.1611,-2.1406,-2.1143,-2.1054,-2.1054,-2.1212,-2.1222,-2.1319,-2.1398,-2.1257,-2.1314,-2.1375,-2.1455,-2.1582,-2.1807,-2.2021,-2.206,-2.2051,-2.1943,-2.1828,-2.1914,-2.1982,-2.1953,-2.1914,-2.1826,-2.1816,-2.1963,-2.1943,-2.1768,-2.1897,-2.206,-2.2031,-2.1982,-2.1906,-2.1828,-2.2119,-2.411,-2.3616,-2.361,-2.361,-2.3595,-2.3625,-2.3655,-2.3655,-2.3625,-2.3655,-2.3834,-2.4837,-2.4525,-2.3957,-2.3289,-2.2459,-2.1829,-2.1568,-2.1438,-2.1446,-2.1543,-2.1895,-2.2121,-2.2234,-2.2493,-2.2714,-2.284,-2.3007,-2.312,-2.3221,-2.3221,-2.312,-2.3095,-2.312,-2.3095,-2.3133,-2.3271,-2.323,-2.3182,-2.2904,-2.3264,-2.3773,-2.421,-2.412,-2.3634,-2.2717,-2.1875,-2.1131,-2.0206,-1.9763,-1.9497,-1.949,-1.9453,-1.9482,-1.9443,-1.9463,-1.9492,-1.9619,-1.9697,-1.9609,-1.9853,-2.0077,-1.9922,-2.001,-2.0351,-2.0429,-2.0449,-2.0546,-2.0527,-2.0654,-2.0664,-2.0684,-2.0662,-2.0698,-2.1023,-2.1229,-2.1328,-2.1377,-2.1279,-2.1132,-2.0947,-2.0693,-2.0654,-2.0644,-2.0635,-2.0615,-2.0615,-2.0615,-2.0654,-2.082,-2.0967,-2.1085,-2.1202,-2.1456,-2.1662,-2.1672,-2.1574,-2.1465,-2.1357,-2.1613,-2.1711,-2.1515,-2.1456,-2.1543,-2.1572,-2.1574,-2.1584,-2.1435,-2.1582,-2.1711,-2.1554,-2.1417,-2.1456,-2.1437,-2.1592,-2.4095,-2.3595,-2.3595,-2.3595,-2.3595,-2.3595,-2.3595,-2.3595,-2.3595,-2.3595,-2.367,-2.3744,-2.3748,-2.3524,-2.2451,-2.1688,-2.1391,-2.1054,-2.0858,-2.0867,-2.1104,-2.1418,-2.1616,-2.1716,-2.1995,-2.2217,-2.2385,-2.2572,-2.2757,-2.2945,-2.3083,-2.3045,-2.3095,-2.3095,-2.3095,-2.3095,-2.3095,-2.2975,-2.2598,-2.2339,-2.2272,-2.2619,-2.2756,-2.2723,-2.2502,-2.1817,-2.1237,-2.0896,-2.0196,-1.963,-1.9219,-1.918,-1.9141,-1.9111,-1.9111,-1.9062,-1.9082,-1.9209,-1.9258,-1.918,-1.947,-1.9637,-1.9502,-1.9473,-1.9648,-1.9678,-1.9795,-2.0088,-2.0205,-2.0507,-2.0576,-2.0625,-2.0635,-2.0635,-2.081,-2.082,-2.085,-2.0859,-2.082,-2.0781,-2.0713,-2.0635,-2.0625,-2.0625,-2.0625,-2.0615,-2.0615,-2.0615,-2.0615,-2.0615,-2.0615,-2.0723,-2.086,-2.0772,-2.086,-2.1006,-2.0977,-2.0928,-2.0908,-2.1114,-2.1114,-2.0879,-2.0869,-2.1074,-2.1045,-2.0928,-2.0948,-2.1094,-2.1036,-2.1055,-2.0889,-2.0801,-2.0899,-2.1026,-2.1172]},{"header":{"parameterUnit":"m.s-1","parameterCategory":1,"la1":31.0,"la2":29.5877,"lo1":-88.7671,"lo2":-86.6584,"dy":0.0162,"dx":0.0185,"nx":115,"ny":88,"refTime":"2024-08-17T12:00:00:Z","depth":0,"parameterNumber":3,"parameterNumberName":"V-component_of_WINDS"},"data":[0.0,0.0,0.0,0.0,0.0,0.0,0.0,0.0,0.0,0.0,0.0,0.0,0.0,0.0,0.0,0.0,0.0,0.0,0.0,0.0,0.0,0.0,0.0,0.0,0.0,0.0,0.0,0.0,0.0,0.0,0.0,0.0,0.0,0.0,0.0,0.0,0.0,0.0,0.0,0.0,0.0,0.0,0.0,0.0,0.0,0.0,0.0,0.0,0.0,0.0,0.0,0.0,0.0,0.0,0.0,0.0,0.0,0.0,0.0,0.0,0.0,0.0,0.0,0.0,0.0,0.0,0.0,0.0,0.0,0.0,0.0,0.0,0.0,0.0,0.0,0.0,0.0,0.0,0.0,0.0,0.0,0.0,0.0,0.0,0.0,0.0,0.0,0.0,0.0,0.0,0.0,0.0,0.0,0.0,0.0,0.0,0.0,0.0,0.0,0.0,0.0,0.0,0.0,0.0,0.0,0.0,0.0,0.0,0.0,0.0,0.0,0.0,0.0,0.0,0.0,0.0,0.0,0.0,0.0,0.0,0.0,0.0,0.0,0.0,0.0,0.0,0.0,0.0,0.0,0.0,0.0,0.0,0.0,0.0,0.0,0.0,0.0,0.0,0.0,0.0,0.0,0.0,0.0,0.0,0.0,0.0,0.0,0.0,0.0,0.0,0.0,0.0,0.0,0.0,0.0,0.0,0.0,0.0,0.0,0.0,0.0,0.0,0.0,0.0,0.0,0.0,0.0,0.0,0.0,0.0,0.0,0.0,0.0,0.0,0.0,0.0,0.0,0.0,0.0,0.0,0.0,0.0,0.0,0.0,0.0,0.0,0.0,0.0,0.0,0.0,0.0,0.0,0.0,0.0,0.0,0.0,0.0,0.0,0.0,0.0,0.0,0.0,0.0,0.0,0.0,0.0,0.0,0.0,0.0,0.0,0.0,0.0,0.0,0.0,0.0,0.0,0.0,0.0,0.0,0.0,0.0,0.0,0.0,0.0,0.0,0.0,0.0,0.0,0.0,0.0,0.0,0.0,0.0,0.0,0.0,0.0,0.0,0.0,0.0,0.0,0.0,0.0,0.0,0.0,0.0,0.0,0.0,0.0,0.0,0.0,0.0,0.0,0.0,0.0,0.0,0.0,0.0,0.0,0.0,0.0,0.0,0.0,0.0,0.0,0.0,0.0,0.0,0.0,0.0,0.0,0.0,0.0,0.0,0.0,0.0,0.0,0.0,0.0,0.0,0.0,0.0,0.0,0.0,0.0,0.0,0.0,0.0,0.0,0.0,0.0,0.0,0.0,0.0,0.0,0.0,0.0,0.0,0.0,0.0,0.0,0.0,0.0,0.0,0.0,0.0,0.0,0.0,0.0,0.0,0.0,0.0,0.0,0.0,0.0,0.0,0.0,0.0,0.0,0.0,0.0,0.0,0.0,0.0,0.0,0.0,0.0,0.0,0.0,0.0,0.0,0.0,0.0,0.0,0.0,0.0,0.0,0.0,0.0,0.0,0.0,0.0,0.0,0.0,0.0,0.0,0.0,0.0,0.0,0.0,0.0,0.0,0.0,0.0,0.0,0.0,0.0,0.0,0.0,0.0,0.0,0.0,0.0,0.0,0.0,0.0,0.0,0.0,0.0,0.0,0.0,0.0,0.0,0.0,0.0,0.0,0.0,0.0,0.0,0.0,0.0,0.0,0.0,0.0,0.0,0.0,0.0,0.0,0.0,0.0,0.0,0.0,0.0,0.0,0.0,0.0,0.0,0.0,0.0,0.0,0.0,0.0,0.0,0.0,0.0,0.0,0.0,0.0,0.0,0.0,0.0,0.0,0.0,0.0,0.0,0.0,0.0,0.0,0.0,0.0,0.0,0.0,0.0,0.0,0.0,0.0,0.0,0.0,0.0,0.0,0.0,0.0,0.0,0.0,0.0,0.0,0.0,0.0,0.0,0.0,0.0,0.0,0.0,0.0,0.0,0.0,0.0,0.0,0.0,0.0,0.0,0.0,0.0,0.0,0.0,0.0,0.0,0.0,0.0,0.0,0.0,0.0,0.0,0.0,0.0,0.0,0.0,0.0,0.0,0.0,0.0,0.0,0.0,0.0,0.0,0.0,0.0,0.0,0.0,0.0,0.0,0.0,0.0,0.0,0.0,0.0,0.0,0.0,0.0,0.0,0.0,0.0,0.0,0.0,0.0,0.0,0.0,0.0,0.0,0.0,0.0,0.0,0.0,0.0,0.0,0.0,0.0,0.0,0.0,0.0,0.0,0.0,0.0,0.0,0.0,0.0,0.0,0.0,0.0,0.0,0.0,0.0,0.0,0.0,0.0,0.0,0.0,0.0,0.0,0.0,0.0,0.0,0.0,0.0,0.0,0.0,0.0,0.0,0.0,0.0,0.0,0.0,0.0,0.0,0.0,0.0,0.0,0.0,0.0,0.0,0.0,0.0,0.0,0.0,0.0,0.0,0.0,0.0,0.0,0.0,0.0,0.0,0.0,0.0,0.0,0.0,0.0,0.0,0.0,0.0,0.0,0.0,0.0,0.0,0.0,0.0,0.0,0.0,0.0,0.0,0.0,0.0,0.0,0.0,0.0,0.0,0.0,0.0,0.0,0.0,0.0,0.0,0.0,0.0,0.0,0.0,0.0,0.0,0.0,0.0,0.0,0.0,0.0,0.0,0.0,0.0,0.0,0.0,0.0,0.0,0.0,0.0,0.0,0.0,0.0,0.0,0.0,0.0,0.0,0.0,0.0,0.0,0.0,0.0,0.0,0.0,0.0,0.0,0.0,0.0,0.0,0.0,0.0,0.0,0.0,0.0,0.0,0.0,0.0,0.0,0.0,0.0,0.0,0.0,0.0,0.0,0.0,0.0,0.0,0.0,0.0,0.0,0.0,0.0,0.0,0.0,0.0,0.0,0.0,0.0,0.0,0.0,0.0,0.0,0.0,0.0,0.0,0.0,0.0,0.0,0.0,0.0,0.0,0.0,0.0,0.0,0.0,0.0,0.0,0.0,0.0,0.0,0.0,0.0,0.0,0.0,0.0,0.0,0.0,0.0,0.0,0.0,0.0,0.0,0.0,0.0,0.0,0.0,0.0,0.0,0.0,0.0,0.0,0.0,0.0,0.0,0.0,0.0,0.0,0.0,0.0,0.0,0.0,0.0,0.0,0.0,0.0,0.0,0.0,0.0,0.0,0.0,0.0,0.0,0.0,0.0,0.0,0.0,0.0,0.0,0.0,0.0,0.0,0.0,0.0,0.0,0.0,0.0,0.0,0.0,0.0,0.0,0.0,0.0,0.0,0.0,0.0,0.0,0.0,0.0,0.0,0.0,0.0,0.0,0.0,0.0,0.0,0.0,0.0,0.0,0.0,0.0,0.0,0.0,0.0,0.0,0.0,0.0,0.0,0.0,0.0,0.0,0.0,0.0,0.0,0.0,0.0,0.0,0.0,0.0,0.0,0.0,0.0,0.0,0.0,0.0,0.0,0.0,0.0,0.0,0.0,0.0,0.0,0.0,0.0,0.0,0.0,0.0,0.0,0.0,0.0,0.0,0.0,0.0,0.0,0.0,0.0,0.0,0.0,0.0,0.0,0.0,0.0,0.0,0.0,0.0,0.0,0.0,0.0,0.0,0.0,0.0,0.0,0.0,0.0,0.0,0.0,0.0,0.0,0.0,0.0,0.0,0.0,0.0,0.0,0.0,0.0,0.0,0.0,0.0,0.0,0.0,0.0,0.0,0.0,0.0,0.0,0.0,0.0,0.0,0.0,0.0,0.0,0.0,0.0,0.0,0.0,0.0,0.0,0.0,0.0,0.0,0.0,0.0,0.0,0.0,0.0,0.0,0.0,0.0,0.0,0.0,0.0,0.0,0.0,0.0,0.0,0.0,0.0,0.0,0.0,0.0,0.0,0.0,0.0,0.0,0.0,0.0,0.0,0.0,0.0,0.0,0.0,0.0,0.0,0.0,0.0,0.0,0.0,0.0,0.0,0.0,0.0,0.0,0.0,0.0,0.0,0.0,0.0,0.0,0.0,0.0,0.0,0.0,0.0,0.0,0.0,0.0,0.0,0.0,0.0,0.0,0.0,0.0,0.0,0.0,0.0,0.0,0.0,0.0,0.0,0.0,0.0,0.0,0.0,0.0,0.0,0.0,0.0,0.0,0.0,0.0,0.0,0.0,0.0,0.0,0.0,0.0,0.0,0.0,0.0,0.0,0.0,0.0,0.0,0.0,0.0,0.0,0.0,0.0,0.0,0.0,0.0,0.0,0.0,0.0,0.0,-1.5541,0.0,0.0,0.0,0.0,0.0,0.0,0.0,0.0,0.0,0.0,0.0,0.0,0.0,0.0,0.0,0.0,0.0,0.0,0.0,0.0,0.0,0.0,0.0,0.0,0.0,0.0,0.0,0.0,0.0,0.0,0.0,0.0,0.0,0.0,0.0,0.0,0.0,0.0,0.0,0.0,0.0,0.0,0.0,0.0,0.0,0.0,0.0,0.0,0.0,0.0,0.0,0.0,0.0,0.0,0.0,0.0,0.0,0.0,0.0,0.0,0.0,0.0,0.0,0.0,0.0,0.0,0.0,0.0,0.0,0.0,0.0,0.0,0.0,0.0,0.0,0.0,0.0,0.0,0.0,0.0,0.0,0.0,0.0,0.0,0.0,0.0,0.0,0.0,0.0,0.0,0.0,0.0,0.0,0.0,0.0,0.0,0.0,0.0,0.0,0.0,0.0,0.0,0.0,0.0,0.0,0.0,0.0,0.0,0.0,0.0,-2.202,-1.9067,-1.6552,-1.5081,-1.4789,0.0,0.0,0.0,0.0,0.0,0.0,0.0,0.0,0.0,0.0,0.0,0.0,0.0,0.0,0.0,0.0,0.0,0.0,0.0,0.0,0.0,0.0,0.0,0.0,0.0,0.0,0.0,0.0,0.0,0.0,0.0,0.0,0.0,0.0,0.0,0.0,0.0,0.0,0.0,0.0,0.0,0.0,0.0,0.0,0.0,0.0,0.0,0.0,0.0,0.0,0.0,0.0,0.0,0.0,0.0,0.0,0.0,0.0,0.0,0.0,0.0,0.0,0.0,0.0,0.0,0.0,0.0,0.0,0.0,0.0,0.0,0.0,0.0,0.0,0.0,0.0,0.0,0.0,0.0,0.0,0.0,0.0,0.0,0.0,0.0,0.0,0.0,0.0,0.0,0.0,0.0,0.0,0.0,0.0,0.0,0.0,0.0,0.0,0.0,0.0,0.0,0.0,0.0,0.0,0.0,0.0,0.0,0.0,0.0,0.0,0.0,0.0,-1.488,-1.4032,-1.4833,0.0,0.0,0.0,0.0,0.0,0.0,0.0,0.0,0.0,0.0,0.0,0.0,0.0,0.0,0.0,0.0,0.0,0.0,0.0,0.0,0.0,0.0,0.0,0.0,0.0,0.0,0.0,0.0,0.0,0.0,0.0,0.0,0.0,0.0,0.0,0.0,0.0,0.0,0.0,0.0,0.0,0.0,0.0,0.0,0.0,0.0,0.0,0.0,0.0,0.0,0.0,0.0,0.0,0.0,0.0,0.0,0.0,0.0,0.0,0.0,0.0,0.0,0.0,0.0,0.0,0.0,0.0,0.0,0.0,0.0,0.0,0.0,0.0,0.0,0.0,0.0,0.0,0.0,0.0,0.0,0.0,0.0,0.0,0.0,0.0,0.0,0.0,0.0,0.0,0.0,0.0,0.0,0.0,0.0,0.0,0.0,0.0,0.0,0.0,0.0,0.0,0.0,0.0,0.0,0.0,0.0,0.0,0.0,0.0,0.0,-1.7691,-1.4974,-1.3349,0.0,-1.5876,0.0,0.0,0.0,0.0,0.0,0.0,0.0,0.0,0.0,0.0,0.0,0.0,0.0,0.0,0.0,0.0,0.0,0.0,0.0,0.0,0.0,0.0,0.0,0.0,0.0,0.0,0.0,0.0,0.0,0.0,0.0,0.0,0.0,0.0,0.0,0.0,0.0,0.0,0.0,0.0,0.0,0.0,0.0,0.0,0.0,0.0,0.0,0.0,0.0,0.0,0.0,0.0,0.0,0.0,0.0,0.0,0.0,0.0,0.0,0.0,0.0,0.0,0.0,0.0,0.0,0.0,0.0,0.0,0.0,0.0,0.0,0.0,0.0,0.0,0.0,0.0,0.0,0.0,0.0,0.0,0.0,0.0,0.0,0.0,0.0,0.0,0.0,0.0,0.0,0.0,0.0,0.0,0.0,0.0,0.0,0.0,0.0,0.0,0.0,0.0,0.0,0.0,0.0,0.0,0.0,0.0,0.0,0.0,0.0,0.0,-1.6263,-1.3785,-1.3574,-1.4514,0.0,0.0,0.0,0.0,0.0,0.0,0.0,0.0,0.0,0.0,0.0,0.0,0.0,0.0,0.0,0.0,0.0,0.0,0.0,0.0,0.0,0.0,0.0,0.0,0.0,0.0,0.0,0.0,0.0,0.0,0.0,0.0,0.0,0.0,0.0,0.0,0.0,0.0,0.0,0.0,0.0,0.0,0.0,0.0,0.0,0.0,0.0,0.0,0.0,0.0,0.0,0.0,0.0,0.0,0.0,0.0,0.0,0.0,0.0,0.0,0.0,0.0,0.0,0.0,0.0,0.0,0.0,0.0,0.0,0.0,0.0,0.0,0.0,0.0,0.0,0.0,0.0,0.0,0.0,0.0,0.0,0.0,0.0,0.0,0.0,0.0,0.0,0.0,0.0,0.0,0.0,0.0,0.0,0.0,0.0,0.0,0.0,0.0,0.0,0.0,0.0,0.0,0.0,0.0,0.0,0.0,0.0,0.0,0.0,0.0,-1.7709,-1.4851,-1.2955,-1.3703,-1.5003,-1.6812,0.0,0.0,0.0,0.0,0.0,0.0,0.0,0.0,0.0,0.0,0.0,0.0,0.0,0.0,0.0,0.0,0.0,0.0,0.0,0.0,0.0,0.0,0.0,0.0,0.0,0.0,0.0,0.0,0.0,0.0,0.0,0.0,0.0,0.0,0.0,0.0,0.0,0.0,0.0,0.0,0.0,0.0,0.0,0.0,0.0,0.0,0.0,0.0,0.0,0.0,0.0,0.0,0.0,0.0,0.0,0.0,0.0,0.0,0.0,0.0,0.0,0.0,0.0,0.0,0.0,0.0,0.0,0.0,0.0,0.0,0.0,0.0,0.0,0.0,0.0,0.0,0.0,0.0,0.0,0.0,0.0,0.0,0.0,0.0,0.0,0.0,0.0,0.0,0.0,0.0,0.0,0.0,0.0,0.0,0.0,0.0,0.0,0.0,0.0,0.0,0.0,0.0,0.0,0.0,0.0,0.0,0.0,0.0,-1.91,-1.5683,-1.3327,-1.2155,-1.3185,-1.4607,0.0,0.0,0.0,0.0,0.0,0.0,0.0,0.0,0.0,0.0,0.0,0.0,0.0,0.0,0.0,0.0,0.0,0.0,0.0,0.0,0.0,0.0,0.0,0.0,0.0,0.0,0.0,0.0,0.0,0.0,0.0,0.0,0.0,0.0,0.0,0.0,0.0,0.0,0.0,0.0,0.0,0.0,0.0,0.0,0.0,0.0,0.0,0.0,0.0,0.0,0.0,0.0,0.0,0.0,0.0,0.0,0.0,0.0,0.0,0.0,0.0,0.0,0.0,0.0,0.0,0.0,0.0,0.0,0.0,0.0,0.0,0.0,0.0,0.0,0.0,0.0,0.0,0.0,0.0,0.0,0.0,0.0,0.0,0.0,0.0,0.0,0.0,0.0,0.0,0.0,0.0,0.0,0.0,0.0,0.0,0.0,0.0,0.0,0.0,0.0,0.0,0.0,0.0,0.0,0.0,0.0,0.0,0.0,0.0,-1.7739,-1.3963,-1.2015,-1.1992,-1.3162,-1.4536,0.0,0.0,0.0,0.0,0.0,0.0,0.0,0.0,0.0,0.0,0.0,0.0,0.0,0.0,0.0,0.0,0.0,0.0,0.0,0.0,0.0,0.0,0.0,0.0,0.0,0.0,0.0,0.0,0.0,0.0,0.0,0.0,0.0,0.0,0.0,0.0,0.0,0.0,0.0,0.0,0.0,0.0,0.0,0.0,0.0,0.0,0.0,0.0,0.0,0.0,0.0,0.0,0.0,0.0,0.0,0.0,0.0,0.0,0.0,0.0,0.0,0.0,0.0,0.0,0.0,0.0,0.0,0.0,0.0,0.0,0.0,0.0,0.0,0.0,0.0,0.0,0.0,0.0,0.0,0.0,0.0,0.0,0.0,0.0,0.0,0.0,0.0,0.0,0.0,0.0,0.0,0.0,0.0,0.0,0.0,0.0,0.0,0.0,0.0,0.0,0.0,0.0,0.0,0.0,0.0,0.0,0.0,0.0,0.0,-1.527,0.0,-1.1198,0.0,-1.314,-1.4399,0.0,0.0,0.0,0.0,0.0,0.0,0.0,0.0,0.0,0.0,0.0,0.0,0.0,0.0,0.0,0.0,0.0,0.0,0.0,0.0,0.0,0.0,0.0,0.0,0.0,0.0,0.0,0.0,0.0,0.0,0.0,0.0,0.0,0.0,0.0,0.0,0.0,0.0,0.0,0.0,0.0,0.0,0.0,0.0,0.0,0.0,0.0,0.0,0.0,0.0,0.0,0.0,0.0,0.0,0.0,0.0,0.0,0.0,0.0,0.0,0.0,0.0,0.0,0.0,0.0,0.0,0.0,0.0,0.0,0.0,0.0,0.0,0.0,0.0,0.0,0.0,0.0,0.0,0.0,0.0,0.0,0.0,0.0,0.0,0.0,0.0,0.0,0.0,0.0,0.0,0.0,0.0,0.0,0.0,0.0,0.0,0.0,0.0,0.0,0.0,0.0,0.0,0.0,0.0,0.0,0.0,0.0,0.0,-1.6533,-1.1623,-1.071,-1.0986,-1.2263,-1.3149,-1.4077,0.0,0.0,0.0,0.0,0.0,0.0,0.0,0.0,0.0,0.0,0.0,0.0,0.0,0.0,0.0,0.0,0.0,0.0,0.0,0.0,0.0,0.0,0.0,0.0,0.0,0.0,0.0,0.0,0.0,0.0,0.0,0.0,0.0,0.0,0.0,0.0,0.0,0.0,0.0,0.0,0.0,0.0,0.0,0.0,0.0,0.0,0.0,0.0,0.0,0.0,0.0,0.0,0.0,0.0,0.0,0.0,0.0,0.0,0.0,0.0,0.0,0.0,0.0,0.0,0.0,0.0,0.0,0.0,0.0,0.0,0.0,0.0,0.0,0.0,0.0,0.0,0.0,0.0,0.0,0.0,0.0,0.0,0.0,0.0,0.0,0.0,0.0,0.0,0.0,0.0,0.0,0.0,0.0,0.0,0.0,0.0,0.0,0.0,0.0,0.0,0.0,0.0,0.0,0.0,0.0,0.0,0.0,0.0,0.0,-1.1645,-1.1194,-1.1472,-1.24,-1.309,-1.395,0.0,0.0,0.0,0.0,0.0,0.0,0.0,0.0,0.0,0.0,0.0,0.0,0.0,0.0,0.0,0.0,0.0,0.0,0.0,0.0,0.0,0.0,0.0,0.0,0.0,0.0,0.0,0.0,0.0,0.0,0.0,0.0,0.0,0.0,0.0,0.0,0.0,0.0,0.0,0.0,0.0,0.0,0.0,0.0,0.0,0.0,0.0,0.0,0.0,0.0,0.0,0.0,0.0,0.0,0.0,0.0,0.0,0.0,0.0,0.0,0.0,0.0,0.0,0.0,0.0,0.0,0.0,0.0,0.0,0.0,0.0,0.0,0.0,0.0,0.0,0.0,0.0,0.0,0.0,0.0,0.0,0.0,0.0,0.0,0.0,0.0,0.0,0.0,0.0,0.0,0.0,0.0,0.0,0.0,0.0,0.0,0.0,0.0,0.0,0.0,0.0,0.0,0.0,0.0,0.0,0.0,0.0,0.0,0.0,-1.201,-1.1828,-1.2173,-1.3141,-1.3755,-1.4352,-1.5047,0.0,0.0,0.0,0.0,0.0,0.0,0.0,0.0,0.0,0.0,0.0,0.0,0.0,0.0,0.0,0.0,0.0,0.0,0.0,0.0,0.0,0.0,0.0,0.0,0.0,0.0,0.0,0.0,0.0,0.0,0.0,0.0,0.0,0.0,0.0,0.0,0.0,0.0,0.0,0.0,0.0,0.0,0.0,0.0,0.0,0.0,0.0,0.0,0.0,0.0,0.0,0.0,0.0,0.0,0.0,0.0,0.0,0.0,0.0,0.0,0.0,0.0,0.0,0.0,0.0,0.0,0.0,0.0,0.0,0.0,0.0,0.0,0.0,0.0,0.0,0.0,0.0,0.0,0.0,0.0,0.0,0.0,0.0,0.0,0.0,0.0,0.0,0.0,0.0,0.0,0.0,0.0,0.0,0.0,0.0,0.0,0.0,0.0,0.0,0.0,0.0,0.0,0.0,0.0,0.0,0.0,0.0,0.0,-1.2592,-1.2667,-1.3245,-1.4316,-1.4851,-1.5212,0.0,0.0,0.0,0.0,0.0,0.0,0.0,0.0,0.0,0.0,0.0,0.0,0.0,0.0,0.0,0.0,0.0,0.0,0.0,0.0,0.0,0.0,0.0,0.0,0.0,0.0,0.0,0.0,0.0,0.0,0.0,0.0,0.0,0.0,0.0,0.0,0.0,0.0,0.0,0.0,0.0,0.0,0.0,0.0,0.0,0.0,0.0,0.0,0.0,0.0,0.0,0.0,0.0,0.0,0.0,0.0,0.0,0.0,0.0,0.0,0.0,0.0,0.0,0.0,0.0,0.0,0.0,0.0,0.0,0.0,0.0,0.0,0.0,0.0,0.0,0.0,0.0,0.0,0.0,0.0,0.0,0.0,0.0,0.0,0.0,0.0,0.0,0.0,0.0,0.0,0.0,0.0,0.0,0.0,0.0,0.0,0.0,0.0,0.0,0.0,0.0,0.0,0.0,0.0,0.0,0.0,0.0,0.0,0.0,-1.3683,-1.4574,-1.5122,-1.5173,-1.5586,-1.6261,0.0,0.0,0.0,0.0,0.0,0.0,0.0,0.0,0.0,0.0,0.0,0.0,0.0,0.0,0.0,0.0,0.0,0.0,0.0,0.0,0.0,0.0,0.0,0.0,0.0,0.0,0.0,0.0,0.0,0.0,0.0,0.0,0.0,0.0,0.0,0.0,0.0,0.0,0.0,0.0,0.0,0.0,0.0,0.0,0.0,0.0,0.0,0.0,0.0,0.0,0.0,0.0,0.0,0.0,0.0,0.0,0.0,0.0,0.0,0.0,0.0,0.0,0.0,0.0,0.0,0.0,0.0,0.0,0.0,0.0,0.0,0.0,0.0,0.0,0.0,0.0,0.0,0.0,0.0,0.0,0.0,0.0,0.0,0.0,0.0,0.0,0.0,0.0,0.0,0.0,0.0,0.0,0.0,0.0,0.0,0.0,0.0,0.0,0.0,0.0,0.0,0.0,0.0,0.0,0.0,0.0,0.0,0.0,-1.3998,-1.4449,-1.5903,-1.6853,-1.7198,-1.6994,-1.7298,0.0,0.0,0.0,0.0,0.0,0.0,0.0,0.0,0.0,0.0,0.0,0.0,0.0,0.0,0.0,0.0,0.0,0.0,0.0,0.0,0.0,0.0,0.0,0.0,0.0,0.0,0.0,0.0,0.0,0.0,0.0,0.0,0.0,0.0,0.0,0.0,0.0,0.0,0.0,0.0,0.0,0.0,0.0,0.0,0.0,0.0,0.0,0.0,0.0,0.0,0.0,0.0,0.0,0.0,0.0,0.0,0.0,0.0,0.0,0.0,0.0,0.0,0.0,0.0,0.0,0.0,0.0,0.0,0.0,0.0,0.0,0.0,0.0,0.0,0.0,0.0,0.0,0.0,0.0,0.0,0.0,0.0,0.0,0.0,0.0,0.0,0.0,0.0,0.0,0.0,0.0,0.0,0.0,0.0,0.0,0.0,0.0,0.0,0.0,0.0,0.0,0.0,0.0,0.0,0.0,0.0,0.0,0.0,-1.5126,-1.5035,-1.6832,-1.8401,-1.9502,-1.8716,-1.8481,0.0,0.0,0.0,0.0,0.0,0.0,0.0,0.0,0.0,0.0,0.0,0.0,0.0,0.0,0.0,0.0,0.0,0.0,0.0,0.0,0.0,0.0,0.0,0.0,0.0,0.0,0.0,0.0,0.0,0.0,0.0,0.0,0.0,0.0,0.0,0.0,0.0,0.0,0.0,0.0,0.0,0.0,0.0,0.0,0.0,0.0,0.0,0.0,0.0,0.0,0.0,0.0,0.0,0.0,0.0,0.0,0.0,0.0,0.0,0.0,0.0,0.0,0.0,0.0,0.0,0.0,0.0,0.0,0.0,0.0,0.0,0.0,0.0,0.0,0.0,0.0,0.0,0.0,0.0,0.0,0.0,0.0,0.0,0.0,0.0,0.0,0.0,0.0,0.0,0.0,0.0,0.0,0.0,0.0,0.0,0.0,0.0,0.0,0.0,0.0,0.0,0.0,0.0,0.0,0.0,0.0,0.0,0.0,-1.5684,-1.5789,-1.7986,-1.9324,-1.9576,-1.9372,-2.0152,0.0,0.0,0.0,0.0,0.0,0.0,0.0,0.0,0.0,0.0,0.0,0.0,0.0,0.0,0.0,0.0,0.0,0.0,0.0,0.0,0.0,0.0,0.0,0.0,0.0,0.0,0.0,0.0,0.0,0.0,0.0,0.0,0.0,0.0,0.0,0.0,0.0,0.0,0.0,0.0,0.0,0.0,0.0,0.0,0.0,0.0,0.0,0.0,-2.859,0.0,0.0,0.0,0.0,0.0,0.0,0.0,0.0,0.0,0.0,0.0,0.0,0.0,0.0,0.0,0.0,0.0,0.0,0.0,0.0,0.0,0.0,0.0,0.0,0.0,0.0,0.0,0.0,0.0,0.0,0.0,0.0,0.0,0.0,0.0,0.0,0.0,0.0,0.0,0.0,0.0,0.0,0.0,0.0,0.0,0.0,0.0,0.0,0.0,0.0,0.0,0.0,0.0,0.0,0.0,0.0,0.0,0.0,0.0,-1.6723,-1.7351,-1.8803,-2.0238,-2.144,-2.1419,-2.1893,0.0,0.0,0.0,0.0,0.0,0.0,0.0,0.0,0.0,0.0,0.0,0.0,0.0,0.0,0.0,0.0,0.0,0.0,0.0,0.0,0.0,0.0,0.0,0.0,0.0,0.0,0.0,0.0,0.0,0.0,0.0,0.0,0.0,0.0,0.0,0.0,0.0,0.0,0.0,0.0,0.0,0.0,0.0,0.0,0.0,0.0,0.0,0.0,0.0,0.0,0.0,0.0,0.0,0.0,0.0,0.0,0.0,0.0,0.0,0.0,0.0,0.0,0.0,0.0,0.0,0.0,0.0,0.0,0.0,0.0,0.0,0.0,0.0,0.0,0.0,0.0,0.0,0.0,0.0,0.0,0.0,0.0,0.0,0.0,0.0,0.0,0.0,0.0,0.0,0.0,0.0,0.0,0.0,0.0,0.0,0.0,0.0,0.0,0.0,0.0,0.0,0.0,0.0,0.0,0.0,0.0,0.0,-1.7259,-1.8144,-1.9199,-1.988,-2.1347,-2.3633,-2.3791,-2.3718,-2.3567,0.0,0.0,0.0,0.0,0.0,0.0,0.0,0.0,0.0,0.0,0.0,0.0,0.0,0.0,0.0,0.0,0.0,0.0,0.0,0.0,0.0,0.0,0.0,0.0,0.0,0.0,0.0,0.0,0.0,0.0,0.0,0.0,0.0,0.0,0.0,0.0,0.0,0.0,-2.8441,-2.5017,0.0,0.0,0.0,0.0,0.0,0.0,0.0,0.0,-2.9894,0.0,0.0,0.0,0.0,0.0,0.0,0.0,0.0,0.0,0.0,0.0,0.0,0.0,0.0,0.0,0.0,0.0,0.0,0.0,0.0,0.0,0.0,0.0,0.0,0.0,0.0,0.0,0.0,0.0,0.0,0.0,0.0,0.0,0.0,0.0,0.0,0.0,0.0,0.0,0.0,0.0,0.0,0.0,0.0,0.0,0.0,0.0,0.0,0.0,0.0,0.0,0.0,0.0,0.0,0.0,0.0,-1.9176,-1.9323,-1.9993,-2.1216,-2.2432,-2.3235,-2.3723,-2.4957,-2.5477,-2.5137,0.0,0.0,0.0,0.0,0.0,0.0,0.0,0.0,0.0,0.0,0.0,0.0,0.0,0.0,0.0,0.0,0.0,0.0,0.0,0.0,0.0,0.0,0.0,0.0,0.0,0.0,0.0,0.0,0.0,0.0,0.0,0.0,0.0,0.0,0.0,0.0,0.0,0.0,0.0,-2.2684,-2.1037,0.0,0.0,0.0,0.0,0.0,0.0,0.0,0.0,-3.1548,0.0,0.0,0.0,0.0,0.0,0.0,0.0,0.0,0.0,0.0,0.0,0.0,0.0,0.0,0.0,0.0,0.0,0.0,0.0,0.0,0.0,0.0,0.0,0.0,0.0,0.0,0.0,0.0,0.0,0.0,0.0,0.0,0.0,0.0,0.0,0.0,0.0,0.0,0.0,0.0,0.0,0.0,0.0,0.0,0.0,0.0,0.0,0.0,0.0,0.0,0.0,0.0,0.0,0.0,0.0,-1.9904,-2.0303,-2.1212,-2.2715,-2.3384,-2.4325,-2.5673,-2.6098,-2.637,0.0,0.0,0.0,0.0,0.0,0.0,0.0,0.0,0.0,0.0,0.0,0.0,0.0,0.0,0.0,0.0,0.0,0.0,0.0,0.0,0.0,0.0,0.0,0.0,0.0,0.0,0.0,0.0,0.0,0.0,0.0,0.0,0.0,0.0,0.0,0.0,0.0,0.0,0.0,0.0,-2.2964,-2.2064,-2.1412,0.0,0.0,0.0,0.0,0.0,0.0,-3.1325,-3.2264,0.0,0.0,0.0,0.0,0.0,0.0,0.0,0.0,0.0,0.0,0.0,0.0,0.0,0.0,0.0,0.0,0.0,0.0,0.0,0.0,0.0,0.0,0.0,0.0,0.0,0.0,0.0,0.0,0.0,0.0,0.0,0.0,0.0,0.0,0.0,0.0,0.0,0.0,0.0,0.0,0.0,0.0,0.0,0.0,0.0,0.0,0.0,0.0,0.0,0.0,0.0,0.0,0.0,0.0,0.0,-2.0652,-2.1302,-2.253,-2.4359,-2.4464,-2.5586,-2.7851,-2.7158,-2.6988,0.0,0.0,0.0,0.0,0.0,0.0,0.0,0.0,0.0,0.0,0.0,0.0,0.0,0.0,0.0,0.0,0.0,0.0,0.0,0.0,0.0,0.0,0.0,0.0,0.0,0.0,0.0,0.0,0.0,0.0,0.0,0.0,0.0,0.0,0.0,0.0,0.0,0.0,0.0,0.0,0.0,-2.357,-2.3083,-2.5036,0.0,0.0,0.0,0.0,-3.1402,-3.249,0.0,0.0,0.0,0.0,0.0,0.0,0.0,0.0,0.0,0.0,0.0,0.0,0.0,0.0,0.0,0.0,0.0,0.0,0.0,0.0,0.0,0.0,0.0,0.0,0.0,0.0,0.0,0.0,0.0,0.0,0.0,0.0,0.0,0.0,0.0,0.0,0.0,0.0,0.0,0.0,0.0,0.0,0.0,0.0,0.0,0.0,0.0,0.0,0.0,0.0,0.0,0.0,0.0,0.0,0.0,0.0,-2.2514,-2.2994,-2.4477,-2.7022,-2.7152,-2.7793,-2.9109,-2.8336,-2.7676,0.0,0.0,0.0,0.0,0.0,0.0,0.0,0.0,0.0,0.0,0.0,0.0,0.0,0.0,0.0,0.0,0.0,0.0,0.0,0.0,0.0,0.0,0.0,0.0,0.0,0.0,0.0,0.0,0.0,0.0,0.0,0.0,0.0,0.0,0.0,0.0,0.0,0.0,0.0,0.0,0.0,-2.4494,-2.4097,-2.6586,-2.8714,0.0,0.0,-3.3812,-3.4236,-3.4669,0.0,0.0,0.0,0.0,0.0,0.0,0.0,0.0,0.0,0.0,0.0,0.0,0.0,0.0,0.0,0.0,0.0,0.0,0.0,0.0,0.0,0.0,0.0,0.0,0.0,0.0,0.0,0.0,0.0,0.0,0.0,0.0,0.0,0.0,0.0,0.0,0.0,0.0,0.0,0.0,0.0,0.0,0.0,0.0,0.0,0.0,0.0,0.0,0.0,0.0,0.0,0.0,0.0,0.0,0.0,-2.1948,-2.3212,-2.5049,-2.6525,-2.7584,-2.8272,-2.9055,-2.9933,-2.8986,-2.829,0.0,0.0,0.0,0.0,0.0,0.0,0.0,0.0,0.0,0.0,0.0,0.0,0.0,0.0,0.0,0.0,0.0,0.0,0.0,0.0,0.0,0.0,0.0,0.0,0.0,0.0,0.0,0.0,0.0,0.0,0.0,0.0,0.0,0.0,0.0,0.0,0.0,0.0,0.0,0.0,0.0,0.0,-2.7367,-2.9041,0.0,0.0,0.0,-3.4844,-3.5009,0.0,0.0,0.0,0.0,0.0,0.0,0.0,0.0,0.0,0.0,0.0,0.0,0.0,0.0,0.0,0.0,0.0,0.0,0.0,0.0,0.0,0.0,0.0,0.0,0.0,0.0,0.0,0.0,0.0,0.0,0.0,0.0,0.0,0.0,0.0,0.0,0.0,0.0,0.0,0.0,0.0,0.0,0.0,0.0,0.0,0.0,0.0,0.0,0.0,0.0,0.0,0.0,0.0,0.0,0.0,0.0,0.0,-2.405,-2.6594,-2.8099,-2.8509,-2.9372,-3.0163,-3.0795,-2.9743,0.0,0.0,0.0,0.0,0.0,0.0,0.0,0.0,0.0,0.0,0.0,0.0,0.0,0.0,0.0,0.0,0.0,0.0,0.0,0.0,0.0,0.0,0.0,0.0,0.0,0.0,0.0,-3.2122,0.0,0.0,0.0,0.0,0.0,0.0,0.0,0.0,0.0,0.0,0.0,0.0,0.0,0.0,-2.8394,-3.0187,-3.1568,-3.2891,0.0,0.0,-3.5853,-3.5702,-3.585,-3.5898,0.0,0.0,0.0,0.0,0.0,0.0,0.0,0.0,0.0,0.0,0.0,0.0,0.0,0.0,0.0,0.0,0.0,0.0,0.0,0.0,0.0,0.0,0.0,0.0,0.0,0.0,0.0,0.0,0.0,0.0,0.0,0.0,0.0,0.0,0.0,0.0,0.0,0.0,0.0,0.0,0.0,0.0,0.0,0.0,0.0,0.0,0.0,0.0,0.0,0.0,0.0,0.0,0.0,0.0,0.0,-2.5635,-2.7152,-2.8895,-3.0852,-3.1045,-3.138,-3.2047,-3.1051,-2.977,0.0,0.0,0.0,0.0,0.0,0.0,0.0,0.0,0.0,0.0,0.0,0.0,0.0,0.0,0.0,0.0,0.0,0.0,0.0,0.0,0.0,0.0,0.0,0.0,0.0,0.0,0.0,0.0,0.0,0.0,0.0,0.0,0.0,0.0,0.0,0.0,0.0,0.0,0.0,0.0,0.0,-3.0827,-3.1327,-3.4012,-3.5904,0.0,0.0,-3.7357,-3.71,-3.7061,-3.6865,-3.6119,0.0,0.0,0.0,0.0,0.0,0.0,0.0,0.0,0.0,0.0,0.0,0.0,0.0,0.0,0.0,0.0,0.0,0.0,0.0,0.0,0.0,0.0,0.0,0.0,0.0,0.0,0.0,0.0,0.0,0.0,0.0,0.0,0.0,0.0,0.0,0.0,0.0,0.0,0.0,0.0,0.0,0.0,0.0,0.0,0.0,0.0,0.0,0.0,0.0,0.0,0.0,0.0,0.0,-2.4989,-2.5942,-2.8648,-3.0421,-3.1175,-3.1965,-3.2178,-3.1725,-3.1105,-3.0075,0.0,0.0,0.0,0.0,0.0,0.0,0.0,0.0,0.0,0.0,0.0,0.0,0.0,0.0,0.0,0.0,0.0,0.0,0.0,0.0,0.0,0.0,0.0,0.0,0.0,0.0,0.0,0.0,-3.4419,-3.4493,-3.4006,0.0,0.0,0.0,0.0,0.0,0.0,0.0,0.0,0.0,0.0,-3.2627,-3.4734,-3.5474,0.0,0.0,-3.8351,-3.8553,-3.7957,-3.8645,-3.8863,-3.7856,-3.8072,0.0,0.0,0.0,0.0,0.0,0.0,0.0,0.0,0.0,0.0,0.0,0.0,0.0,0.0,0.0,0.0,0.0,0.0,0.0,0.0,0.0,0.0,0.0,0.0,0.0,0.0,0.0,0.0,0.0,0.0,0.0,0.0,0.0,0.0,0.0,0.0,0.0,0.0,0.0,0.0,0.0,0.0,0.0,0.0,0.0,0.0,0.0,0.0,0.0,0.0,0.0,0.0,-2.5953,-2.6625,-2.9621,-3.1187,-3.1269,-3.2116,-3.2268,-3.1591,-3.1341,-3.0716,0.0,0.0,0.0,0.0,0.0,0.0,0.0,0.0,0.0,0.0,0.0,0.0,0.0,0.0,0.0,0.0,0.0,0.0,0.0,0.0,0.0,0.0,0.0,0.0,0.0,0.0,0.0,0.0,-3.5172,-3.4883,-3.4302,0.0,0.0,0.0,0.0,0.0,0.0,0.0,0.0,0.0,0.0,-3.4607,-3.713,-3.7197,-3.7568,-3.9386,-3.9829,-3.9807,-3.9199,-3.9895,-4.0189,-3.9236,0.0,0.0,0.0,0.0,0.0,0.0,0.0,0.0,0.0,0.0,0.0,0.0,0.0,0.0,0.0,0.0,0.0,0.0,0.0,0.0,0.0,0.0,0.0,0.0,0.0,0.0,0.0,0.0,0.0,0.0,-2.0663,0.0,0.0,0.0,0.0,0.0,0.0,0.0,0.0,0.0,0.0,0.0,0.0,0.0,0.0,0.0,0.0,0.0,0.0,0.0,0.0,0.0,0.0,-2.6393,-2.8011,-2.974,-3.0869,-3.1383,-3.1436,-3.1631,-3.195,-3.1974,-3.1819,-3.149,0.0,0.0,0.0,0.0,0.0,0.0,0.0,0.0,0.0,0.0,0.0,0.0,0.0,0.0,0.0,0.0,0.0,0.0,0.0,0.0,0.0,0.0,0.0,0.0,0.0,0.0,-3.7236,-3.6172,-3.5385,0.0,0.0,0.0,0.0,0.0,0.0,0.0,0.0,0.0,0.0,-3.5289,-3.6923,-3.797,-3.9423,-4.049,-4.1132,-4.1227,-4.1111,-4.1003,-4.0773,-4.0396,0.0,0.0,0.0,0.0,0.0,0.0,0.0,0.0,0.0,0.0,0.0,0.0,0.0,0.0,0.0,0.0,0.0,0.0,0.0,0.0,0.0,0.0,0.0,0.0,0.0,0.0,0.0,-2.3923,-2.383,0.0,0.0,0.0,0.0,0.0,0.0,0.0,0.0,0.0,0.0,0.0,-2.8879,-3.0099,0.0,0.0,0.0,0.0,0.0,0.0,0.0,0.0,0.0,0.0,0.0,0.0,-2.6816,-2.8109,-2.9754,-3.0871,-3.1402,-3.1996,-3.2215,-3.2026,-3.2579,-3.2613,-3.1972,0.0,0.0,0.0,0.0,0.0,0.0,0.0,0.0,0.0,0.0,0.0,0.0,0.0,0.0,0.0,0.0,0.0,0.0,0.0,0.0,0.0,0.0,0.0,0.0,0.0,-3.7549,0.0,0.0,0.0,0.0,0.0,0.0,0.0,0.0,0.0,0.0,0.0,-3.4762,-3.6174,-3.7555,-3.8869,-4.0081,-4.064,-4.1257,0.0,0.0,0.0,0.0,0.0,0.0,0.0,0.0,0.0,0.0,0.0,0.0,0.0,0.0,-4.6995,-4.6142,-4.5978,-4.5843,-4.5409,0.0,0.0,0.0,0.0,0.0,0.0,0.0,0.0,0.0,0.0,0.0,0.0,0.0,0.0,-2.6047,0.0,-2.5481,0.0,0.0,0.0,0.0,0.0,0.0,0.0,0.0,-3.0535,-3.1951,-3.1958,-3.3148,-3.3825,0.0,-3.2264,-3.007,0.0,0.0,0.0,0.0,0.0,0.0,0.0,0.0,-2.7311,-2.8122,-2.9578,-3.064,-3.1315,-3.1928,-3.2384,-3.269,-3.3633,-3.3751,-3.2963,-3.3009,-3.2318,0.0,0.0,0.0,0.0,0.0,0.0,0.0,0.0,0.0,0.0,0.0,0.0,0.0,0.0,0.0,0.0,0.0,0.0,0.0,0.0,0.0,0.0,0.0,-3.8078,0.0,0.0,0.0,0.0,0.0,0.0,0.0,0.0,0.0,-3.6592,-3.6728,-3.7543,-3.9169,-4.0234,-4.1073,-4.1703,0.0,0.0,0.0,0.0,0.0,0.0,0.0,-4.6353,-4.5486,-4.5804,-4.6347,-4.7046,-4.8133,-4.897,-4.8955,0.0,0.0,-4.8237,-4.7982,-4.7863,-4.7429,-4.7683,-4.7863,-4.7429,-4.7683,-4.7982,0.0,0.0,0.0,0.0,0.0,0.0,0.0,0.0,-2.8369,-2.8402,0.0,-2.7947,0.0,0.0,0.0,0.0,0.0,0.0,0.0,0.0,-3.3579,-3.4955,-3.5465,-3.559,-3.6,-3.662,-3.5458,-3.4176,-3.259,-2.7707,0.0,0.0,0.0,0.0,0.0,0.0,-2.7809,-2.8233,-2.9315,-3.0317,-3.1244,-3.1304,-3.2177,-3.3973,-3.4968,-3.5158,-3.4547,-3.4487,-3.3903,-3.2632,-3.2119,0.0,0.0,0.0,0.0,0.0,0.0,0.0,0.0,0.0,0.0,0.0,0.0,0.0,0.0,0.0,0.0,0.0,0.0,0.0,0.0,-3.8887,0.0,0.0,0.0,0.0,0.0,0.0,0.0,0.0,0.0,0.0,-4.0249,-4.0154,-4.0815,-4.2345,0.0,0.0,0.0,0.0,-4.4523,-4.4815,-4.5976,-4.682,-4.6712,-4.7377,-4.7792,-4.7415,0.0,0.0,-4.9224,-4.9823,-5.0196,-5.0211,-5.0689,-5.0825,-4.9599,-4.9374,-4.9359,-4.9344,-4.9359,-4.9374,-4.9359,-4.9299,-4.9359,-3.0247,0.0,0.0,0.0,0.0,-2.9135,-2.9476,-2.9921,-3.0109,-3.0058,-2.9891,-2.991,0.0,0.0,0.0,0.0,0.0,0.0,-3.1488,-3.2223,-3.451,-3.5952,-3.6606,-3.7732,-3.8381,-3.8561,-3.7128,-3.5781,-3.4544,-3.1596,-2.932,-2.7688,0.0,0.0,0.0,0.0,-2.8666,-2.9728,-3.0431,-3.1254,-3.2164,-3.2841,-3.3788,-3.5019,-3.5359,-3.5415,-3.5205,-3.5205,-3.4816,-3.3994,-3.3427,0.0,0.0,0.0,0.0,0.0,0.0,0.0,0.0,0.0,0.0,0.0,0.0,0.0,0.0,0.0,0.0,0.0,0.0,0.0,-3.8644,-3.9034,-3.9235,0.0,0.0,0.0,0.0,0.0,0.0,0.0,0.0,0.0,-4.5877,-4.4291,-4.3402,0.0,0.0,-4.5553,-4.5579,-4.6268,-4.6925,-4.7342,0.0,0.0,0.0,-4.8716,-4.888,-4.873,-4.9254,-4.9748,-4.9927,-5.0511,-5.0883,-5.0898,-5.1094,-5.1079,-5.0765,-5.0646,-5.0646,-5.0646,-5.0646,-5.0661,-5.0661,-5.0661,-5.0646,-3.1989,-3.106,-3.062,-3.0432,-3.0471,-3.0513,-3.0899,-3.1482,-3.1588,-3.1695,-3.1752,-3.1646,-3.096,-2.9908,-3.0188,0.0,0.0,0.0,-3.2923,-3.4213,-3.5944,-3.7155,-3.7989,-3.8962,-3.9388,-3.9358,-3.842,-3.7379,-3.6318,-3.4468,-3.2617,-3.0644,0.0,0.0,-2.7954,-2.881,-2.9647,-3.0398,-3.1279,-3.2213,-3.3136,-3.4109,-3.4872,-3.5457,-3.5489,-3.5489,-3.5489,-3.5489,-3.5325,-3.4906,-3.4373,-3.362,0.0,0.0,0.0,0.0,0.0,0.0,0.0,0.0,0.0,0.0,0.0,-3.6214,-3.6495,0.0,0.0,0.0,-3.8296,-3.911,-4.0222,-4.0984,0.0,0.0,0.0,0.0,0.0,0.0,0.0,-4.6034,-4.6431,-4.7199,-4.87,-4.7711,-4.6803,-4.6825,-4.7281,-4.7509,-4.731,0.0,-4.8479,-4.8645,-4.9098,-4.9446,-4.9658,-4.9883,-5.0047,-5.0032,-5.0361,-5.0569,-5.0599,-5.0913,-5.1214,-5.1229,-5.1229,-5.1229,-5.1229,-5.1229,-5.1229,-5.1229,-5.1229,-5.1229,-5.1229,-5.1229,-5.1229,-3.3124,-3.3023,-3.1951,-3.1524,-3.1524,-3.1524,-3.2028,-3.2804,-3.2817,-3.3106,-3.3534,-3.3092,-3.2619,-3.2117,-3.1313,0.0,0.0,-3.3317,-3.4741,-3.6773,-3.7465,-3.836,-3.9373,-3.9388,-3.9388,-3.9388,-3.9388,-3.8855,-3.7748,-3.6471,-3.5281,-3.406,-3.1124,-2.9323,-2.8777,-2.9997,-3.0641,-3.0694,-3.2025,-3.3136,-3.4095,-3.5019,-3.5489,-3.5489,-3.5459,-3.5415,-3.5429,-3.5415,-3.5429,-3.54,-3.5003,-3.4592,-3.418,0.0,0.0,0.0,0.0,0.0,0.0,0.0,0.0,0.0,0.0,0.0,0.0,0.0,0.0,0.0,-4.0448,0.0,-4.2693,-4.4124,0.0,0.0,0.0,-4.7326,-4.7201,-4.7807,-4.8224,-4.8119,0.0,0.0,-4.9577,0.0,-5.032,-4.9707,-4.9633,-4.932,-4.8529,-4.9024,-4.9357,-4.9197,-4.9786,-5.0255,-5.0285,-5.075,-5.1094,-5.1094,-5.1229,-5.1184,-5.1184,-5.1199,-5.1229,-5.1229,-5.1229,-5.1229,-5.1229,-5.1229,-5.1229,-5.1229,-5.1229,-5.1229,-5.1229,-5.1229,-5.1229,-3.3124,-3.3099,-3.2792,-3.2667,-3.2722,-3.2679,-3.2836,-3.3035,-3.3022,-3.2864,-3.2608,-3.3193,-3.358,-3.3696,-3.2759,-3.2712,-3.3476,-3.4409,-3.5399,-3.6367,-3.7348,-3.8345,-3.9388,-3.9388,-3.9388,-3.9388,-3.9388,-3.887,-3.7814,-3.7481,-3.6315,-3.4444,-3.3775,-3.2627,-3.1071,-3.1044,-3.1617,-3.2758,-3.3282,-3.4036,-3.51,-3.5392,-3.5489,-3.5489,-3.4996,-3.4743,-3.4726,-3.4711,-3.4758,-3.4758,-3.5102,-3.5216,-3.4939,-3.4286,0.0,0.0,0.0,0.0,0.0,0.0,0.0,0.0,0.0,-3.8785,-3.9521,0.0,-4.1534,0.0,-4.2334,-4.3459,-4.5005,-4.6487,0.0,0.0,-4.9736,-5.0344,-5.0002,-5.0235,-5.0314,-5.002,-5.0346,-5.067,-5.0788,-5.0905,-5.0949,-5.0817,-5.0606,-5.0449,-5.0189,-5.0488,-5.0719,-5.067,-5.0792,-5.0943,-5.0975,-5.1094,-5.1229,-5.1229,-5.1229,-5.1229,-5.1229,-5.1229,-5.1229,-5.1229,-5.1229,-5.1229,-5.1229,-5.1229,-5.1229,-5.1229,-5.1229,-5.1229,-5.1229,-5.1229,-5.1229,-3.3124,-3.3124,-3.3124,-3.3124,-3.3124,-3.3124,-3.3124,-3.3124,-3.3124,-3.2935,-3.2634,-3.3197,-3.3541,-3.3713,-3.3201,-3.3137,-3.3517,-3.454,-3.5435,-3.6237,-3.7305,-3.8397,-3.9388,-3.9388,-3.9388,-3.9388,-3.9388,-3.9104,-3.8509,-3.8032,-3.7187,-3.5989,-3.5377,-3.4517,-3.3403,-3.2853,-3.2947,-3.3659,-3.4254,-3.4868,-3.5472,-3.5489,-3.5489,-3.5489,-3.5145,-3.4936,-3.4936,-3.4936,-3.4936,-3.4936,-3.5456,-3.5691,-3.5647,-3.5322,-3.498,0.0,0.0,0.0,0.0,0.0,0.0,0.0,0.0,0.0,0.0,0.0,-4.3544,0.0,-4.5152,-4.6277,-4.7393,-4.9093,-5.041,-5.1065,-5.2636,-5.3419,-5.2824,-5.2761,-5.2426,-5.1678,-5.1377,-5.1229,-5.1229,-5.1229,-5.1229,-5.1229,-5.1103,-5.0962,-5.0979,-5.112,-5.1229,-5.1229,-5.1229,-5.1229,-5.1229,-5.1229,-5.1229,-5.1229,-5.1229,-5.1229,-5.1229,-5.1229,-5.1229,-5.1229,-5.1229,-5.1229,-5.1229,-5.1229,-5.1229,-5.1229,-5.1229,-5.1229,-5.1229,-5.1229,-5.1229,-3.3124,-3.3124,-3.3124,-3.3124,-3.3124,-3.3124,-3.3124,-3.3124,-3.3124,-3.3124,-3.3124,-3.3124,-3.3124,-3.3124,-3.3124,-3.3124,-3.3167,-3.4345,-3.5359,-3.6237,-3.7458,-3.8509,-3.9388,-3.9388,-3.9388,-3.9388,-3.9388,-3.9388,-3.9388,-3.8457,-3.7956,-3.7814,-3.6499,-3.5704,-3.5399,-3.4932,-3.4447,-3.4002,-3.5001,-3.5489,-3.5489,-3.5489,-3.5489,-3.5489,-3.5415,-3.5385,-3.5385,-3.537,-3.5385,-3.5402,-3.5859,-3.6261,-3.6566,-3.6517,-3.6636,0.0,-3.6447,0.0,0.0,0.0,0.0,0.0,0.0,0.0,0.0,-4.4536,-4.5691,-4.6847,-4.8346,-4.9396,-4.9741,-5.1729,-5.3049,-5.3291,-5.5137,-5.612,-5.5353,-5.4859,-5.4168,-5.3033,-5.1896,-5.1229,-5.1229,-5.1229,-5.1229,-5.1229,-5.1182,-5.1122,-5.1048,-5.1107,-5.1229,-5.1229,-5.1229,-5.1229,-5.1229,-5.1229,-5.1229,-5.1229,-5.1229,-5.1229,-5.1229,-5.1229,-5.1229,-5.1229,-5.1229,-5.1229,-5.1229,-5.1229,-5.1229,-5.1229,-5.1229,-5.1229,-5.1229,-5.1229,-5.1229,-3.3124,-3.3124,-3.3124,-3.3124,-3.3124,-3.3124,-3.3124,-3.3124,-3.3124,-3.3124,-3.3124,-3.3124,-3.3124,-3.3124,-3.3124,-3.3124,-3.3197,-3.5075,-3.6013,-3.629,-3.8219,-3.9192,-3.9388,-3.9388,-3.9388,-3.9388,-3.9388,-3.9388,-3.9388,-3.9192,-3.8833,-3.8389,-3.8243,-3.7455,-3.6201,0.0,0.0,0.0,-3.5326,-3.5489,-3.5489,-3.5489,-3.5489,-3.5489,-3.4951,0.0,-3.4698,-3.4698,-3.473,-3.4871,-3.609,0.0,0.0,0.0,0.0,0.0,0.0,0.0,0.0,0.0,0.0,0.0,-4.3972,-4.4062,-4.4429,-4.6701,-4.8528,-4.9376,-5.0779,-5.1659,-5.1763,-5.377,-5.5137,-5.5256,-5.6607,-5.7171,-5.6123,-5.515,-5.4168,-5.3033,-5.1896,-5.1229,-5.1229,-5.1229,-5.1214,-5.1184,-5.1214,-5.1005,-5.0435,-5.0838,-5.1214,-5.1229,-5.1169,-5.1199,-5.1229,-5.1214,-5.1229,-5.1229,-5.1229,-5.1229,-5.1229,-5.1229,-5.1229,-5.1229,-5.1229,-5.1229,-5.1229,-5.1229,-5.1229,-5.1229,-5.1229,-5.1229,-5.1229,-5.1229,-5.1229,-3.3124,0.0,-3.3124,-3.3124,0.0,-3.3124,-3.3124,-3.3124,-3.3124,-3.3124,-3.3124,-3.3124,-3.3124,-3.3124,-3.3124,-3.3124,-3.321,-3.4733,-3.5748,-3.629,-3.7852,-3.8892,-3.9388,-3.9388,-3.9388,-3.9373,-3.908,-3.8916,-3.8901,-3.8586,-3.8409,-3.847,-3.8201,-3.7677,-3.6866,-3.6384,-3.5882,-3.5374,-3.5472,-3.5489,-3.5489,-3.5489,-3.5489,-3.5489,0.0,0.0,0.0,0.0,0.0,0.0,0.0,0.0,0.0,0.0,0.0,-4.1506,-4.1321,-4.1508,-4.2236,-4.226,-4.3115,-4.4993,-4.5805,-4.6227,-4.6227,-4.8612,-5.0236,-5.0625,-5.2012,-5.2892,-5.2942,-5.4279,-5.531,-5.57,-5.6697,-5.7023,-5.6255,-5.5231,-5.4168,-5.3033,-5.1896,-5.1229,-5.1229,-5.0915,-5.0689,-5.0659,-5.0436,-5.0152,-4.9927,-5.0616,-5.1124,-5.0749,-5.0689,-5.0689,-5.0719,-5.105,-5.1214,-5.1229,-5.1229,-5.1229,-5.1229,-5.1229,-5.1229,-5.1229,-5.1229,-5.1229,-5.1229,-5.1229,-5.1229,-5.1229,-5.1229,-5.1229,-5.1229,-5.1229,-5.1229,-3.3124,-3.3124,-3.3124,-3.3124,-3.3124,-3.3124,-3.3124,-3.3124,0.0,0.0,0.0,-3.3124,-3.3124,-3.3124,-3.3124,-3.3124,-3.321,-3.4387,-3.54,-3.6237,-3.7496,-3.8546,-3.9388,-3.9388,-3.9388,-3.9343,-3.8721,-3.8377,-3.8362,-3.7734,-3.7689,-3.8138,-3.7778,-3.7524,-3.7345,-3.6148,-3.5489,-3.5489,-3.5489,-3.5489,-3.5489,-3.5489,-3.5564,-3.5669,-3.5684,-3.5983,-3.666,-3.6656,-3.6929,-3.7443,-3.8671,-3.9503,-3.9817,-4.1245,-4.2167,-4.2383,-4.2584,-4.298,-4.3572,-4.3623,-4.4282,-4.5788,-4.7229,-4.8156,-4.8274,-5.0101,-5.1236,-5.1371,-5.2689,-5.3501,-5.3518,-5.4143,-5.4837,-5.548,-5.6173,-5.6401,-5.5859,-5.5005,-5.3899,-5.2707,-5.1592,-5.0975,-5.0825,-5.0391,-5.0016,-5.0002,-4.9673,-4.9299,-4.9434,-5.0137,-5.0571,-5.0167,-5.0062,-5.0046,-5.024,-5.0599,-5.105,-5.1199,-5.1229,-5.1229,-5.1229,-5.1229,-5.1229,-5.1229,-5.1229,-5.1229,-5.1229,-5.1229,-5.1229,-5.1229,-5.1229,-5.1229,-5.1229,-5.1229,-5.1229,-3.3124,-3.3124,-3.3124,-3.3124,-3.3124,-3.3124,-3.3124,-3.3124,-3.3124,-3.3124,-3.3124,-3.3124,-3.3124,-3.3124,-3.3124,-3.3124,-3.324,-3.5102,-3.6079,0.0,-3.8242,-3.9265,-3.9388,-3.9388,-3.9388,-3.9343,-3.8721,-3.8377,-3.8317,-3.7719,-3.7464,-3.7599,-3.8018,-3.7958,-3.7345,-3.6133,-3.5489,-3.5489,-3.5489,-3.5489,-3.5489,-3.5489,-3.5789,-3.6327,-3.6342,-3.6641,-3.7255,-3.727,-3.7383,-3.7673,-3.9265,-4.0388,-4.0985,-4.2564,-4.3747,-4.4181,-4.4248,-4.4327,-4.4429,-4.4462,-4.506,-4.6532,-4.802,-4.912,-4.9746,-5.0659,-5.1471,-5.2097,-5.2959,-5.3518,-5.3551,-5.4143,-5.4617,-5.4786,-5.5429,-5.5461,-5.4533,-5.3961,-5.3032,-5.139,-5.0681,-5.0152,-4.9733,-4.9494,-4.9404,-4.9434,-4.9239,-4.9239,-4.9209,-4.9449,-4.9494,-4.9434,-4.9404,-4.9643,-4.9927,-5.024,-5.0569,-5.1092,-5.1199,-5.1229,-5.1229,-5.1229,-5.1229,-5.1229,-5.1229,-5.1229,-5.1229,-5.1229,-5.1184,-5.1169,-5.1139,-5.1154,-5.1154,-5.1184,-5.1214,-3.3124,-3.3124,-3.3124,-3.3124,-3.3124,-3.3124,-3.3124,-3.3124,-3.3124,-3.3124,-3.3124,-3.3124,-3.3124,-3.3124,-3.3124,-3.3124,-3.3167,-3.4108,-3.5102,-3.6237,-3.7214,-3.8294,-3.9352,-3.9388,-3.9388,-3.9328,-3.8347,-3.7853,-3.7778,-3.6866,-3.6552,-3.6896,-3.721,-3.7015,-3.6372,-3.5804,-3.5489,-3.5489,-3.5489,-3.5489,-3.5489,-3.5489,-3.5804,-3.6462,-3.6492,-3.6956,-3.7913,-3.7943,-3.8157,-3.8617,-3.9816,-4.0856,-4.1628,-4.2839,-4.3835,-4.4542,-4.4598,-4.4598,-4.4598,-4.5359,-4.6058,-4.6769,-4.8156,-4.912,-4.9458,-5.0557,-5.1352,-5.1725,-5.279,-5.3518,-5.3518,-5.3805,-5.416,-5.4549,-5.4921,-5.4575,-5.3465,-5.3093,-5.2191,-5.0419,-4.9839,-4.9583,-4.9359,-4.9,-4.879,-4.8745,-4.8491,-4.8222,-4.8237,-4.8222,-4.8341,-4.87,-4.879,-4.8835,-4.9164,-4.9777,-5.0255,-5.0614,-5.0943,-5.1184,-5.1229,-5.1214,-5.1199,-5.1229,-5.1214,-5.1229,-5.1214,-5.1229,-5.1079,-5.0674,-5.0644,-5.0644,-5.0674,-5.0898,-5.1214,-3.3124,-3.3124,-3.3124,-3.3124,-3.3124,-3.3124,-3.3124,-3.3124,-3.3124,-3.3124,-3.3124,-3.3124,-3.3124,-3.3124,-3.3124,-3.3124,-3.3111,-3.3356,-3.4457,-3.6119,-3.6448,-3.7572,-3.925,-3.9388,-3.9313,-3.911,-3.8108,-3.7479,-3.7105,-3.6193,-3.5983,-3.6417,-3.6342,-3.6088,-3.5729,-3.5579,-3.5489,-3.5504,-3.5654,-3.5729,-3.5729,-3.5729,-3.6103,-3.6851,-3.6926,-3.7464,-3.8527,-3.8616,-3.8856,-3.94,-4.0413,-4.1313,-4.1997,-4.3,-4.3902,-4.4497,-4.4598,-4.4598,-4.4682,-4.5957,-4.6786,-4.6819,-4.8156,-4.9018,-4.9103,-5.0185,-5.1048,-5.1286,-5.2435,-5.3281,-5.3467,-5.3518,-5.3737,-5.4279,-5.4346,-5.3661,-5.2333,-5.2181,-5.1379,-4.9352,-4.8985,-4.9045,-4.879,-4.8386,-4.8087,-4.7997,-4.7608,-4.7339,-4.7309,-4.7309,-4.7534,-4.7863,-4.8057,-4.8177,-4.8282,-4.906,-4.9733,-4.9912,-5.039,-5.0599,-5.0644,-5.0705,-5.084,-5.0825,-5.081,-5.078,-5.0853,-5.081,-5.0541,-5.0122,-5.0032,-5.0017,-5.0032,-5.048,-5.1035,-3.3124,-3.3124,-3.3124,-3.3124,-3.3124,-3.3124,-3.3124,-3.3124,-3.3124,-3.3124,-3.3124,-3.3124,-3.3124,-3.3124,-3.3124,-3.3124,-3.3154,-3.4108,-3.5088,-3.6158,-3.7228,-3.8271,-3.9301,-3.9388,-3.908,-3.8586,-3.8347,-3.7719,-3.6761,-3.6477,-3.6432,-3.645,-3.5893,-3.5908,-3.6267,-3.5818,-3.5519,-3.5519,-3.6103,-3.6402,-3.6402,-3.6402,-3.7004,-3.8167,-3.8197,-3.8556,-3.9209,-3.9284,-3.9349,-3.9502,-4.0961,-4.1901,-4.2157,-4.3562,-4.4485,-4.4587,-4.4598,-4.4598,-4.4699,-4.594,-4.6786,-4.6887,-4.8156,-4.9018,-4.9035,-4.9729,-5.049,-5.1133,-5.1944,-5.2756,-5.3382,-5.3484,-5.3518,-5.35,-5.3568,-5.2812,-5.1117,-5.1126,-5.0488,-4.7779,-4.8072,-4.8162,-4.7728,-4.7549,-4.7459,-4.7504,-4.7399,-4.7309,-4.7309,-4.7309,-4.7309,-4.7414,-4.7414,-4.7683,-4.8102,-4.8341,-4.882,-4.9269,-4.9417,-4.9596,-4.9703,-4.9689,-4.9629,-5.0182,-4.9927,-4.9823,-5.0017,-4.9912,-4.9569,-4.9479,-4.9404,-4.9449,-4.9464,-4.9959,-5.0513,-3.3124,-3.3124,-3.3124,-3.3124,-3.3124,-3.3124,-3.3124,-3.3124,-3.3124,-3.3124,-3.3124,-3.3124,-3.3124,-3.3124,-3.3124,-3.3124,-3.3167,-3.3543,-3.4345,-3.5359,-3.6383,-3.7405,-3.842,-3.9156,-3.926,-3.8975,-3.8601,-3.8123,-3.7584,-3.6866,-3.6492,-3.6417,-3.5833,-3.6013,-3.6896,-3.6402,-3.6252,-3.6626,-3.6896,-3.721,-3.7558,-3.7225,-3.7464,-3.8272,-3.8377,-3.8706,-3.9298,-3.9388,-3.9388,-3.9481,-4.0569,-4.1478,-4.1997,-4.3152,-4.4064,-4.4542,-4.4598,-4.4598,-4.4615,-4.5986,-4.6786,-4.6786,-4.8156,-4.9001,-4.9018,-4.9289,-4.9746,-5.0541,-5.1589,-5.2452,-5.279,-5.3213,-5.3264,-5.2714,-5.254,-5.174,-4.9734,-4.9707,-4.912,-4.7583,-4.7534,-4.7638,-4.7384,-4.7309,-4.7309,-4.7309,-4.7309,-4.7309,-4.7309,-4.7309,-4.7309,-4.7309,-4.7309,-4.7399,-4.7713,-4.8072,-4.8356,-4.8671,-4.9045,-4.9284,-4.9224,-4.9299,-4.9404,-4.9613,-4.9344,-4.9254,-4.9598,-4.9479,-4.9239,-4.8999,-4.9272,-4.943,-4.8848,-4.9685,-5.0348,-3.3124,-3.3124,-3.3124,-3.3124,-3.3124,-3.3124,-3.3124,-3.3124,-3.3124,-3.3124,-3.3124,-3.3124,-3.3124,-3.3124,-3.3124,-3.3124,-3.3124,-3.3124,-3.3827,-3.5088,-3.5854,-3.6916,-3.8234,-3.898,-3.932,-3.9125,-3.8841,-3.8586,-3.8302,-3.73,-3.6746,-3.6656,-3.6252,-3.6492,-3.727,-3.6941,-3.6956,-3.7375,-3.7569,-3.7913,-3.8272,-3.8108,-3.8182,-3.8616,-3.8661,-3.8916,-3.9358,-3.9388,-3.9502,-3.9773,-4.0603,-4.1429,-4.2316,-4.3169,-4.3948,-4.4514,-4.4598,-4.4598,-4.4615,-4.5788,-4.6498,-4.6616,-4.7868,-4.8714,-4.8748,-4.8883,-4.9221,-4.9779,-5.0947,-5.1758,-5.235,-5.2824,-5.2756,-5.2032,-5.1902,-5.1064,-4.9191,-4.8784,-4.846,-4.7495,-4.7339,-4.7309,-4.7309,-4.7309,-4.7309,-4.7309,-4.7309,-4.7309,-4.7309,-4.7309,-4.7309,-4.7309,-4.7309,-4.7309,-4.7339,-4.7638,-4.7982,-4.8102,-4.8416,-4.8611,-4.876,-4.8745,-4.894,-4.8835,-4.882,-4.8835,-4.8895,-4.888,-4.8804,-4.8383,-4.8663,-4.9017,-4.8173,-4.9281,-4.9524,-3.3124,-3.3124,-3.3124,-3.3124,-3.3124,-3.3124,-3.3124,-3.3124,-3.3124,-3.3124,-3.3124,-3.3124,-3.3124,-3.3124,-3.3124,-3.3124,-3.3124,-3.3124,-3.4066,-3.5734,-3.6119,-3.7329,-3.9265,-3.9373,-3.908,-3.8616,-3.9065,-3.896,-3.8332,-3.7659,-3.736,-3.733,-3.7195,-3.7315,-3.7509,-3.7434,-3.7389,-3.7599,-3.8078,-3.8377,-3.8482,-3.899,-3.9224,-3.9284,-3.9364,-3.9328,-3.9388,-3.9388,-3.9773,-4.0588,-4.1412,-4.2284,-4.3169,-4.4018,-4.4514,-4.4598,-4.4598,-4.4598,-4.4682,-4.5365,-4.5805,-4.5974,-4.7208,-4.7973,-4.8075,-4.8646,-4.9035,-4.9086,-4.983,-5.076,-5.1827,-5.2049,-5.2049,-5.1684,-5.1711,-5.0736,-4.8988,-4.8636,-4.8335,-4.7538,-4.7309,-4.7309,-4.7309,-4.7309,-4.7309,-4.7309,-4.7309,-4.7309,-4.7309,-4.7309,-4.7309,-4.7309,-4.7309,-4.7309,-4.7309,-4.7429,-4.7444,-4.7534,-4.7668,-4.7549,-4.7429,-4.7459,-4.7833,-4.8012,-4.7878,-4.7893,-4.8087,-4.807,-4.7944,-4.7817,-4.8004,-4.8046,-4.8404,-4.8243,-4.8626,-3.3124,-3.3124,-3.3124,-3.3124,-3.3124,-3.3124,-3.3124,-3.3124,-3.3124,-3.3124,-3.3124,-3.3124,-3.3124,-3.3124,-3.3124,-3.3124,-3.3124,-3.3124,-3.3513,-3.4374,-3.5574,-3.6604,-3.7405,-3.8694,-3.905,-3.8571,-3.908,-3.8841,-3.7793,-3.712,-3.703,-3.727,-3.7015,-3.7404,-3.8377,-3.8242,-3.8242,-3.8661,-3.8945,-3.905,-3.9035,-3.929,-3.9388,-3.9388,-3.9388,-3.9388,-3.9388,-3.9388,-3.9793,-4.0656,-4.1543,-4.2379,-4.3259,-4.4121,-4.4598,-4.4598,-4.4598,-4.4598,-4.4682,-4.528,-4.5703,-4.5805,-4.7073,-4.7855,-4.8024,-4.8562,-4.9018,-4.9069,-4.9187,-4.9683,-4.9917,-5.0409,-5.03,-4.9457,-4.9288,-4.9024,-4.8144,-4.7834,-4.7694,-4.7381,-4.7309,-4.7309,-4.7309,-4.7309,-4.7309,-4.7309,-4.7309,-4.7309,-4.7309,-4.7309,-4.7309,-4.7309,-4.7309,-4.7309,-4.7309,-4.7309,-4.7324,-4.7324,-4.7354,-4.7384,-4.7324,-4.7324,-4.7623,-4.7712,-4.7427,-4.7855,-4.8387,-4.8691,-4.8392,-4.8897,-4.8963,-4.8815,-4.9271,-4.9402,-4.9518,-3.3124,-3.3124,-3.3124,-3.3124,-3.3124,-3.3124,-3.3124,-3.3124,-3.3124,-3.3124,-3.3124,-3.3124,-3.3124,-3.3124,-3.3124,-3.3124,-3.3124,-3.3124,-3.3428,-3.4178,-3.5588,-3.6551,-3.7405,-3.8745,-3.9149,-3.8796,-3.8931,-3.8586,-3.7793,-3.7315,-3.7345,-3.7674,-3.7479,-3.8063,-3.9104,-3.8945,-3.8975,-3.9328,-3.9388,-3.9373,-3.9388,-3.9388,-3.9388,-3.9388,-3.9388,-3.9388,-3.9388,-3.9388,-3.9793,-4.0656,-4.1543,-4.252,-4.3621,-4.4298,-4.4598,-4.4598,-4.4598,-4.4598,-4.4649,-4.506,-4.5348,-4.5382,-4.6447,-4.7246,-4.7547,-4.8223,-4.868,-4.8886,-4.8688,-4.84,-4.8043,-4.8078,-4.799,-4.7544,-4.7665,-4.7574,-4.7076,-4.7218,-4.7322,-4.7309,-4.7309,-4.7309,-4.7309,-4.7309,-4.7309,-4.7309,-4.7309,-4.7309,-4.7309,-4.7309,-4.7309,-4.7309,-4.7309,-4.7309,-4.7309,-4.7294,-4.7279,-4.7279,-4.7309,-4.7309,-4.7279,-4.7294,-4.7249,-4.7307,-4.7706,-4.8293,-4.88,-4.9191,-4.9734,-5.032,-5.0126,-4.9773,-5.0242,-5.0687,-5.0339,-3.3124,-3.3124,-3.3124,-3.3124,-3.3124,-3.3124,-3.3124,-3.3124,-3.3124,-3.3124,-3.3124,-3.3124,-3.3124,-3.3124,-3.3124,-3.3124,-3.3124,-3.324,-3.4098,-3.5613,-3.6065,-3.721,-3.8855,-3.9199,-3.9373,-3.926,-3.8646,-3.8362,-3.8302,-3.8093,-3.8093,-3.8422,-3.8826,-3.9029,-3.9388,-3.9313,-3.9328,-3.9388,-3.9388,-3.9388,-3.9388,-3.9388,-3.9388,-3.9388,-3.9388,-3.9388,-3.9388,-3.9388,-3.9829,-4.0758,-4.156,-4.2816,-4.4224,-4.457,-4.4598,-4.4598,-4.4598,-4.4598,-4.4598,-4.4649,-4.4733,-4.4835,-4.5382,-4.6181,-4.6756,-4.743,-4.8121,-4.8584,-4.8143,-4.7357,-4.6467,-4.5883,-4.5775,-4.6649,-4.7091,-4.6987,-4.668,-4.6935,-4.7309,-4.7309,-4.7309,-4.7309,-4.7309,-4.7309,-4.7309,-4.7309,-4.7309,-4.7309,-4.7309,-4.7309,-4.7309,-4.7249,-4.7249,-4.7279,-4.7279,-4.7279,-4.7264,-4.7249,-4.7294,-4.7309,-4.7234,-4.7204,-4.7025,-4.7109,-4.8163,-4.8798,-5.0048,-5.0435,-5.0589,-5.0968,-5.0741,-5.0655,-5.0953,-5.1112,-5.0397,-3.3124,-3.3124,-3.3124,-3.3124,-3.3124,-3.3124,-3.3124,-3.3124,-3.3124,-3.3124,-3.3124,-3.3124,-3.3124,-3.3124,-3.3124,-3.3111,-3.3167,-3.3814,-3.4342,-3.4661,-3.5702,-3.6701,-3.7718,-3.8831,-3.9388,-3.9104,-3.7808,-3.7569,-3.8078,-3.7524,-3.7479,-3.8272,-3.8601,-3.896,-3.9373,-3.9388,-3.9388,-3.9388,-3.9388,-3.9388,-3.9388,-3.9388,-3.9388,-3.9388,-3.9388,-3.9388,-3.9388,-3.9388,-4.013,-4.1445,-4.1869,-4.28,-4.4207,-4.4598,-4.4598,-4.4598,-4.4598,-4.4598,-4.4598,-4.4598,-4.4598,-4.4705,-4.5263,-4.5652,-4.5898,-4.647,-4.7201,-4.7865,-4.7721,-4.721,-4.636,-4.5987,-4.5609,-4.5156,-4.5257,-4.5802,-4.6241,-4.6845,-4.7249,-4.7309,-4.7309,-4.7309,-4.7294,-4.7264,-4.7189,-4.7191,-4.7191,-4.7219,-4.7249,-4.716,-4.707,-4.677,-4.695,-4.6995,-4.6756,-4.6621,-4.6606,-4.6681,-4.6815,-4.6875,-4.689,-4.683,-4.6681,-4.7345,-4.8393,-4.9505,-5.0767,-5.1341,-5.1372,-5.1536,-5.1427,-5.1456,-5.1586,-5.1192,-5.051,-3.3124,-3.3124,-3.3124,-3.3124,-3.3124,-3.3124,-3.3124,-3.3124,-3.3124,-3.3124,-3.3124,-3.3124,-3.3124,-3.3074,-3.2855,-3.2754,-3.2844,-3.3658,-3.3847,-3.3935,-3.5574,-3.6603,-3.7106,-3.8089,-3.8676,-3.8437,-3.7195,-3.6896,-3.7614,-3.7165,-3.724,-3.7928,-3.8512,-3.8975,-3.9358,-3.9388,-3.9388,-3.9388,-3.9388,-3.9388,-3.9388,-3.9388,-3.9388,-3.9388,-3.9388,-3.9388,-3.9388,-3.9388,-3.99,-4.0961,-4.1609,-4.2831,-4.4384,-4.4598,-4.4598,-4.4598,-4.4598,-4.4598,-4.4598,-4.4598,-4.4598,-4.4654,-4.4735,-4.4903,-4.4968,-4.5323,-4.5603,-4.6504,-4.6316,-4.6193,-4.615,-4.584,-4.5311,-4.4603,-4.4433,-4.4807,-4.5783,-4.6307,-4.6501,-4.6471,-4.6501,-4.6548,-4.6565,-4.6548,-4.6537,-4.6556,-4.6567,-4.6561,-4.6546,-4.6501,-4.6262,-4.6112,-4.6172,-4.6127,-4.5992,-4.5933,-4.5933,-4.6037,-4.6172,-4.6202,-4.6217,-4.6109,-4.6002,-4.7486,-4.8678,-4.9729,-5.0927,-5.127,-5.1426,-5.1681,-5.1782,-5.1564,-5.1396,-5.1362,-5.0776,-3.3124,-3.3124,-3.3124,-3.3124,-3.3124,-3.3124,-3.3124,-3.3124,-3.3048,-3.3011,-3.298,-3.2898,-3.2923,-3.2805,-3.2353,-3.2206,-3.2367,-3.2973,-3.3459,-3.4145,-3.565,-3.6923,-3.7362,-3.7545,-3.7659,-3.7479,-3.6836,-3.6596,-3.6881,-3.706,-3.7375,-3.7584,-3.8512,-3.923,-3.9104,-3.9254,-3.929,-3.9224,-3.9328,-3.9388,-3.9388,-3.9388,-3.9388,-3.9388,-3.9388,-3.9388,-3.9388,-3.9388,-3.9445,-3.9737,-4.1313,-4.2892,-4.4167,-4.4542,-4.4598,-4.457,-4.457,-4.4542,-4.4542,-4.4412,-4.4468,-4.4559,-4.3956,-4.3542,-4.4158,-4.3719,-4.3779,-4.4894,-4.4542,-4.4649,-4.5603,-4.5458,-4.4903,-4.4753,-4.4482,-4.4668,-4.5233,-4.5402,-4.5529,-4.5454,-4.5334,-4.5367,-4.5483,-4.5475,-4.5456,-4.5465,-4.5516,-4.5562,-4.5563,-4.5638,-4.5391,-4.5364,-4.5469,-4.5439,-4.5379,-4.5259,-4.5244,-4.5244,-4.5432,-4.5597,-4.5964,-4.5996,-4.6306,-4.7753,-4.8763,-4.9902,-5.0777,-5.1161,-5.1311,-5.1394,-5.1342,-5.1219,-5.1016,-5.0879,-5.0516,-3.3124,-3.3124,-3.3124,-3.3124,-3.3124,-3.3124,-3.3111,-3.3048,-3.2604,-3.2441,-3.2378,-3.2001,-3.1888,-3.1825,-3.17,-3.1942,-3.2645,-3.3505,-3.4159,-3.4669,-3.5868,-3.6857,-3.731,-3.7389,-3.736,-3.7255,-3.6716,-3.6731,-3.7105,-3.6866,-3.6985,-3.7404,-3.7778,-3.7988,-3.7988,-3.8467,-3.8646,-3.8736,-3.9149,-3.9328,-3.9328,-3.9328,-3.9388,-3.9388,-3.9358,-3.9373,-3.9388,-3.9388,-3.9737,-4.0432,-4.2013,-4.3108,-4.3621,-4.4196,-4.4514,-4.444,-4.4006,-4.3948,-4.4327,-4.3977,-4.3948,-4.4457,-4.368,-4.3311,-4.3283,-4.2588,-4.2575,-4.3312,-4.3686,-4.4323,-4.5173,-4.52,-4.4977,-4.4772,-4.4662,-4.473,-4.534,-4.541,-4.5289,-4.5289,-4.5271,-4.5256,-4.5188,-4.5229,-4.5271,-4.5251,-4.5327,-4.5374,-4.5394,-4.5212,-4.5187,-4.4922,-4.487,-4.484,-4.4781,-4.4646,-4.4556,-4.4466,-4.4654,-4.4995,-4.5747,-4.6593,-4.7278,-4.8353,-4.8648,-4.9526,-5.049,-5.1172,-5.1185,-5.0896,-5.0693,-5.0422,-5.0202,-4.9999,-4.9649,-3.3124,-3.3124,-3.3124,-3.2986,-3.2742,-3.2704,-3.2591,-3.2328,-3.2039,-3.1863,-3.1788,-3.1549,-3.1386,-3.1373,-3.1173,-3.1583,-3.2474,-3.3271,-3.392,-3.4626,-3.5562,-3.6234,-3.6522,-3.6611,-3.6611,-3.6582,-3.6252,-3.6267,-3.6522,-3.6492,-3.6716,-3.7,-3.7285,-3.7389,-3.7479,-3.7749,-3.7973,-3.8048,-3.8392,-3.8536,-3.8586,-3.8571,-3.8571,-3.8646,-3.8811,-3.908,-3.9349,-3.9737,-4.0343,-4.1147,-4.1885,-4.2363,-4.2785,-4.3575,-4.4035,-4.4035,-4.3562,-4.3562,-4.3756,-4.3259,-4.3,-4.332,-4.297,-4.2541,-4.21,-4.1535,-4.1504,-4.1776,-4.2302,-4.3055,-4.4082,-4.4737,-4.54,-4.5865,-4.5444,-4.5339,-4.5871,-4.5786,-4.5462,-4.5264,-4.508,-4.4896,-4.4603,-4.4831,-4.5035,-4.5181,-4.5511,-4.5616,-4.57,-4.5371,-4.5056,-4.4824,-4.4369,-4.4228,-4.4168,-4.4063,-4.4373,-4.4297,-4.5,-4.5142,-4.5563,-4.6743,-4.757,-4.823,-4.8597,-4.9025,-4.9831,-5.0388,-5.0152,-4.9881,-4.9746,-4.9644,-4.9458,-4.9171,-4.8821,-3.3074,-3.298,-3.298,-3.2654,-3.2177,-3.2114,-3.1901,-3.1474,-3.1348,-3.1311,-3.1286,-3.1248,-3.1072,-3.1198,-3.0683,-3.1021,-3.1919,-3.2522,-3.3396,-3.4298,-3.5141,-3.5654,-3.5699,-3.5744,-3.5729,-3.5684,-3.5534,-3.5579,-3.5789,-3.6148,-3.6327,-3.6462,-3.6881,-3.712,-3.703,-3.7225,-3.7315,-3.736,-3.7539,-3.7644,-3.7659,-3.7659,-3.7674,-3.7734,-3.8063,-3.8742,-3.941,-4.0102,-4.0854,-4.1772,-4.118,-4.1478,-4.2093,-4.28,-4.3108,-4.3078,-4.2939,-4.2878,-4.3017,-4.2379,-4.1965,-4.2125,-4.2157,-4.1593,-4.1091,-4.0848,-4.0805,-4.077,-4.0555,-4.1785,-4.3201,-4.4505,-4.5712,-4.6517,-4.6371,-4.6297,-4.6242,-4.6234,-4.5869,-4.5116,-4.4977,-4.4472,-4.4182,-4.4305,-4.4989,-4.5462,-4.5725,-4.5891,-4.5909,-4.5662,-4.5259,-4.4833,-4.4288,-4.3636,-4.3521,-4.3446,-4.3976,-4.4366,-4.5553,-4.5973,-4.563,-4.6461,-4.7389,-4.8099,-4.8671,-4.8793,-4.8813,-4.9052,-4.9001,-4.8866,-4.8731,-4.8781,-4.8798,-4.8443,-4.8108,-3.2817,-3.2403,-3.239,-3.2077,-3.1625,-3.1562,-3.1486,-3.1323,-3.0934,-3.0771,-3.0696,-3.0344,-3.0193,-3.0168,-3.0119,-3.0484,-3.1492,-3.2318,-3.3498,-3.5085,-3.5326,-3.5504,-3.5489,-3.5489,-3.5489,-3.5489,-3.5489,-3.5489,-3.5579,-3.5669,-3.5729,-3.5789,-3.5968,-3.5938,-3.6028,-3.6492,-3.6671,-3.6761,-3.712,-3.7285,-3.727,-3.7285,-3.73,-3.7375,-3.7539,-3.8292,-3.9358,-3.98,-4.0282,-4.089,-4.1396,-4.1642,-4.1901,-4.2125,-4.2363,-4.2316,-4.1739,-4.1609,-4.1965,-4.1576,-4.128,-4.1739,-4.1804,-4.1642,-4.0811,-4.069,-4.0684,-4.0751,-4.1247,-4.2127,-4.3589,-4.5408,-4.603,-4.612,-4.6407,-4.6641,-4.6614,-4.6403,-4.6121,-4.5865,-4.5758,-4.5766,-4.5518,-4.5419,-4.5773,-4.5897,-4.6019,-4.618,-4.6078,-4.5945,-4.5346,-4.4773,-4.4139,-4.3541,-4.3471,-4.3567,-4.42,-4.4712,-4.5781,-4.6529,-4.6192,-4.6438,-4.7464,-4.826,-4.8832,-4.8717,-4.8206,-4.8156,-4.8189,-4.797,-4.78,-4.7902,-4.7902,-4.7631,-4.7564,-3.2353,-3.1838,-3.1825,-3.1512,-3.1072,-3.1009,-3.0884,-3.0633,-3.0357,-3.0231,-3.0181,-2.9892,-2.9792,-2.9779,-2.9818,-3.0317,-3.1352,-3.2664,-3.4027,-3.5231,-3.5504,-3.5504,-3.5489,-3.5489,-3.5489,-3.5489,-3.5489,-3.5489,-3.5489,-3.5489,-3.5534,-3.5489,-3.5489,-3.5579,-3.5504,-3.5863,-3.6013,-3.6058,-3.6327,-3.6522,-3.6522,-3.6522,-3.6731,-3.6926,-3.7,-3.756,-3.8458,-3.9378,-3.9805,-4.0313,-4.0959,-4.1396,-4.1396,-4.1445,-4.1739,-4.2316,-4.1379,-4.118,-4.1543,-4.0894,-4.0289,-4.0758,-4.1129,-4.0826,-4.05,-4.0447,-4.0432,-4.0397,-4.0888,-4.1993,-4.3524,-4.4764,-4.5299,-4.5727,-4.6223,-4.6739,-4.6756,-4.6616,-4.6258,-4.5993,-4.5729,-4.5441,-4.5419,-4.5848,-4.5906,-4.5717,-4.6288,-4.6452,-4.6303,-4.6028,-4.523,-4.4592,-4.3992,-4.3567,-4.348,-4.3804,-4.4625,-4.5179,-4.5905,-4.6436,-4.6455,-4.6974,-4.771,-4.8037,-4.8142,-4.7838,-4.7428,-4.7411,-4.7394,-4.731,-4.7208,-4.7158,-4.7124,-4.7056,-4.7039,-3.1775,-3.1273,-3.1273,-3.0972,-3.0532,-3.0495,-3.0256,-2.9867,-2.9779,-2.9854,-2.9792,-2.9779,-2.9779,-2.9779,-2.9779,-3.0381,-3.1683,-3.3052,-3.4495,-3.5392,-3.5489,-3.5489,-3.5489,-3.5489,-3.5489,-3.5489,-3.5489,-3.5489,-3.5489,-3.5489,-3.5489,-3.5489,-3.5489,-3.5489,-3.5504,-3.5504,-3.5579,-3.5624,-3.5669,-3.5684,-3.5669,-3.5654,-3.5923,-3.6222,-3.6342,-3.6675,-3.7533,-3.8461,-3.9325,-3.9426,-4.0096,-4.0458,-4.0551,-4.0607,-4.1028,-4.2458,-4.1062,-4.0774,-4.0927,-4.0255,-3.9517,-3.9445,-4.0239,-4.0274,-3.9864,-4.0185,-4.0328,-4.0397,-4.0805,-4.2044,-4.3122,-4.4148,-4.4815,-4.5211,-4.5992,-4.6389,-4.6464,-4.6464,-4.5989,-4.5958,-4.5968,-4.5844,-4.5554,-4.5652,-4.5616,-4.5673,-4.6266,-4.6555,-4.6331,-4.5839,-4.4918,-4.419,-4.3544,-4.3329,-4.3273,-4.3895,-4.4731,-4.5094,-4.5788,-4.5954,-4.6178,-4.6254,-4.6532,-4.6989,-4.7039,-4.6836,-4.6718,-4.665,-4.6633,-4.6633,-4.6447,-4.621,-4.6278,-4.6481,-4.643,-3.1223,-3.0746,-3.0746,-3.0432,-2.9967,-2.993,-2.9892,-2.9804,-2.9779,-2.9779,-2.9779,-2.9779,-2.9779,-2.9779,-2.9779,-3.0733,-3.2063,-3.3271,-3.4382,-3.5225,-3.5385,-3.54,-3.528,-3.5459,-3.5444,-3.5489,-3.5444,-3.5415,-3.5489,-3.5489,-3.5489,-3.5489,-3.5489,-3.5489,-3.5489,-3.5489,-3.5489,-3.5489,-3.5489,-3.5489,-3.5489,-3.5519,-3.5549,-3.5759,-3.5789,-3.6073,-3.6676,-3.7464,-3.7952,-3.7933,-3.9131,-3.9709,-3.976,-3.966,-3.9934,-4.0359,-4.013,-3.997,-4.0095,-3.9737,-3.9424,-3.9574,-4.0115,-4.0205,-3.9829,-4.0185,-4.0588,-4.108,-4.1901,-4.319,-4.4214,-4.4452,-4.4534,-4.4833,-4.4951,-4.5139,-4.5122,-4.5196,-4.5556,-4.5921,-4.6189,-4.6257,-4.574,-4.549,-4.561,-4.5527,-4.5681,-4.5881,-4.5711,-4.51,-4.425,-4.3569,-4.2976,-4.2956,-4.3008,-4.3879,-4.4666,-4.4666,-4.5041,-4.5058,-4.5133,-4.4959,-4.5162,-4.5889,-4.6295,-4.6312,-4.6177,-4.5957,-4.5889,-4.5872,-4.5551,-4.5241,-4.5483,-4.572,-4.5348,-3.067,-3.0193,-3.0181,-3.0043,-2.9804,-2.9779,-2.9779,-2.9779,-2.9779,-2.9779,-2.9779,-2.9779,-2.9779,-2.9704,-2.944,-3.0223,-3.1591,-3.2601,-3.355,-3.4329,-3.4786,-3.4741,-3.4711,-3.5115,-3.4951,-3.4741,-3.4773,-3.5192,-3.5459,-3.5489,-3.5444,-3.5489,-3.5489,-3.5489,-3.5489,-3.5489,-3.5489,-3.5489,-3.5489,-3.5489,-3.5489,-3.5489,-3.5489,-3.5489,-3.5504,-3.5684,-3.6007,-3.6673,-3.7016,-3.7173,-3.7937,-3.8412,-3.8584,-3.8871,-3.9415,-4.0201,-3.9849,-3.9631,-3.9829,-3.9722,-3.9388,-3.946,-3.9829,-3.9829,-3.9737,-4.017,-4.1046,-4.1997,-4.2489,-4.3651,-4.4446,-4.457,-4.4598,-4.4598,-4.4598,-4.4598,-4.4598,-4.4598,-4.5106,-4.5715,-4.551,-4.5402,-4.5414,-4.5327,-4.5549,-4.5496,-4.5261,-4.513,-4.5013,-4.4384,-4.3638,-4.3326,-4.2891,-4.3051,-4.3218,-4.3929,-4.457,-4.4598,-4.4598,-4.4598,-4.4598,-4.4649,-4.4801,-4.5241,-4.5466,-4.5686,-4.5432,-4.5145,-4.5145,-4.5162,-4.5038,-4.4919,-4.4925,-4.4857,-4.4699,-3.0181,-2.9779,-2.9779,-2.9779,-2.9779,-2.9779,-2.9779,-2.9767,-2.9641,-2.9578,-2.9603,-2.9478,-2.9402,-2.9391,-2.935,-2.9735,-3.0845,-3.1762,-3.2718,-3.3554,-3.4053,-3.3978,-3.3978,-3.4292,-3.4547,-3.3949,-3.4039,-3.4565,-3.4816,-3.4921,-3.5115,-3.5175,-3.5265,-3.54,-3.5459,-3.5489,-3.5489,-3.5489,-3.5489,-3.5489,-3.5489,-3.5489,-3.5489,-3.5489,-3.5489,-3.5519,-3.5624,-3.6052,-3.631,-3.648,-3.6888,-3.7244,-3.733,-3.7838,-3.9104,-4.0495,-3.9912,-3.996,-3.9975,-3.9829,-3.9388,-3.9424,-3.9388,-3.9481,-3.9935,-4.0656,-4.1609,-4.2909,-4.3336,-4.3651,-4.4412,-4.4598,-4.4598,-4.4598,-4.4598,-4.4598,-4.4598,-4.4598,-4.4598,-4.4818,-4.4598,-4.4699,-4.4936,-4.4925,-4.5111,-4.4887,-4.4683,-4.4334,-4.4185,-4.3839,-4.3271,-4.3129,-4.3002,-4.3188,-4.3487,-4.3988,-4.4468,-4.4598,-4.4598,-4.4598,-4.4598,-4.4598,-4.4767,-4.4886,-4.4852,-4.4987,-4.4682,-4.4598,-4.4767,-4.4835,-4.4666,-4.4649,-4.475,-4.4767,-4.4649,-2.9842,-2.9779,-2.9767,-2.9779,-2.9741,-2.9716,-2.9754,-2.9679,-2.9214,-2.9001,-2.8963,-2.8574,-2.8398,-2.8554,-2.9214,-2.9944,-3.0809,-3.1697,-3.2507,-3.3199,-3.3499,-3.3514,-3.344,-3.3574,-3.374,-3.332,-3.347,-3.3604,-3.3784,-3.3814,-3.4128,-3.4502,-3.4651,-3.4831,-3.519,-3.5295,-3.5489,-3.5474,-3.5474,-3.5489,-3.5489,-3.5489,-3.5489,-3.5489,-3.5489,-3.5489,-3.5489,-3.5684,-3.5714,-3.5774,-3.6267,-3.6567,-3.6686,-3.7165,-3.7499,-3.8185,-3.8707,-3.9445,-3.9484,-3.9487,-3.9388,-3.9388,-3.9388,-3.9809,-4.05,-4.1346,-4.2284,-4.3108,-4.3366,-4.3726,-4.4412,-4.457,-4.4598,-4.4598,-4.4598,-4.4598,-4.4598,-4.4598,-4.4598,-4.4598,-4.4598,-4.4598,-4.4699,-4.4649,-4.4604,-4.4337,-4.4077,-4.3809,-4.3641,-4.3532,-4.338,-4.3339,-4.3402,-4.3608,-4.3756,-4.4253,-4.4412,-4.4598,-4.4598,-4.4598,-4.4598,-4.4598,-4.4598,-4.4666,-4.4598,-4.4598,-4.4598,-4.4598,-4.4598,-4.4598,-4.4598,-4.4598,-4.4615,-4.4598,-4.4598,-2.8825,-2.8837,-2.885,-2.8837,-2.8837,-2.8837,-2.8825,-2.8787,-2.8574,-2.8461,-2.8423,-2.8235,-2.8174,-2.8415,-2.9259,-2.9948,-3.0598,-3.138,-3.1959,-3.2467,-3.2721,-3.2736,-3.2602,-3.3051,-3.3261,-3.2617,-3.2676,-3.2631,-3.2706,-3.3155,-3.3694,-3.3844,-3.3933,-3.4008,-3.4532,-3.4771,-3.4876,-3.5011,-3.525,-3.5474,-3.5489,-3.5489,-3.5489,-3.5489,-3.5489,-3.5489,-3.5489,-3.5489,-3.5489,-3.5549,-3.5848,-3.5923,-3.6073,-3.6492,-3.6896,-3.6956,-3.7719,-3.8392,-3.8816,-3.9155,-3.9284,-3.9409,-3.9517,-3.999,-4.118,-4.2221,-4.3092,-4.396,-4.4035,-4.427,-4.4468,-4.457,-4.4598,-4.4598,-4.4598,-4.4598,-4.4598,-4.4598,-4.4598,-4.4598,-4.4598,-4.4598,-4.4598,-4.4598,-4.4598,-4.4474,-4.4377,-4.4258,-4.4155,-4.4167,-4.4018,-4.3873,-4.3977,-4.4138,-4.4224,-4.4485,-4.4468,-4.4598,-4.4598,-4.4598,-4.4598,-4.4598,-4.4598,-4.4598,-4.4598,-4.4598,-4.4598,-4.4598,-4.4598,-4.4598,-4.4598,-4.4598,-4.4598,-4.4598,-4.4598,-2.7695,-2.772,-2.7984,-2.8109,-2.8109,-2.8109,-2.8134,-2.8109,-2.7959,-2.7896,-2.7858,-2.7756,-2.7758,-2.8156,-2.8779,-2.9375,-2.9991,-3.0851,-3.1292,-3.1632,-3.1884,-3.1944,-3.2003,-3.2481,-3.2436,-3.1496,-3.2045,-3.203,-3.2047,-3.2378,-3.2961,-3.323,-3.326,-3.341,-3.3634,-3.3993,-3.4339,-3.4638,-3.4998,-3.5265,-3.5459,-3.5489,-3.5489,-3.5489,-3.5489,-3.5489,-3.5489,-3.5489,-3.5489,-3.5504,-3.5534,-3.5594,-3.5669,-3.5983,-3.6222,-3.6424,-3.7098,-3.7785,-3.8182,-3.8527,-3.8936,-3.9262,-3.9975,-4.0774,-4.1739,-4.2909,-4.3785,-4.444,-4.4468,-4.4514,-4.4598,-4.4598,-4.4598,-4.4598,-4.4598,-4.4598,-4.4598,-4.4598,-4.4598,-4.4598,-4.4598,-4.4598,-4.4598,-4.4598,-4.4598,-4.4598,-4.4598,-4.4598,-4.457,-4.4542,-4.4412,-4.4224,-4.4281,-4.4384,-4.444,-4.4542,-4.457,-4.4598,-4.4598,-4.4598,-4.4598,-4.4598,-4.4598,-4.4598,-4.4598,-4.4598,-4.4598,-4.4598,-4.4598,-4.4598,-4.4598,-4.4598,-4.4598,-4.4598,-4.4598,-2.66,-2.67,-2.7657,-2.8059,-2.8047,-2.8109,-2.8072,-2.7921,-2.7519,-2.7344,-2.7281,-2.6914,-2.6782,-2.6999,-2.7795,-2.8536,-2.9223,-3.0011,-3.0807,-3.1322,-3.154,-3.1585,-3.1659,-3.1704,-3.1734,-3.1525,-3.1702,-3.1643,-3.154,-3.1705,-3.2168,-3.2497,-3.2572,-3.2961,-3.323,-3.3425,-3.3904,-3.4219,-3.4548,-3.4891,-3.5235,-3.5415,-3.5444,-3.5489,-3.5489,-3.5489,-3.5489,-3.5489,-3.5489,-3.5489,-3.5489,-3.5489,-3.5534,-3.5639,-3.5744,-3.5962,-3.677,-3.7394,-3.7669,-3.8016,-3.8105,-3.8963,-4.0259,-4.1644,-4.2252,-4.3634,-4.444,-4.457,-4.4598,-4.4598,-4.4598,-4.4598,-4.4598,-4.4598,-4.4598,-4.4598,-4.4598,-4.4598,-4.4598,-4.4598,-4.4598,-4.4598,-4.4598,-4.4598,-4.4598,-4.4598,-4.4598,-4.4598,-4.4598,-4.457,-4.457,-4.4497,-4.4497,-4.4542,-4.457,-4.4598,-4.4598,-4.4598,-4.4598,-4.4598,-4.4598,-4.4598,-4.4581,-4.4598,-4.4598,-4.4598,-4.4598,-4.4598,-4.4598,-4.4598,-4.4598,-4.4598,-4.4598,-4.4598,-4.4598,-2.6487,-2.6537,-2.6964,-2.7128,-2.714,-2.7128,-2.7128,-2.7102,-2.6901,-2.6813,-2.6813,-2.6634,-2.6782,-2.7196,-2.755,-2.8492,-2.969,-3.0103,-3.0792,-3.1278,-3.1496,-3.1496,-3.1496,-3.1496,-3.1511,-3.1496,-3.1496,-3.1496,-3.1496,-3.1496,-3.1585,-3.1839,-3.1944,-3.1974,-3.2273,-3.2766,-3.3275,-3.3694,-3.3933,-3.4218,-3.4758,-3.4938,-3.507,-3.5489,-3.5489,-3.5489,-3.5489,-3.5489,-3.5489,-3.5459,-3.5477,-3.5494,-3.5574,-3.5557,-3.5636,-3.5703,-3.6707,-3.708,-3.7483,-3.8121,-3.9214,-3.9971,-4.1261,-4.2234,-4.251,-4.3864,-4.4452,-4.4598,-4.4496,-4.4395,-4.4564,-4.4581,-4.4598,-4.4598,-4.453,-4.4445,-4.4378,-4.4276,-4.4276,-4.4141,-4.4395,-4.4598,-4.4598,-4.4598,-4.4598,-4.4598,-4.4598,-4.4564,-4.4479,-4.4327,-4.4225,-4.4209,-4.4175,-4.4259,-4.4259,-4.4395,-4.453,-4.4479,-4.4429,-4.4327,-4.4225,-4.4581,-4.4564,-4.4581,-4.4462,-4.4344,-4.4344,-4.453,-4.4581,-4.4581,-4.4581,-4.4598,-4.4598,-4.4598,-4.4598,-2.5996,-2.6009,-2.6009,-2.6197,-2.6461,-2.6487,-2.6487,-2.6487,-2.6512,-2.6487,-2.6487,-2.6521,-2.6769,-2.7317,-2.8019,-2.8588,-2.9752,-3.0389,-3.097,-3.1322,-3.1496,-3.1496,-3.1496,-3.1496,-3.1496,-3.1496,-3.1496,-3.1496,-3.1496,-3.1496,-3.154,-3.154,-3.1496,-3.157,-3.1675,-3.1944,-3.2557,-3.3051,-3.326,-3.3544,-3.4129,-3.4203,-3.4324,-3.4771,-3.4771,-3.4756,-3.4726,-3.4711,-3.4741,-3.4926,-3.5174,-3.5481,-3.5682,-3.59,-3.6134,-3.64,-3.6766,-3.7216,-3.7712,-3.847,-3.9745,-3.994,-4.1059,-4.1911,-4.2675,-4.3411,-4.3629,-4.3741,-4.3836,-4.3955,-4.3988,-4.3752,-4.3639,-4.3504,-4.3538,-4.3487,-4.3548,-4.3498,-4.3599,-4.3633,-4.3802,-4.3724,-4.369,-4.3656,-4.4124,-4.4113,-4.4113,-4.4045,-4.3944,-4.3758,-4.3548,-4.3548,-4.3582,-4.3701,-4.3836,-4.3684,-4.3504,-4.3464,-4.3447,-4.3582,-4.3667,-4.3988,-4.3972,-4.3599,-4.3565,-4.3826,-4.3775,-4.3555,-4.4022,-4.4547,-4.4496,-4.4429,-4.4598,-4.4598,-4.4598,-2.4908,-2.4858,-2.4908,-2.5498,-2.6336,-2.6461,-2.6411,-2.6311,-2.6336,-2.6348,-2.6311,-2.6336,-2.6404,-2.684,-2.779,-2.8559,-2.9254,-3.0411,-3.1127,-3.1139,-3.1107,-3.1316,-3.1406,-3.1361,-3.1361,-3.1481,-3.1496,-3.1496,-3.1496,-3.1496,-3.1496,-3.1496,-3.1496,-3.1496,-3.1496,-3.1511,-3.1884,-3.2422,-3.2527,-3.2916,-3.3365,-3.3514,-3.3619,-3.3844,-3.3903,-3.3933,-3.3948,-3.3948,-3.3963,-3.4055,-3.4942,-3.5308,-3.5431,-3.6584,-3.7105,-3.7399,-3.8131,-3.8608,-3.8865,-3.8888,-3.9162,-3.9586,-4.0861,-4.1378,-4.1435,-4.196,-4.2642,-4.2912,-4.2709,-4.2591,-4.2472,-4.2472,-4.2608,-4.2675,-4.276,-4.2794,-4.2844,-4.2878,-4.2997,-4.3064,-4.2692,-4.2405,-4.2422,-4.2608,-4.3318,-4.3572,-4.3606,-4.3511,-4.3386,-4.3234,-4.3007,-4.299,-4.3041,-4.2997,-4.3031,-4.2675,-4.2489,-4.2439,-4.2601,-4.2844,-4.2861,-4.2929,-4.2794,-4.2523,-4.2726,-4.3081,-4.2777,-4.2422,-4.3081,-4.3741,-4.4141,-4.4209,-4.4429,-4.4378,-4.4107,-2.48,-2.48,-2.48,-2.5034,-2.536,-2.5372,-2.5372,-2.5372,-2.5372,-2.5385,-2.5372,-2.5372,-2.5695,-2.6193,-2.6741,-2.7626,-2.8619,-2.8812,-2.9519,-3.0255,-3.0342,-3.0537,-3.0717,-3.0911,-3.1047,-3.1391,-3.1496,-3.1451,-3.1496,-3.1496,-3.1496,-3.1496,-3.1496,-3.1496,-3.1496,-3.1511,-3.1675,-3.1795,-3.1884,-3.2138,-3.2766,-3.2856,-3.3021,-3.3395,-3.3395,-3.338,-3.335,-3.332,-3.3335,-3.3457,-3.4451,-3.4926,-3.5105,-3.6099,-3.6738,-3.7132,-3.7824,-3.8718,-3.9296,-3.9718,-3.9964,-4.0263,-4.0623,-4.1214,-4.1795,-4.2065,-4.226,-4.2219,-4.2083,-4.2117,-4.2337,-4.232,-4.2388,-4.2405,-4.2455,-4.2439,-4.2455,-4.2439,-4.2489,-4.2523,-4.2303,-4.2151,-4.21,-4.1847,-4.2337,-4.2618,-4.2574,-4.2692,-4.2625,-4.2625,-4.2489,-4.2489,-4.2489,-4.2405,-4.2252,-4.1948,-4.1897,-4.1982,-4.2168,-4.2439,-4.2371,-4.2049,-4.2117,-4.2083,-4.2202,-4.2286,-4.2049,-4.1948,-4.2388,-4.2878,-4.3041,-4.3261,-4.3352,-4.3183,-4.2929,-2.4211,-2.4211,-2.4199,-2.4211,-2.4274,-2.4612,-2.48,-2.48,-2.48,-2.48,-2.4813,-2.4833,-2.5058,-2.5566,-2.6184,-2.6701,-2.7939,-2.8609,-2.8918,-2.9579,-2.9636,-2.9894,-3.0118,-3.0238,-3.0552,-3.0972,-3.1182,-3.1197,-3.1481,-3.1496,-3.1496,-3.1496,-3.1496,-3.1496,-3.1496,-3.1511,-3.1511,-3.157,-3.163,-3.1735,-3.2064,-3.2198,-3.2333,-3.2617,-3.2736,-3.2736,-3.2781,-3.2826,-3.2856,-3.317,-3.3804,-3.4488,-3.482,-3.5678,-3.6484,-3.7196,-3.7602,-3.8405,-3.8958,-3.9175,-3.9244,-3.9657,-4.0443,-4.1018,-4.1424,-4.1339,-4.139,-4.145,-4.1602,-4.1576,-4.1576,-4.161,-4.1644,-4.1627,-4.161,-4.1593,-4.1559,-4.1508,-4.1525,-4.161,-4.1644,-4.1644,-4.1644,-4.1457,-4.1373,-4.1484,-4.1508,-4.1677,-4.183,-4.1779,-4.1745,-4.1711,-4.1627,-4.1441,-4.1339,-4.1255,-4.1288,-4.1491,-4.1627,-4.1745,-4.1474,-4.1128,-4.1373,-4.1542,-4.1373,-4.1288,-4.139,-4.1534,-4.1576,-4.1568,-4.1517,-4.1805,-4.2151,-4.2185,-4.2083,-2.307,-2.3058,-2.3095,-2.3133,-2.3283,-2.4186,-2.465,-2.47,-2.4687,-2.4675,-2.4707,-2.46,-2.4703,-2.5064,-2.6351,-2.7015,-2.7411,-2.8625,-2.9077,-2.931,-2.9187,-2.9385,-2.949,-2.9579,-2.9939,-3.0283,-3.0522,-3.0731,-3.1316,-3.1301,-3.1301,-3.1421,-3.1436,-3.1481,-3.1496,-3.1496,-3.1496,-3.1496,-3.1511,-3.157,-3.1705,-3.1645,-3.1735,-3.1869,-3.1854,-3.1839,-3.1869,-3.1926,-3.1939,-3.2486,-3.3537,-3.4331,-3.5315,-3.6679,-3.742,-3.7824,-3.7773,-3.801,-3.8135,-3.8244,-3.8227,-3.8667,-3.9343,-3.9825,-4.0079,-4.0163,-4.0316,-4.0383,-4.0451,-4.0367,-4.0316,-4.0367,-4.0434,-4.0417,-4.0417,-4.0383,-4.0367,-4.0367,-4.0383,-4.0417,-4.0468,-4.0502,-4.0587,-4.0502,-4.062,-4.0705,-4.0823,-4.0908,-4.0993,-4.079,-4.0739,-4.0671,-4.0553,-4.0367,-4.0367,-4.0637,-4.0671,-4.0874,-4.0671,-4.0671,-4.0383,-4.04,-4.0654,-4.0722,-4.0367,-4.0333,-4.0688,-4.0637,-4.0417,-4.04,-4.0654,-4.0874,-4.139,-4.1644,-4.166,-2.2322,-2.2058,-2.2769,-2.2882,-2.2644,-2.3283,-2.3597,-2.3584,-2.3584,-2.3584,-2.3597,-2.3584,-2.3974,-2.4527,-2.5481,-2.6176,-2.6922,-2.7592,-2.7984,-2.8229,-2.8408,-2.8573,-2.8727,-2.8921,-2.928,-2.9639,-2.9894,-2.9998,-3.0223,-3.0522,-3.0778,-3.0821,-3.1122,-3.1316,-3.1376,-3.1466,-3.1406,-3.1421,-3.1391,-3.1496,-3.1496,-3.1496,-3.1496,-3.1496,-3.1582,-3.1582,-3.164,-3.2092,-3.2231,-3.264,-3.38,-3.4584,-3.4767,-3.5668,-3.6389,-3.714,-3.7516,-3.7915,-3.7898,-3.7882,-3.7804,-3.7736,-3.8294,-3.8396,-3.865,-3.8937,-3.9249,-3.9402,-3.9605,-3.9673,-3.9706,-3.9723,-3.9825,-3.9893,-3.9926,-3.9977,-3.9994,-4.0113,-4.0079,-3.9876,-3.9893,-3.9706,-3.9757,-3.9859,-3.9994,-4.0062,-4.0096,-4.013,-4.0282,-4.0113,-4.0146,-4.0113,-4.0113,-4.0113,-4.0113,-4.0316,-4.0231,-4.0163,-4.0113,-4.0113,-4.018,-4.0214,-4.013,-4.0113,-4.0113,-4.0113,-4.018,-4.0113,-4.0113,-4.0113,-4.0299,-4.0434,-4.0603,-4.0925,-4.1077,-2.1794,-2.1606,-2.2184,-2.2255,-2.2083,-2.2334,-2.2456,-2.2531,-2.2907,-2.3095,-2.3095,-2.3133,-2.3531,-2.4374,-2.5145,-2.5853,-2.6582,-2.7321,-2.772,-2.7735,-2.7585,-2.7884,-2.8113,-2.8278,-2.8611,-2.8969,-2.925,-2.9379,-2.957,-2.9846,-3.0133,-3.0178,-3.0614,-3.0688,-3.0687,-3.0599,-3.0644,-3.0868,-3.1122,-3.1406,-3.1481,-3.1466,-3.1496,-3.1553,-3.1668,-3.1853,-3.1979,-3.2614,-3.2949,-3.3093,-3.4137,-3.4577,-3.473,-3.5261,-3.5678,-3.6366,-3.6603,-3.6817,-3.6817,-3.6867,-3.6952,-3.7043,-3.7077,-3.6992,-3.7415,-3.7855,-3.8278,-3.8616,-3.892,-3.9157,-3.9191,-3.9242,-3.9428,-3.9597,-3.9706,-3.9791,-3.9926,-4.0079,-3.991,-3.9614,-3.9394,-3.9157,-3.9165,-3.9266,-3.9233,-3.9039,-3.8971,-3.8988,-3.9419,-3.9808,-3.996,-4.0113,-4.0113,-4.0113,-4.0045,-3.991,-3.9926,-3.996,-4.0113,-4.0113,-4.0096,-4.0045,-3.9994,-4.0045,-4.0113,-4.0028,-3.9876,-4.0062,-4.0113,-4.0011,-3.9926,-4.0096,-4.0214,-4.0367,-4.0417,-2.1337,-2.1317,-2.1405,-2.1534,-2.1493,-2.1556,-2.1568,-2.1594,-2.251,-2.2945,-2.2895,-2.2945,-2.3216,-2.3741,-2.4571,-2.5282,-2.6029,-2.6773,-2.7345,-2.751,-2.7585,-2.7705,-2.769,-2.766,-2.8072,-2.839,-2.8581,-2.8715,-2.9215,-2.9447,-2.949,-2.9505,-2.9714,-2.9864,-2.9924,-2.9909,-2.9968,-3.0103,-3.0642,-3.1077,-3.1271,-3.1376,-3.148,-3.1611,-3.2007,-3.2437,-3.268,-3.3119,-3.3649,-3.3903,-3.4268,-3.4706,-3.4977,-3.5228,-3.556,-3.5684,-3.5904,-3.5938,-3.5988,-3.6005,-3.5904,-3.5819,-3.5633,-3.587,-3.6428,-3.7161,-3.7686,-3.7905,-3.8193,-3.8447,-3.8514,-3.8531,-3.865,-3.8819,-3.8937,-3.9073,-3.9225,-3.9292,-3.9174,-3.892,-3.87,-3.8481,-3.8461,-3.857,-3.8616,-3.8227,-3.8142,-3.8193,-3.842,-3.9122,-3.9351,-3.9622,-3.9537,-3.9419,-3.9428,-3.936,-3.9605,-3.974,-3.9774,-3.9656,-3.9292,-3.952,-3.9859,-3.9605,-3.9317,-3.9571,-3.9605,-3.9554,-3.9469,-3.9486,-3.9486,-3.974,-3.9842,-3.974,-3.9994,-2.0118,-2.025,-2.0704,-2.1119,-2.1468,-2.1481,-2.1468,-2.1506,-2.1732,-2.1882,-2.1882,-2.1936,-2.2103,-2.2674,-2.373,-2.4406,-2.485,-2.6203,-2.6723,-2.7016,-2.7225,-2.7375,-2.754,-2.748,-2.7694,-2.7754,-2.7869,-2.8015,-2.8295,-2.8599,-2.8846,-2.8906,-2.9131,-2.9397,-2.9397,-2.9412,-2.9427,-2.937,-2.9699,-3.0353,-3.0696,-3.0834,-3.0939,-3.1284,-3.1749,-3.2075,-3.247,-3.3166,-3.3813,-3.4333,-3.5005,-3.531,-3.5389,-3.5515,-3.556,-3.56,-3.5447,-3.5414,-3.5447,-3.543,-3.5414,-3.5549,-3.5583,-3.56,-3.596,-3.6654,-3.7077,-3.7229,-3.7398,-3.7635,-3.7787,-3.7787,-3.7855,-3.8007,-3.8176,-3.8328,-3.8497,-3.8447,-3.8396,-3.8193,-3.7973,-3.7811,-3.7757,-3.7807,-3.7889,-3.7939,-3.7932,-3.7939,-3.7818,-3.8163,-3.8091,-3.8294,-3.8413,-3.8396,-3.8582,-3.8751,-3.892,-3.8802,-3.8717,-3.8599,-3.8531,-3.8734,-3.8937,-3.8565,-3.8362,-3.87,-3.8802,-3.8464,-3.843,-3.87,-3.8768,-3.8937,-3.8785,-3.8667,-3.9259,-1.9441,-1.9823,-2.0176,-2.0478,-2.0702,-2.074,-2.074,-2.074,-2.074,-2.074,-2.0853,-2.1272,-2.1788,-2.2268,-2.3278,-2.3952,-2.4373,-2.556,-2.6051,-2.6318,-2.6581,-2.6836,-2.7016,-2.718,-2.7435,-2.748,-2.757,-2.766,-2.7675,-2.7869,-2.8173,-2.8233,-2.8633,-2.8783,-2.8753,-2.8738,-2.8783,-2.8678,-2.8783,-2.9286,-2.9966,-3.0172,-3.022,-3.0627,-3.1031,-3.1478,-3.206,-3.277,-3.3385,-3.3891,-3.4325,-3.4452,-3.4418,-3.4484,-3.4535,-3.4551,-3.4568,-3.4754,-3.4906,-3.494,-3.5008,-3.5211,-3.5165,-3.5047,-3.5583,-3.6231,-3.6248,-3.6383,-3.64,-3.658,-3.6597,-3.6597,-3.696,-3.7227,-3.7411,-3.7601,-3.7719,-3.777,-3.7635,-3.7432,-3.7077,-3.662,-3.6558,-3.6558,-3.6648,-3.6664,-3.6834,-3.6969,-3.7005,-3.7197,-3.7117,-3.7161,-3.7381,-3.777,-3.8142,-3.821,-3.8193,-3.8007,-3.7713,-3.7956,-3.8075,-3.8024,-3.7956,-3.7804,-3.7787,-3.8041,-3.8007,-3.7702,-3.7831,-3.821,-3.8159,-3.8075,-3.7848,-3.7713,-3.8311,-1.9135,-1.9773,-1.9811,-1.9811,-1.9798,-1.9823,-1.9849,-1.9849,-1.9823,-1.9849,-1.9999,-2.084,-2.2034,-2.2734,-2.3391,-2.4189,-2.4837,-2.5141,-2.538,-2.5501,-2.5674,-2.6093,-2.6363,-2.6497,-2.6866,-2.719,-2.734,-2.748,-2.7615,-2.7735,-2.7735,-2.7615,-2.7585,-2.7615,-2.7585,-2.763,-2.7794,-2.7931,-2.8122,-2.8474,-2.8987,-2.9555,-2.983,-3.0053,-3.0387,-3.0982,-3.1606,-3.2154,-3.2813,-3.3218,-3.3601,-3.3672,-3.3694,-3.3744,-3.3677,-3.3711,-3.3761,-3.3981,-3.4117,-3.3964,-3.4387,-3.4687,-3.4506,-3.4658,-3.516,-3.5295,-3.5329,-3.5498,-3.5554,-3.5684,-3.5701,-3.5825,-3.6243,-3.6491,-3.6689,-3.6863,-3.6941,-3.7026,-3.6857,-3.6694,-3.6282,-3.5752,-3.5684,-3.5667,-3.565,-3.5616,-3.5616,-3.5616,-3.5774,-3.6152,-3.6315,-3.6428,-3.6631,-3.707,-3.7425,-3.7442,-3.7273,-3.7178,-3.6992,-3.7341,-3.751,-3.7172,-3.707,-3.7313,-3.7364,-3.7273,-3.729,-3.7127,-3.7381,-3.751,-3.7239,-3.7003,-3.707,-3.7036,-3.7398,-1.9123,-1.9798,-1.9798,-1.9798,-1.9798,-1.9798,-1.9798,-1.9798,-1.9798,-1.9798,-1.9861,-1.9924,-2.0372,-2.063,-2.1681,-2.2607,-2.3447,-2.4166,-2.4694,-2.4814,-2.5151,-2.5525,-2.5818,-2.5937,-2.6213,-2.6537,-2.6855,-2.708,-2.718,-2.7405,-2.757,-2.7525,-2.7585,-2.7585,-2.7585,-2.7585,-2.7585,-2.7685,-2.7968,-2.84,-2.87,-2.9345,-3.0198,-3.0638,-3.1186,-3.167,-3.2085,-3.2331,-3.2796,-3.316,-3.3288,-3.322,-3.3152,-3.3102,-3.3102,-3.3017,-3.3051,-3.3271,-3.3355,-3.322,-3.3639,-3.3926,-3.3778,-3.3728,-3.4032,-3.4083,-3.4286,-3.4793,-3.4996,-3.543,-3.5549,-3.5633,-3.5921,-3.5921,-3.6045,-3.6062,-3.6113,-3.6129,-3.6062,-3.5994,-3.5876,-3.565,-3.5633,-3.5633,-3.5633,-3.5616,-3.5616,-3.5616,-3.5616,-3.5616,-3.5616,-3.5802,-3.6039,-3.5887,-3.6039,-3.6293,-3.6242,-3.6157,-3.6214,-3.6479,-3.6479,-3.6073,-3.6056,-3.6502,-3.636,-3.6157,-3.6191,-3.6535,-3.6343,-3.6377,-3.609,-3.5938,-3.6107,-3.6326,-3.6671]}]]